Time,TemperatureF,DewpointF,PressureIn,WindDirection,WindDirectionDegrees,WindSpeedMPH,WindSpeedGustMPH,Humidity,HourlyPrecipIn,Conditions,Clouds,dailyrainin,SoftwareType,DateUTC
2013-10-27 00:00:00,37.7,35.0,29.99,West,260,0.0,3.0,90,0.00,,,0.04,VWS V14.00,2013-10-27 04:00:00,
2013-10-27 00:01:00,37.9,35.2,29.99,West,261,0.0,3.0,90,0.00,,,0.04,VWS V14.00,2013-10-27 04:01:00,
2013-10-27 00:02:00,37.8,35.1,29.99,West,260,1.0,3.0,90,0.00,,,0.04,VWS V14.00,2013-10-27 04:02:00,
2013-10-27 00:03:00,37.6,34.9,29.99,West,260,0.0,2.0,90,0.00,,,0.00,VWS V14.00,2013-10-27 04:03:00,
2013-10-27 00:04:00,37.6,34.9,29.99,West,260,0.0,2.0,90,0.00,,,0.00,VWS V14.00,2013-10-27 04:04:00,
2013-10-27 00:05:00,37.6,34.9,29.99,West,260,2.0,2.0,90,0.00,,,0.00,VWS V14.00,2013-10-27 04:05:00,
2013-10-27 00:06:00,37.6,34.9,29.99,West,260,0.0,2.0,90,0.00,,,0.00,VWS V14.00,2013-10-27 04:06:00,
2013-10-27 00:07:00,37.8,35.1,29.99,West,260,0.0,3.0,90,0.00,,,0.04,VWS V14.00,2013-10-27 04:07:00,
2013-10-27 00:08:00,37.5,34.8,29.99,West,261,0.0,3.0,90,0.00,,,0.00,VWS V14.00,2013-10-27 04:08:00,
2013-10-27 00:09:00,37.5,34.8,29.99,West,261,0.0,3.0,90,0.00,,,0.00,VWS V14.00,2013-10-27 04:09:00,
2013-10-27 00:10:00,37.5,34.8,29.99,West,260,0.0,3.0,90,0.00,,,0.00,VWS V14.00,2013-10-27 04:10:00,
2013-10-27 00:11:00,37.5,34.8,29.99,West,260,0.0,3.0,90,0.00,,,0.00,VWS V14.00,2013-10-27 04:11:00,
2013-10-27 00:12:00,37.6,34.9,29.99,West,261,2.0,2.0,90,0.00,,,0.00,VWS V14.00,2013-10-27 04:12:00,
2013-10-27 00:13:00,37.5,34.8,29.99,West,261,1.0,3.0,90,0.00,,,0.00,VWS V14.00,2013-10-27 04:13:00,
2013-10-27 00:14:00,37.5,34.8,29.99,West,261,0.0,3.0,90,0.00,,,0.00,VWS V14.00,2013-10-27 04:14:00,
2013-10-27 00:15:00,37.5,34.8,29.99,West,261,0.0,3.0,90,0.00,,,0.00,VWS V14.00,2013-10-27 04:15:00,
2013-10-27 00:16:00,37.4,34.7,29.99,West,261,0.0,3.0,90,0.00,,,0.00,VWS V14.00,2013-10-27 04:16:00,
2013-10-27 00:17:00,37.6,34.9,29.99,West,260,0.0,3.0,90,0.00,,,0.00,VWS V14.00,2013-10-27 04:17:00,
2013-10-27 00:18:00,37.4,34.7,29.99,West,260,0.0,3.0,90,0.00,,,0.00,VWS V14.00,2013-10-27 04:18:00,
2013-10-27 00:19:00,37.3,34.6,29.99,West,261,0.0,3.0,90,0.00,,,0.00,VWS V14.00,2013-10-27 04:19:00,
2013-10-27 00:20:00,37.3,34.6,29.99,West,261,0.0,3.0,90,0.00,,,0.00,VWS V14.00,2013-10-27 04:20:00,
2013-10-27 00:21:00,37.2,34.5,29.99,West,261,0.0,3.0,90,0.00,,,0.00,VWS V14.00,2013-10-27 04:21:00,
2013-10-27 00:22:00,37.5,34.8,29.99,West,260,0.0,3.0,90,0.00,,,0.00,VWS V14.00,2013-10-27 04:22:00,
2013-10-27 00:23:00,37.2,34.5,29.99,West,261,0.0,3.0,90,0.00,,,0.00,VWS V14.00,2013-10-27 04:23:00,
2013-10-27 00:24:00,37.1,34.4,29.99,West,260,0.0,3.0,90,0.00,,,0.00,VWS V14.00,2013-10-27 04:24:00,
2013-10-27 00:25:00,37.0,34.3,29.99,West,260,0.0,3.0,90,0.00,,,0.00,VWS V14.00,2013-10-27 04:25:00,
2013-10-27 00:26:00,37.0,34.3,29.99,West,261,0.0,3.0,90,0.00,,,0.00,VWS V14.00,2013-10-27 04:26:00,
2013-10-27 00:27:00,37.4,34.7,29.99,West,260,0.0,3.0,90,0.00,,,0.00,VWS V14.00,2013-10-27 04:27:00,
2013-10-27 00:28:00,36.9,34.2,29.99,West,261,3.0,3.0,90,0.00,,,0.00,VWS V14.00,2013-10-27 04:28:00,
2013-10-27 00:29:00,36.9,34.2,29.99,West,261,0.0,3.0,90,0.00,,,0.00,VWS V14.00,2013-10-27 04:29:00,
2013-10-27 00:30:00,36.9,34.2,29.99,West,261,0.0,3.0,90,0.00,,,0.00,VWS V14.00,2013-10-27 04:30:00,
2013-10-27 00:31:00,36.9,34.2,30.00,West,260,0.0,0.0,90,0.00,,,0.00,VWS V14.00,2013-10-27 04:31:00,
2013-10-27 00:32:00,37.2,34.5,29.99,West,261,0.0,3.0,90,0.00,,,0.00,VWS V14.00,2013-10-27 04:32:00,
2013-10-27 00:33:00,36.9,34.5,29.99,West,261,0.0,2.0,91,0.00,,,0.00,VWS V14.00,2013-10-27 04:33:00,
2013-10-27 00:34:00,36.9,34.5,29.99,West,261,0.0,2.0,91,0.00,,,0.00,VWS V14.00,2013-10-27 04:34:00,
2013-10-27 00:35:00,36.9,34.5,29.99,West,261,2.0,4.0,91,0.00,,,0.00,VWS V14.00,2013-10-27 04:35:00,
2013-10-27 00:36:00,36.9,34.5,30.00,West,261,1.0,4.0,91,0.00,,,0.00,VWS V14.00,2013-10-27 04:36:00,
2013-10-27 00:37:00,37.0,34.3,29.99,West,261,0.0,3.0,90,0.00,,,0.00,VWS V14.00,2013-10-27 04:37:00,
2013-10-27 00:38:00,36.9,34.5,30.00,West,261,0.0,4.0,91,0.00,,,0.00,VWS V14.00,2013-10-27 04:38:00,
2013-10-27 00:39:00,36.9,34.5,30.00,West,261,1.0,4.0,91,0.00,,,0.00,VWS V14.00,2013-10-27 04:39:00,
2013-10-27 00:40:00,36.9,34.5,30.00,West,261,0.0,4.0,91,0.00,,,0.00,VWS V14.00,2013-10-27 04:40:00,
2013-10-27 00:41:00,36.8,34.4,30.00,West,261,0.0,4.0,91,0.00,,,0.00,VWS V14.00,2013-10-27 04:41:00,
2013-10-27 00:42:00,36.9,34.2,30.00,West,261,0.0,0.0,90,0.00,,,0.00,VWS V14.00,2013-10-27 04:42:00,
2013-10-27 00:43:00,36.9,34.5,30.00,West,261,0.0,4.0,91,0.00,,,0.00,VWS V14.00,2013-10-27 04:43:00,
2013-10-27 00:44:00,36.8,34.4,30.00,West,261,0.0,4.0,91,0.00,,,0.00,VWS V14.00,2013-10-27 04:44:00,
2013-10-27 00:45:00,36.9,34.5,29.99,West,261,0.0,4.0,91,0.00,,,0.00,VWS V14.00,2013-10-27 04:45:00,
2013-10-27 00:46:00,36.9,34.5,30.00,West,261,0.0,4.0,91,0.00,,,0.00,VWS V14.00,2013-10-27 04:46:00,
2013-10-27 00:47:00,36.9,34.5,30.00,West,261,0.0,4.0,91,0.00,,,0.00,VWS V14.00,2013-10-27 04:47:00,
2013-10-27 00:48:00,36.9,34.2,29.99,West,261,0.0,4.0,90,0.00,,,0.00,VWS V14.00,2013-10-27 04:48:00,
2013-10-27 00:49:00,36.8,34.2,29.99,West,261,0.0,4.0,90,0.00,,,0.00,VWS V14.00,2013-10-27 04:49:00,
2013-10-27 00:50:00,36.8,34.2,29.99,West,261,0.0,4.0,90,0.00,,,0.00,VWS V14.00,2013-10-27 04:50:00,
2013-10-27 00:51:00,36.8,34.2,29.99,West,261,0.0,4.0,90,0.00,,,0.00,VWS V14.00,2013-10-27 04:51:00,
2013-10-27 00:52:00,36.9,34.5,30.00,West,261,0.0,4.0,91,0.00,,,0.00,VWS V14.00,2013-10-27 04:52:00,
2013-10-27 00:53:00,36.8,34.2,29.99,West,261,0.0,4.0,90,0.00,,,0.00,VWS V14.00,2013-10-27 04:53:00,
2013-10-27 00:54:00,36.8,34.2,29.99,West,261,0.0,4.0,90,0.00,,,0.00,VWS V14.00,2013-10-27 04:54:00,
2013-10-27 00:55:00,36.8,34.2,29.99,West,261,0.0,4.0,90,0.00,,,0.00,VWS V14.00,2013-10-27 04:55:00,
2013-10-27 00:56:00,36.7,34.0,29.99,West,261,0.0,4.0,90,0.00,,,0.00,VWS V14.00,2013-10-27 04:56:00,
2013-10-27 00:57:00,36.9,34.5,30.00,West,261,0.0,4.0,91,0.00,,,0.00,VWS V14.00,2013-10-27 04:57:00,
2013-10-27 00:58:00,36.7,34.0,29.99,West,261,0.0,4.0,90,0.00,,,0.00,VWS V14.00,2013-10-27 04:58:00,
2013-10-27 00:59:00,36.6,34.0,29.99,West,261,0.0,4.0,90,0.00,,,0.00,VWS V14.00,2013-10-27 04:59:00,
2013-10-27 01:00:00,36.6,34.0,29.99,West,261,0.0,4.0,90,0.00,,,0.00,VWS V14.00,2013-10-27 05:00:00,
2013-10-27 01:01:00,36.6,34.0,29.99,West,261,0.0,0.0,90,0.00,,,0.00,VWS V14.00,2013-10-27 05:01:00,
2013-10-27 01:02:00,36.8,34.2,29.99,West,261,0.0,4.0,90,0.00,,,0.00,VWS V14.00,2013-10-27 05:02:00,
2013-10-27 01:03:00,36.5,33.8,29.99,West,261,0.0,0.0,90,0.00,,,0.00,VWS V14.00,2013-10-27 05:03:00,
2013-10-27 01:04:00,36.5,33.8,29.99,West,261,0.0,1.0,90,0.00,,,0.00,VWS V14.00,2013-10-27 05:04:00,
2013-10-27 01:05:00,36.5,33.8,29.99,West,261,0.0,1.0,90,0.00,,,0.00,VWS V14.00,2013-10-27 05:05:00,
2013-10-27 01:06:00,36.5,33.8,29.99,West,261,0.0,1.0,90,0.00,,,0.00,VWS V14.00,2013-10-27 05:06:00,
2013-10-27 01:07:00,36.7,34.0,29.99,West,261,0.0,4.0,90,0.00,,,0.00,VWS V14.00,2013-10-27 05:07:00,
2013-10-27 01:08:00,36.4,33.8,29.99,West,261,0.0,1.0,90,0.00,,,0.00,VWS V14.00,2013-10-27 05:08:00,
2013-10-27 01:09:00,36.4,33.8,29.99,West,261,0.0,1.0,90,0.00,,,0.00,VWS V14.00,2013-10-27 05:09:00,
2013-10-27 01:10:00,36.3,33.7,29.99,West,261,0.0,1.0,90,0.00,,,0.00,VWS V14.00,2013-10-27 05:10:00,
2013-10-27 01:11:00,36.3,33.9,29.99,West,261,0.0,1.0,91,0.00,,,0.00,VWS V14.00,2013-10-27 05:11:00,
2013-10-27 01:12:00,36.6,34.0,29.99,West,261,0.0,0.0,90,0.00,,,0.00,VWS V14.00,2013-10-27 05:12:00,
2013-10-27 01:13:00,36.2,33.6,29.99,West,261,0.0,1.0,90,0.00,,,0.00,VWS V14.00,2013-10-27 05:13:00,
2013-10-27 01:14:00,36.2,33.6,29.99,West,261,0.0,1.0,90,0.00,,,0.00,VWS V14.00,2013-10-27 05:14:00,
2013-10-27 01:15:00,36.1,33.7,29.99,West,261,0.0,1.0,91,0.00,,,0.00,VWS V14.00,2013-10-27 05:15:00,
2013-10-27 01:16:00,36.1,33.7,29.99,West,261,0.0,1.0,91,0.00,,,0.00,VWS V14.00,2013-10-27 05:16:00,
2013-10-27 01:17:00,36.4,33.8,29.99,West,261,0.0,1.0,90,0.00,,,0.00,VWS V14.00,2013-10-27 05:17:00,
2013-10-27 01:18:00,36.0,33.4,29.99,West,261,0.0,1.0,90,0.00,,,0.00,VWS V14.00,2013-10-27 05:18:00,
2013-10-27 01:19:00,36.0,33.4,29.99,West,261,0.0,1.0,90,0.00,,,0.00,VWS V14.00,2013-10-27 05:19:00,
2013-10-27 01:20:00,35.9,33.3,29.99,West,261,0.0,1.0,90,0.00,,,0.00,VWS V14.00,2013-10-27 05:20:00,
2013-10-27 01:21:00,35.9,33.3,29.99,West,261,0.0,1.0,90,0.00,,,0.00,VWS V14.00,2013-10-27 05:21:00,
2013-10-27 01:22:00,36.3,33.7,29.99,West,261,0.0,1.0,90,0.00,,,0.00,VWS V14.00,2013-10-27 05:22:00,
2013-10-27 01:23:00,35.7,33.1,29.99,West,261,0.0,1.0,90,0.00,,,0.00,VWS V14.00,2013-10-27 05:23:00,
2013-10-27 01:24:00,35.6,33.0,29.99,West,261,0.0,1.0,90,0.00,,,0.00,VWS V14.00,2013-10-27 05:24:00,
2013-10-27 01:25:00,35.6,33.0,29.99,West,261,0.0,1.0,90,0.00,,,0.00,VWS V14.00,2013-10-27 05:25:00,
2013-10-27 01:26:00,35.5,32.9,29.99,West,261,0.0,1.0,90,0.00,,,0.00,VWS V14.00,2013-10-27 05:26:00,
2013-10-27 01:27:00,36.1,33.7,29.99,West,261,0.0,1.0,91,0.00,,,0.00,VWS V14.00,2013-10-27 05:27:00,
2013-10-27 01:28:00,35.4,32.8,29.99,West,261,0.0,1.0,90,0.00,,,0.00,VWS V14.00,2013-10-27 05:28:00,
2013-10-27 01:29:00,35.3,32.7,29.99,West,261,0.0,1.0,90,0.00,,,0.00,VWS V14.00,2013-10-27 05:29:00,
2013-10-27 01:30:00,35.2,32.6,29.99,West,261,0.0,1.0,90,0.00,,,0.00,VWS V14.00,2013-10-27 05:30:00,
2013-10-27 01:31:00,35.2,32.6,30.00,West,261,0.0,0.0,90,0.00,,,0.00,VWS V14.00,2013-10-27 05:31:00,
2013-10-27 01:32:00,35.8,33.2,29.99,West,261,0.0,1.0,90,0.00,,,0.00,VWS V14.00,2013-10-27 05:32:00,
2013-10-27 01:33:00,35.0,32.6,30.00,West,261,0.0,0.0,91,0.00,,,0.00,VWS V14.00,2013-10-27 05:33:00,
2013-10-27 01:34:00,34.9,32.3,29.99,West,261,0.0,0.0,90,0.00,,,0.00,VWS V14.00,2013-10-27 05:34:00,
2013-10-27 01:35:00,34.8,32.2,29.99,West,261,0.0,0.0,90,0.00,,,0.00,VWS V14.00,2013-10-27 05:35:00,
2013-10-27 01:36:00,34.8,32.2,30.00,West,261,0.0,0.0,90,0.00,,,0.00,VWS V14.00,2013-10-27 05:36:00,
2013-10-27 01:37:00,35.5,32.9,29.99,West,261,0.0,1.0,90,0.00,,,0.00,VWS V14.00,2013-10-27 05:37:00,
2013-10-27 01:38:00,34.6,32.0,30.00,West,261,0.0,0.0,90,0.00,,,0.00,VWS V14.00,2013-10-27 05:38:00,
2013-10-27 01:39:00,34.4,32.0,30.00,West,261,0.0,0.0,91,0.00,,,0.00,VWS V14.00,2013-10-27 05:39:00,
2013-10-27 01:40:00,34.4,32.0,29.99,West,261,0.0,0.0,91,0.00,,,0.00,VWS V14.00,2013-10-27 05:40:00,
2013-10-27 01:41:00,34.4,32.0,29.99,West,261,0.0,0.0,91,0.00,,,0.00,VWS V14.00,2013-10-27 05:41:00,
2013-10-27 01:42:00,35.1,32.5,30.00,West,261,0.0,0.0,90,0.00,,,0.00,VWS V14.00,2013-10-27 05:42:00,
2013-10-27 01:43:00,34.4,32.0,30.00,West,261,0.0,0.0,91,0.00,,,0.00,VWS V14.00,2013-10-27 05:43:00,
2013-10-27 01:44:00,34.4,32.0,30.00,West,261,0.0,0.0,91,0.00,,,0.00,VWS V14.00,2013-10-27 05:44:00,
2013-10-27 01:45:00,34.3,32.0,30.00,West,261,0.0,0.0,91,0.00,,,0.00,VWS V14.00,2013-10-27 05:45:00,
2013-10-27 01:46:00,34.2,31.9,30.00,West,261,0.0,0.0,91,0.00,,,0.00,VWS V14.00,2013-10-27 05:46:00,
2013-10-27 01:47:00,34.7,32.1,30.00,West,261,0.0,0.0,90,0.00,,,0.00,VWS V14.00,2013-10-27 05:47:00,
2013-10-27 01:48:00,34.1,31.8,30.00,West,261,0.0,0.0,91,0.00,,,0.00,VWS V14.00,2013-10-27 05:48:00,
2013-10-27 01:49:00,34.0,31.6,30.00,West,261,0.0,0.0,91,0.00,,,0.00,VWS V14.00,2013-10-27 05:49:00,
2013-10-27 01:50:00,34.0,31.6,30.00,West,261,0.0,0.0,91,0.00,,,0.00,VWS V14.00,2013-10-27 05:50:00,
2013-10-27 01:51:00,33.9,31.6,30.00,West,261,0.0,0.0,91,0.00,,,0.00,VWS V14.00,2013-10-27 05:51:00,
2013-10-27 01:52:00,34.4,32.0,29.99,West,261,0.0,0.0,91,0.00,,,0.00,VWS V14.00,2013-10-27 05:52:00,
2013-10-27 01:53:00,33.8,31.5,30.00,West,261,0.0,0.0,91,0.00,,,0.00,VWS V14.00,2013-10-27 05:53:00,
2013-10-27 01:54:00,33.8,31.5,29.99,West,261,0.0,0.0,91,0.00,,,0.00,VWS V14.00,2013-10-27 05:54:00,
2013-10-27 01:55:00,33.8,31.5,29.99,West,261,0.0,0.0,91,0.00,,,0.00,VWS V14.00,2013-10-27 05:55:00,
2013-10-27 01:56:00,33.7,31.4,29.99,West,261,0.0,0.0,91,0.00,,,0.00,VWS V14.00,2013-10-27 05:56:00,
2013-10-27 01:57:00,34.2,31.9,30.00,West,261,0.0,0.0,91,0.00,,,0.00,VWS V14.00,2013-10-27 05:57:00,
2013-10-27 01:58:00,33.7,31.4,29.99,West,261,0.0,0.0,91,0.00,,,0.00,VWS V14.00,2013-10-27 05:58:00,
2013-10-27 01:59:00,33.6,31.3,29.99,West,261,0.0,0.0,91,0.00,,,0.00,VWS V14.00,2013-10-27 05:59:00,
2013-10-27 02:00:00,33.6,31.3,29.99,West,261,0.0,0.0,91,0.00,,,0.00,VWS V14.00,2013-10-27 06:00:00,
2013-10-27 02:01:00,33.6,31.3,29.99,West,261,0.0,0.0,91,0.00,,,0.00,VWS V14.00,2013-10-27 06:01:00,
2013-10-27 02:02:00,33.9,31.6,30.00,West,261,0.0,0.0,91,0.00,,,0.00,VWS V14.00,2013-10-27 06:02:00,
2013-10-27 02:03:00,33.5,31.2,30.00,West,261,0.0,0.0,91,0.00,,,0.00,VWS V14.00,2013-10-27 06:03:00,
2013-10-27 02:04:00,33.5,31.2,30.00,West,261,0.0,0.0,91,0.00,,,0.00,VWS V14.00,2013-10-27 06:04:00,
2013-10-27 02:05:00,33.4,31.1,30.00,West,261,0.0,0.0,91,0.00,,,0.00,VWS V14.00,2013-10-27 06:05:00,
2013-10-27 02:06:00,33.4,31.1,30.00,West,261,0.0,0.0,91,0.00,,,0.00,VWS V14.00,2013-10-27 06:06:00,
2013-10-27 02:07:00,33.7,31.4,29.99,West,261,0.0,0.0,91,0.00,,,0.00,VWS V14.00,2013-10-27 06:07:00,
2013-10-27 02:08:00,33.3,31.2,30.00,West,261,0.0,0.0,92,0.00,,,0.00,VWS V14.00,2013-10-27 06:08:00,
2013-10-27 02:09:00,33.3,31.2,30.00,West,261,0.0,0.0,92,0.00,,,0.00,VWS V14.00,2013-10-27 06:09:00,
2013-10-27 02:10:00,33.3,31.2,30.00,West,261,0.0,0.0,92,0.00,,,0.00,VWS V14.00,2013-10-27 06:10:00,
2013-10-27 02:11:00,33.3,31.2,30.00,West,261,0.0,0.0,92,0.00,,,0.00,VWS V14.00,2013-10-27 06:11:00,
2013-10-27 02:12:00,33.5,31.2,29.99,West,261,0.0,0.0,91,0.00,,,0.00,VWS V14.00,2013-10-27 06:12:00,
2013-10-27 02:13:00,33.2,31.1,30.00,West,261,0.0,0.0,92,0.00,,,0.00,VWS V14.00,2013-10-27 06:13:00,
2013-10-27 02:14:00,33.2,31.1,30.00,West,261,0.0,0.0,92,0.00,,,0.00,VWS V14.00,2013-10-27 06:14:00,
2013-10-27 02:15:00,33.2,31.1,30.00,West,261,0.0,0.0,92,0.00,,,0.00,VWS V14.00,2013-10-27 06:15:00,
2013-10-27 02:16:00,33.1,31.0,30.00,West,261,0.0,0.0,92,0.00,,,0.00,VWS V14.00,2013-10-27 06:16:00,
2013-10-27 02:17:00,33.4,31.3,30.00,West,261,0.0,0.0,92,0.00,,,0.00,VWS V14.00,2013-10-27 06:17:00,
2013-10-27 02:18:00,33.1,31.0,30.00,West,261,0.0,0.0,92,0.00,,,0.00,VWS V14.00,2013-10-27 06:18:00,
2013-10-27 02:19:00,33.0,30.9,30.00,West,261,0.0,0.0,92,0.00,,,0.00,VWS V14.00,2013-10-27 06:19:00,
2013-10-27 02:20:00,33.0,30.9,30.00,West,261,0.0,0.0,92,0.00,,,0.00,VWS V14.00,2013-10-27 06:20:00,
2013-10-27 02:21:00,32.9,30.8,30.00,West,261,0.0,0.0,92,0.00,,,0.00,VWS V14.00,2013-10-27 06:21:00,
2013-10-27 02:22:00,33.3,31.2,30.00,West,261,0.0,0.0,92,0.00,,,0.00,VWS V14.00,2013-10-27 06:22:00,
2013-10-27 02:23:00,32.9,30.8,30.00,West,261,0.0,0.0,92,0.00,,,0.00,VWS V14.00,2013-10-27 06:23:00,
2013-10-27 02:24:00,32.8,30.7,30.00,West,261,0.0,0.0,92,0.00,,,0.00,VWS V14.00,2013-10-27 06:24:00,
2013-10-27 02:25:00,32.8,30.7,30.00,West,261,0.0,0.0,92,0.00,,,0.00,VWS V14.00,2013-10-27 06:25:00,
2013-10-27 02:26:00,32.8,30.7,30.00,West,261,0.0,0.0,92,0.00,,,0.00,VWS V14.00,2013-10-27 06:26:00,
2013-10-27 02:27:00,33.1,31.0,30.00,West,261,0.0,0.0,92,0.00,,,0.00,VWS V14.00,2013-10-27 06:27:00,
2013-10-27 02:28:00,32.7,30.6,30.00,West,261,0.0,0.0,92,0.00,,,0.00,VWS V14.00,2013-10-27 06:28:00,
2013-10-27 02:29:00,32.6,30.5,30.00,West,261,0.0,0.0,92,0.00,,,0.00,VWS V14.00,2013-10-27 06:29:00,
2013-10-27 02:30:00,32.6,30.5,30.00,West,261,0.0,0.0,92,0.00,,,0.00,VWS V14.00,2013-10-27 06:30:00,
2013-10-27 02:31:00,32.5,30.4,30.00,West,261,0.0,0.0,92,0.00,,,0.00,VWS V14.00,2013-10-27 06:31:00,
2013-10-27 02:32:00,32.9,30.8,30.00,West,261,0.0,0.0,92,0.00,,,0.00,VWS V14.00,2013-10-27 06:32:00,
2013-10-27 02:33:00,32.5,30.7,30.00,West,261,0.0,0.0,93,0.00,,,0.00,VWS V14.00,2013-10-27 06:33:00,
2013-10-27 02:34:00,32.5,30.7,30.00,West,261,0.0,0.0,93,0.00,,,0.00,VWS V14.00,2013-10-27 06:34:00,
2013-10-27 02:35:00,32.4,30.3,30.00,West,261,0.0,0.0,92,0.00,,,0.00,VWS V14.00,2013-10-27 06:35:00,
2013-10-27 02:36:00,32.4,30.3,30.00,West,261,0.0,0.0,92,0.00,,,0.00,VWS V14.00,2013-10-27 06:36:00,
2013-10-27 02:37:00,32.7,30.6,30.00,West,261,0.0,0.0,92,0.00,,,0.00,VWS V14.00,2013-10-27 06:37:00,
2013-10-27 02:38:00,32.4,30.6,30.00,West,261,0.0,0.0,93,0.00,,,0.00,VWS V14.00,2013-10-27 06:38:00,
2013-10-27 02:39:00,32.3,30.5,30.00,West,261,0.0,0.0,93,0.00,,,0.00,VWS V14.00,2013-10-27 06:39:00,
2013-10-27 02:40:00,32.3,30.5,30.00,West,261,0.0,0.0,93,0.00,,,0.00,VWS V14.00,2013-10-27 06:40:00,
2013-10-27 02:41:00,32.3,30.5,30.00,West,261,0.0,0.0,93,0.00,,,0.00,VWS V14.00,2013-10-27 06:41:00,
2013-10-27 02:42:00,32.5,30.7,30.00,West,261,0.0,0.0,93,0.00,,,0.00,VWS V14.00,2013-10-27 06:42:00,
2013-10-27 02:43:00,32.3,30.5,30.00,West,261,0.0,0.0,93,0.00,,,0.00,VWS V14.00,2013-10-27 06:43:00,
2013-10-27 02:44:00,32.2,30.4,30.00,West,261,0.0,0.0,93,0.00,,,0.00,VWS V14.00,2013-10-27 06:44:00,
2013-10-27 02:45:00,32.2,30.4,30.00,West,261,0.0,0.0,93,0.00,,,0.00,VWS V14.00,2013-10-27 06:45:00,
2013-10-27 02:46:00,32.2,30.4,30.00,West,261,0.0,0.0,93,0.00,,,0.00,VWS V14.00,2013-10-27 06:46:00,
2013-10-27 02:47:00,32.4,30.3,30.00,West,261,0.0,0.0,92,0.00,,,0.00,VWS V14.00,2013-10-27 06:47:00,
2013-10-27 02:48:00,32.1,30.3,30.00,West,261,0.0,0.0,93,0.00,,,0.00,VWS V14.00,2013-10-27 06:48:00,
2013-10-27 02:49:00,32.1,30.3,30.00,West,261,0.0,0.0,93,0.00,,,0.00,VWS V14.00,2013-10-27 06:49:00,
2013-10-27 02:50:00,32.1,30.3,30.00,West,261,0.0,0.0,93,0.00,,,0.00,VWS V14.00,2013-10-27 06:50:00,
2013-10-27 02:51:00,32.1,30.3,30.00,West,261,0.0,0.0,93,0.00,,,0.00,VWS V14.00,2013-10-27 06:51:00,
2013-10-27 02:52:00,32.3,30.5,30.00,West,261,0.0,0.0,93,0.00,,,0.00,VWS V14.00,2013-10-27 06:52:00,
2013-10-27 02:53:00,32.1,30.3,30.00,West,261,0.0,0.0,93,0.00,,,0.00,VWS V14.00,2013-10-27 06:53:00,
2013-10-27 02:54:00,32.1,30.3,30.00,West,261,0.0,0.0,93,0.00,,,0.00,VWS V14.00,2013-10-27 06:54:00,
2013-10-27 02:55:00,32.0,30.2,30.00,West,261,0.0,0.0,93,0.00,,,0.00,VWS V14.00,2013-10-27 06:55:00,
2013-10-27 02:56:00,32.0,30.2,30.00,West,261,0.0,0.0,93,0.00,,,0.00,VWS V14.00,2013-10-27 06:56:00,
2013-10-27 02:57:00,32.2,30.4,30.00,West,261,0.0,0.0,93,0.00,,,0.00,VWS V14.00,2013-10-27 06:57:00,
2013-10-27 02:58:00,32.0,30.2,30.00,West,261,0.0,0.0,93,0.00,,,0.00,VWS V14.00,2013-10-27 06:58:00,
2013-10-27 02:59:00,32.0,30.2,30.00,West,261,0.0,0.0,93,0.00,,,0.00,VWS V14.00,2013-10-27 06:59:00,
2013-10-27 03:00:00,32.0,30.2,30.00,West,261,0.0,0.0,93,0.00,,,0.00,VWS V14.00,2013-10-27 07:00:00,
2013-10-27 03:01:00,31.9,30.1,30.00,West,261,0.0,0.0,93,0.00,,,0.00,VWS V14.00,2013-10-27 07:01:00,
2013-10-27 03:02:00,32.1,30.3,30.00,West,261,0.0,0.0,93,0.00,,,0.00,VWS V14.00,2013-10-27 07:02:00,
2013-10-27 03:03:00,31.9,30.4,30.00,West,261,0.0,0.0,94,0.00,,,0.00,VWS V14.00,2013-10-27 07:03:00,
2013-10-27 03:04:00,31.9,30.4,30.00,West,261,0.0,0.0,94,0.00,,,0.00,VWS V14.00,2013-10-27 07:04:00,
2013-10-27 03:05:00,31.8,30.3,30.00,West,261,0.0,0.0,94,0.00,,,0.00,VWS V14.00,2013-10-27 07:05:00,
2013-10-27 03:06:00,31.8,30.3,30.00,West,261,0.0,0.0,94,0.00,,,0.00,VWS V14.00,2013-10-27 07:06:00,
2013-10-27 03:07:00,32.0,30.2,30.00,West,261,0.0,0.0,93,0.00,,,0.00,VWS V14.00,2013-10-27 07:07:00,
2013-10-27 03:08:00,31.7,29.9,30.00,West,261,0.0,0.0,93,0.00,,,0.00,VWS V14.00,2013-10-27 07:08:00,
2013-10-27 03:09:00,31.7,29.9,30.00,West,261,0.0,0.0,93,0.00,,,0.00,VWS V14.00,2013-10-27 07:09:00,
2013-10-27 03:10:00,31.7,29.9,30.00,West,261,0.0,0.0,93,0.00,,,0.00,VWS V14.00,2013-10-27 07:10:00,
2013-10-27 03:11:00,31.7,29.9,30.00,West,261,0.0,0.0,93,0.00,,,0.00,VWS V14.00,2013-10-27 07:11:00,
2013-10-27 03:12:00,31.9,30.1,30.00,West,261,0.0,0.0,93,0.00,,,0.00,VWS V14.00,2013-10-27 07:12:00,
2013-10-27 03:13:00,31.6,30.1,30.00,West,261,0.0,0.0,94,0.00,,,0.00,VWS V14.00,2013-10-27 07:13:00,
2013-10-27 03:14:00,31.6,30.1,30.00,West,261,0.0,0.0,94,0.00,,,0.00,VWS V14.00,2013-10-27 07:14:00,
2013-10-27 03:15:00,31.5,30.0,30.00,West,261,0.0,0.0,94,0.00,,,0.00,VWS V14.00,2013-10-27 07:15:00,
2013-10-27 03:16:00,31.5,30.0,30.00,West,261,0.0,0.0,94,0.00,,,0.00,VWS V14.00,2013-10-27 07:16:00,
2013-10-27 03:17:00,31.8,30.0,30.00,West,261,0.0,0.0,93,0.00,,,0.00,VWS V14.00,2013-10-27 07:17:00,
2013-10-27 03:18:00,31.5,30.0,30.00,West,261,0.0,0.0,94,0.00,,,0.00,VWS V14.00,2013-10-27 07:18:00,
2013-10-27 03:19:00,31.5,30.0,30.00,West,261,0.0,0.0,94,0.00,,,0.00,VWS V14.00,2013-10-27 07:19:00,
2013-10-27 03:20:00,31.4,29.9,30.00,West,261,0.0,0.0,94,0.00,,,0.00,VWS V14.00,2013-10-27 07:20:00,
2013-10-27 03:21:00,31.4,29.9,30.01,West,261,0.0,0.0,94,0.00,,,0.00,VWS V14.00,2013-10-27 07:21:00,
2013-10-27 03:22:00,31.6,29.8,30.00,West,261,0.0,0.0,93,0.00,,,0.00,VWS V14.00,2013-10-27 07:22:00,
2013-10-27 03:23:00,31.4,29.9,30.00,West,261,0.0,0.0,94,0.00,,,0.00,VWS V14.00,2013-10-27 07:23:00,
2013-10-27 03:24:00,31.4,29.9,30.00,West,261,0.0,0.0,94,0.00,,,0.00,VWS V14.00,2013-10-27 07:24:00,
2013-10-27 03:25:00,31.4,29.9,30.00,West,261,0.0,0.0,94,0.00,,,0.00,VWS V14.00,2013-10-27 07:25:00,
2013-10-27 03:26:00,31.4,29.9,30.00,West,261,0.0,0.0,94,0.00,,,0.00,VWS V14.00,2013-10-27 07:26:00,
2013-10-27 03:27:00,31.5,30.0,30.00,West,261,0.0,0.0,94,0.00,,,0.00,VWS V14.00,2013-10-27 07:27:00,
2013-10-27 03:28:00,31.4,29.9,30.00,West,261,0.0,0.0,94,0.00,,,0.00,VWS V14.00,2013-10-27 07:28:00,
2013-10-27 03:29:00,31.3,29.8,30.00,West,261,0.0,0.0,94,0.00,,,0.00,VWS V14.00,2013-10-27 07:29:00,
2013-10-27 03:30:00,31.3,29.8,30.00,West,261,0.0,0.0,94,0.00,,,0.00,VWS V14.00,2013-10-27 07:30:00,
2013-10-27 03:31:00,31.3,29.8,30.00,West,261,0.0,0.0,94,0.00,,,0.00,VWS V14.00,2013-10-27 07:31:00,
2013-10-27 03:32:00,31.4,29.9,30.01,West,261,0.0,0.0,94,0.00,,,0.00,VWS V14.00,2013-10-27 07:32:00,
2013-10-27 03:33:00,31.3,29.8,30.00,West,261,0.0,0.0,94,0.00,,,0.00,VWS V14.00,2013-10-27 07:33:00,
2013-10-27 03:34:00,31.2,29.7,30.00,West,261,0.0,0.0,94,0.00,,,0.00,VWS V14.00,2013-10-27 07:34:00,
2013-10-27 03:35:00,31.2,29.7,30.00,West,261,0.0,0.0,94,0.00,,,0.00,VWS V14.00,2013-10-27 07:35:00,
2013-10-27 03:36:00,31.2,29.7,30.00,West,261,0.0,0.0,94,0.00,,,0.00,VWS V14.00,2013-10-27 07:36:00,
2013-10-27 03:37:00,31.4,29.9,30.00,West,261,0.0,0.0,94,0.00,,,0.00,VWS V14.00,2013-10-27 07:37:00,
2013-10-27 03:38:00,31.2,29.7,30.00,West,261,0.0,0.0,94,0.00,,,0.00,VWS V14.00,2013-10-27 07:38:00,
2013-10-27 03:39:00,31.2,29.7,30.00,West,261,0.0,0.0,94,0.00,,,0.00,VWS V14.00,2013-10-27 07:39:00,
2013-10-27 03:40:00,31.3,29.8,30.00,West,261,0.0,0.0,94,0.00,,,0.00,VWS V14.00,2013-10-27 07:40:00,
2013-10-27 03:41:00,31.4,30.1,30.00,West,261,0.0,0.0,95,0.00,,,0.00,VWS V14.00,2013-10-27 07:41:00,
2013-10-27 03:42:00,31.3,29.8,30.00,West,261,0.0,0.0,94,0.00,,,0.00,VWS V14.00,2013-10-27 07:42:00,
2013-10-27 03:43:00,31.5,30.2,29.99,West,261,0.0,0.0,95,0.00,,,0.00,VWS V14.00,2013-10-27 07:43:00,
2013-10-27 03:44:00,31.5,30.2,29.99,West,261,0.0,0.0,95,0.00,,,0.00,VWS V14.00,2013-10-27 07:44:00,
2013-10-27 03:45:00,31.6,30.3,29.99,West,261,0.0,0.0,95,0.00,,,0.00,VWS V14.00,2013-10-27 07:45:00,
2013-10-27 03:46:00,31.6,30.3,29.99,West,261,0.0,0.0,95,0.00,,,0.00,VWS V14.00,2013-10-27 07:46:00,
2013-10-27 03:47:00,31.2,29.7,30.00,West,261,0.0,0.0,94,0.00,,,0.00,VWS V14.00,2013-10-27 07:47:00,
2013-10-27 03:48:00,31.7,30.4,30.00,West,261,0.0,0.0,95,0.00,,,0.00,VWS V14.00,2013-10-27 07:48:00,
2013-10-27 03:49:00,31.7,30.4,30.00,West,261,0.0,0.0,95,0.00,,,0.00,VWS V14.00,2013-10-27 07:49:00,
2013-10-27 03:50:00,31.7,30.4,30.00,West,261,0.0,0.0,95,0.00,,,0.00,VWS V14.00,2013-10-27 07:50:00,
2013-10-27 03:51:00,31.7,30.4,29.99,West,261,0.0,0.0,95,0.00,,,0.00,VWS V14.00,2013-10-27 07:51:00,
2013-10-27 03:52:00,31.4,30.1,30.00,West,261,0.0,0.0,95,0.00,,,0.00,VWS V14.00,2013-10-27 07:52:00,
2013-10-27 03:53:00,31.7,30.2,29.99,West,261,0.0,0.0,94,0.00,,,0.00,VWS V14.00,2013-10-27 07:53:00,
2013-10-27 03:54:00,31.7,30.2,29.99,West,261,0.0,0.0,94,0.00,,,0.00,VWS V14.00,2013-10-27 07:54:00,
2013-10-27 03:55:00,31.6,30.1,29.99,West,261,0.0,0.0,94,0.00,,,0.00,VWS V14.00,2013-10-27 07:55:00,
2013-10-27 03:56:00,31.6,30.1,30.00,West,261,0.0,0.0,94,0.00,,,0.00,VWS V14.00,2013-10-27 07:56:00,
2013-10-27 03:57:00,31.7,30.4,29.99,West,261,0.0,0.0,95,0.00,,,0.00,VWS V14.00,2013-10-27 07:57:00,
2013-10-27 03:58:00,31.5,30.0,29.99,West,261,0.0,0.0,94,0.00,,,0.00,VWS V14.00,2013-10-27 07:58:00,
2013-10-27 03:59:00,31.5,30.0,29.99,West,261,0.0,0.0,94,0.00,,,0.00,VWS V14.00,2013-10-27 07:59:00,
2013-10-27 04:00:00,31.5,30.0,29.99,West,261,0.0,0.0,94,0.00,,,0.00,VWS V14.00,2013-10-27 08:00:00,
2013-10-27 04:01:00,31.4,30.1,29.99,West,261,0.0,0.0,95,0.00,,,0.00,VWS V14.00,2013-10-27 08:01:00,
2013-10-27 04:02:00,31.7,30.2,29.99,West,261,0.0,0.0,94,0.00,,,0.00,VWS V14.00,2013-10-27 08:02:00,
2013-10-27 04:03:00,31.5,30.2,29.99,West,261,1.0,1.0,95,0.00,,,0.00,VWS V14.00,2013-10-27 08:03:00,
2013-10-27 04:04:00,31.6,30.3,29.99,West,261,0.0,1.0,95,0.00,,,0.00,VWS V14.00,2013-10-27 08:04:00,
2013-10-27 04:05:00,31.7,30.4,29.99,West,261,0.0,2.0,95,0.00,,,0.00,VWS V14.00,2013-10-27 08:05:00,
2013-10-27 04:06:00,31.8,30.5,29.99,West,261,3.0,3.0,95,0.00,,,0.00,VWS V14.00,2013-10-27 08:06:00,
2013-10-27 04:07:00,31.9,30.6,29.99,West,261,0.0,3.0,95,0.00,,,0.00,VWS V14.00,2013-10-27 08:07:00,
2013-10-27 04:08:00,31.5,30.0,29.99,West,261,0.0,0.0,94,0.00,,,0.00,VWS V14.00,2013-10-27 08:08:00,
2013-10-27 04:09:00,32.1,30.8,29.99,West,261,2.0,3.0,95,0.00,,,0.00,VWS V14.00,2013-10-27 08:09:00,
2013-10-27 04:10:00,32.2,30.9,29.99,West,261,0.0,3.0,95,0.00,,,0.00,VWS V14.00,2013-10-27 08:10:00,
2013-10-27 04:11:00,32.3,31.0,30.00,West,261,0.0,3.0,95,0.00,,,0.00,VWS V14.00,2013-10-27 08:11:00,
2013-10-27 04:12:00,32.4,31.4,30.00,West,261,0.0,3.0,96,0.00,,,0.00,VWS V14.00,2013-10-27 08:12:00,
2013-10-27 04:13:00,31.5,30.2,30.00,West,261,0.0,0.0,95,0.00,,,0.00,VWS V14.00,2013-10-27 08:13:00,
2013-10-27 04:14:00,32.6,31.6,30.00,West,261,0.0,3.0,96,0.00,,,0.00,VWS V14.00,2013-10-27 08:14:00,
2013-10-27 04:15:00,32.7,31.7,30.00,West,261,0.0,3.0,96,0.00,,,0.00,VWS V14.00,2013-10-27 08:15:00,
2013-10-27 04:16:00,32.8,31.5,30.00,West,261,0.0,3.0,95,0.00,,,0.00,VWS V14.00,2013-10-27 08:16:00,
2013-10-27 04:17:00,32.9,31.6,30.00,West,261,0.0,3.0,95,0.00,,,0.00,VWS V14.00,2013-10-27 08:17:00,
2013-10-27 04:18:00,32.0,30.7,29.99,West,261,0.0,3.0,95,0.00,,,0.00,VWS V14.00,2013-10-27 08:18:00,
2013-10-27 04:19:00,33.1,32.1,30.00,West,261,0.0,3.0,96,0.00,,,0.00,VWS V14.00,2013-10-27 08:19:00,
2013-10-27 04:20:00,33.2,32.2,30.00,West,261,0.0,3.0,96,0.00,,,0.00,VWS V14.00,2013-10-27 08:20:00,
2013-10-27 04:21:00,33.2,32.2,30.00,West,261,0.0,3.0,96,0.00,,,0.00,VWS V14.00,2013-10-27 08:21:00,
2013-10-27 04:22:00,33.3,32.0,30.00,West,261,1.0,3.0,95,0.00,,,0.00,VWS V14.00,2013-10-27 08:22:00,
2013-10-27 04:23:00,32.5,31.5,30.00,West,261,2.0,3.0,96,0.00,,,0.00,VWS V14.00,2013-10-27 08:23:00,
2013-10-27 04:24:00,33.4,32.1,30.00,West,261,0.0,3.0,95,0.00,,,0.00,VWS V14.00,2013-10-27 08:24:00,
2013-10-27 04:25:00,33.4,32.1,30.00,West,261,0.0,3.0,95,0.00,,,0.00,VWS V14.00,2013-10-27 08:25:00,
2013-10-27 04:26:00,33.4,32.1,30.00,West,261,1.0,3.0,95,0.00,,,0.00,VWS V14.00,2013-10-27 08:26:00,
2013-10-27 04:27:00,33.5,32.2,30.00,West,261,0.0,3.0,95,0.00,,,0.00,VWS V14.00,2013-10-27 08:27:00,
2013-10-27 04:28:00,33.0,31.7,30.00,West,261,0.0,3.0,95,0.00,,,0.00,VWS V14.00,2013-10-27 08:28:00,
2013-10-27 04:29:00,33.5,32.2,30.00,West,261,0.0,3.0,95,0.00,,,0.00,VWS V14.00,2013-10-27 08:29:00,
2013-10-27 04:30:00,33.5,32.2,30.00,West,261,0.0,3.0,95,0.00,,,0.00,VWS V14.00,2013-10-27 08:30:00,
2013-10-27 04:31:00,33.5,32.2,30.00,West,261,0.0,0.0,95,0.00,,,0.00,VWS V14.00,2013-10-27 08:31:00,
2013-10-27 04:32:00,33.5,32.2,30.00,West,261,0.0,0.0,95,0.00,,,0.00,VWS V14.00,2013-10-27 08:32:00,
2013-10-27 04:33:00,33.3,32.0,30.00,West,261,0.0,3.0,95,0.00,,,0.00,VWS V14.00,2013-10-27 08:33:00,
2013-10-27 04:34:00,33.4,32.1,30.00,West,261,0.0,1.0,95,0.00,,,0.00,VWS V14.00,2013-10-27 08:34:00,
2013-10-27 04:35:00,33.4,32.1,30.00,West,261,0.0,1.0,95,0.00,,,0.00,VWS V14.00,2013-10-27 08:35:00,
2013-10-27 04:36:00,33.4,32.1,30.00,West,261,0.0,1.0,95,0.00,,,0.00,VWS V14.00,2013-10-27 08:36:00,
2013-10-27 04:37:00,33.4,32.1,30.00,West,261,0.0,1.0,95,0.00,,,0.00,VWS V14.00,2013-10-27 08:37:00,
2013-10-27 04:38:00,33.5,32.2,30.00,West,261,0.0,3.0,95,0.00,,,0.00,VWS V14.00,2013-10-27 08:38:00,
2013-10-27 04:39:00,33.4,32.1,30.00,West,261,0.0,1.0,95,0.00,,,0.00,VWS V14.00,2013-10-27 08:39:00,
2013-10-27 04:40:00,33.5,32.2,30.00,West,261,0.0,1.0,95,0.00,,,0.00,VWS V14.00,2013-10-27 08:40:00,
2013-10-27 04:41:00,33.5,32.2,30.00,West,261,0.0,2.0,95,0.00,,,0.00,VWS V14.00,2013-10-27 08:41:00,
2013-10-27 04:42:00,33.5,32.0,30.00,West,261,0.0,2.0,94,0.00,,,0.00,VWS V14.00,2013-10-27 08:42:00,
2013-10-27 04:43:00,33.4,32.1,30.00,West,261,0.0,1.0,95,0.00,,,0.00,VWS V14.00,2013-10-27 08:43:00,
2013-10-27 04:44:00,33.6,32.1,30.00,West,261,0.0,2.0,94,0.00,,,0.00,VWS V14.00,2013-10-27 08:44:00,
2013-10-27 04:45:00,33.6,32.1,30.00,West,261,0.0,2.0,94,0.00,,,0.00,VWS V14.00,2013-10-27 08:45:00,
2013-10-27 04:46:00,33.6,32.3,30.00,West,261,0.0,2.0,95,0.00,,,0.00,VWS V14.00,2013-10-27 08:46:00,
2013-10-27 04:47:00,33.6,32.3,30.00,West,261,0.0,2.0,95,0.00,,,0.00,VWS V14.00,2013-10-27 08:47:00,
2013-10-27 04:48:00,33.4,32.1,30.00,West,261,0.0,1.0,95,0.00,,,0.00,VWS V14.00,2013-10-27 08:48:00,
2013-10-27 04:49:00,33.7,32.4,30.00,West,261,0.0,2.0,95,0.00,,,0.00,VWS V14.00,2013-10-27 08:49:00,
2013-10-27 04:50:00,33.8,32.5,30.00,West,261,0.0,2.0,95,0.00,,,0.00,VWS V14.00,2013-10-27 08:50:00,
2013-10-27 04:51:00,33.8,32.3,30.00,West,261,1.0,2.0,94,0.00,,,0.00,VWS V14.00,2013-10-27 08:51:00,
2013-10-27 04:52:00,33.9,32.4,30.00,West,261,0.0,2.0,94,0.00,,,0.00,VWS V14.00,2013-10-27 08:52:00,
2013-10-27 04:53:00,33.5,32.0,30.00,West,261,0.0,2.0,94,0.00,,,0.00,VWS V14.00,2013-10-27 08:53:00,
2013-10-27 04:54:00,33.9,32.4,30.00,West,261,0.0,2.0,94,0.00,,,0.00,VWS V14.00,2013-10-27 08:54:00,
2013-10-27 04:55:00,33.9,32.4,30.00,West,261,0.0,2.0,94,0.00,,,0.00,VWS V14.00,2013-10-27 08:55:00,
2013-10-27 04:56:00,33.9,32.4,30.00,West,261,0.0,2.0,94,0.00,,,0.00,VWS V14.00,2013-10-27 08:56:00,
2013-10-27 04:57:00,33.9,32.4,30.00,West,261,1.0,2.0,94,0.00,,,0.00,VWS V14.00,2013-10-27 08:57:00,
2013-10-27 04:58:00,33.7,32.4,30.00,West,261,0.0,2.0,95,0.00,,,0.00,VWS V14.00,2013-10-27 08:58:00,
2013-10-27 04:59:00,34.0,32.5,30.00,West,261,0.0,2.0,94,0.00,,,0.00,VWS V14.00,2013-10-27 08:59:00,
2013-10-27 05:00:00,34.0,32.5,30.00,West,261,0.0,2.0,94,0.00,,,0.00,VWS V14.00,2013-10-27 09:00:00,
2013-10-27 05:01:00,34.0,32.5,30.00,West,261,0.0,0.0,94,0.00,,,0.00,VWS V14.00,2013-10-27 09:01:00,
2013-10-27 05:02:00,33.9,32.4,30.00,West,261,0.0,0.0,94,0.00,,,0.00,VWS V14.00,2013-10-27 09:02:00,
2013-10-27 05:03:00,33.9,32.4,30.00,West,261,0.0,2.0,94,0.00,,,0.00,VWS V14.00,2013-10-27 09:03:00,
2013-10-27 05:04:00,33.9,32.4,30.00,West,261,0.0,0.0,94,0.00,,,0.00,VWS V14.00,2013-10-27 09:04:00,
2013-10-27 05:05:00,33.9,32.4,30.00,West,261,0.0,0.0,94,0.00,,,0.00,VWS V14.00,2013-10-27 09:05:00,
2013-10-27 05:06:00,33.8,32.3,30.01,West,261,0.0,0.0,94,0.00,,,0.00,VWS V14.00,2013-10-27 09:06:00,
2013-10-27 05:07:00,33.8,32.3,30.00,West,261,0.0,0.0,94,0.00,,,0.00,VWS V14.00,2013-10-27 09:07:00,
2013-10-27 05:08:00,34.0,32.5,30.00,West,261,0.0,2.0,94,0.00,,,0.00,VWS V14.00,2013-10-27 09:08:00,
2013-10-27 05:09:00,33.7,31.9,30.00,West,261,0.0,0.0,93,0.00,,,0.00,VWS V14.00,2013-10-27 09:09:00,
2013-10-27 05:10:00,33.7,31.9,30.00,West,261,0.0,0.0,93,0.00,,,0.00,VWS V14.00,2013-10-27 09:10:00,
2013-10-27 05:11:00,33.6,31.8,30.00,West,261,0.0,0.0,93,0.00,,,0.00,VWS V14.00,2013-10-27 09:11:00,
2013-10-27 05:12:00,33.6,31.8,30.01,West,261,0.0,0.0,93,0.00,,,0.00,VWS V14.00,2013-10-27 09:12:00,
2013-10-27 05:13:00,33.9,32.4,30.00,West,261,0.0,0.0,94,0.00,,,0.00,VWS V14.00,2013-10-27 09:13:00,
2013-10-27 05:14:00,33.5,31.7,30.01,West,261,0.0,0.0,93,0.00,,,0.00,VWS V14.00,2013-10-27 09:14:00,
2013-10-27 05:15:00,33.4,31.6,30.01,West,261,0.0,0.0,93,0.00,,,0.00,VWS V14.00,2013-10-27 09:15:00,
2013-10-27 05:16:00,33.4,31.6,30.01,West,261,0.0,0.0,93,0.00,,,0.00,VWS V14.00,2013-10-27 09:16:00,
2013-10-27 05:17:00,33.3,31.5,30.01,West,261,0.0,0.0,93,0.00,,,0.00,VWS V14.00,2013-10-27 09:17:00,
2013-10-27 05:18:00,33.8,32.0,30.00,West,261,0.0,0.0,93,0.00,,,0.00,VWS V14.00,2013-10-27 09:18:00,
2013-10-27 05:19:00,33.3,31.5,30.01,West,261,0.0,0.0,93,0.00,,,0.00,VWS V14.00,2013-10-27 09:19:00,
2013-10-27 05:20:00,33.2,31.4,30.01,West,261,0.0,0.0,93,0.00,,,0.00,VWS V14.00,2013-10-27 09:20:00,
2013-10-27 05:21:00,33.1,31.3,30.01,West,261,0.0,0.0,93,0.00,,,0.00,VWS V14.00,2013-10-27 09:21:00,
2013-10-27 05:22:00,33.1,31.3,30.01,West,261,0.0,0.0,93,0.00,,,0.00,VWS V14.00,2013-10-27 09:22:00,
2013-10-27 05:23:00,33.6,31.8,30.01,West,261,0.0,0.0,93,0.00,,,0.00,VWS V14.00,2013-10-27 09:23:00,
2013-10-27 05:24:00,33.0,31.2,30.01,West,261,0.0,0.0,93,0.00,,,0.00,VWS V14.00,2013-10-27 09:24:00,
2013-10-27 05:25:00,32.9,31.1,30.01,West,261,0.0,0.0,93,0.00,,,0.00,VWS V14.00,2013-10-27 09:25:00,
2013-10-27 05:26:00,32.9,31.1,30.01,West,261,0.0,0.0,93,0.00,,,0.00,VWS V14.00,2013-10-27 09:26:00,
2013-10-27 05:27:00,32.9,31.1,30.01,West,261,0.0,0.0,93,0.00,,,0.00,VWS V14.00,2013-10-27 09:27:00,
2013-10-27 05:28:00,33.3,31.5,30.01,West,261,0.0,0.0,93,0.00,,,0.00,VWS V14.00,2013-10-27 09:28:00,
2013-10-27 05:29:00,32.8,31.0,30.01,West,261,0.0,0.0,93,0.00,,,0.00,VWS V14.00,2013-10-27 09:29:00,
2013-10-27 05:30:00,32.7,30.9,30.01,West,261,0.0,0.0,93,0.00,,,0.00,VWS V14.00,2013-10-27 09:30:00,
2013-10-27 05:31:00,32.7,30.9,30.01,West,261,0.0,0.0,93,0.00,,,0.00,VWS V14.00,2013-10-27 09:31:00,
2013-10-27 05:32:00,32.6,30.8,30.01,West,261,0.0,0.0,93,0.00,,,0.00,VWS V14.00,2013-10-27 09:32:00,
2013-10-27 05:33:00,33.1,31.3,30.01,West,261,0.0,0.0,93,0.00,,,0.00,VWS V14.00,2013-10-27 09:33:00,
2013-10-27 05:34:00,32.6,30.8,30.01,West,261,0.0,0.0,93,0.00,,,0.00,VWS V14.00,2013-10-27 09:34:00,
2013-10-27 05:35:00,32.6,30.8,30.01,West,261,0.0,0.0,93,0.00,,,0.00,VWS V14.00,2013-10-27 09:35:00,
2013-10-27 05:36:00,32.5,30.7,30.01,West,261,0.0,0.0,93,0.00,,,0.00,VWS V14.00,2013-10-27 09:36:00,
2013-10-27 05:37:00,32.5,30.7,30.01,West,261,0.0,0.0,93,0.00,,,0.00,VWS V14.00,2013-10-27 09:37:00,
2013-10-27 05:38:00,32.8,31.0,30.01,West,261,0.0,0.0,93,0.00,,,0.00,VWS V14.00,2013-10-27 09:38:00,
2013-10-27 05:39:00,32.6,30.8,30.01,West,261,0.0,2.0,93,0.00,,,0.00,VWS V14.00,2013-10-27 09:39:00,
2013-10-27 05:40:00,32.6,30.8,30.01,West,261,0.0,2.0,93,0.00,,,0.00,VWS V14.00,2013-10-27 09:40:00,
2013-10-27 05:41:00,32.6,31.1,30.01,West,261,0.0,2.0,94,0.00,,,0.00,VWS V14.00,2013-10-27 09:41:00,
2013-10-27 05:42:00,32.7,31.2,30.01,West,261,0.0,2.0,94,0.00,,,0.00,VWS V14.00,2013-10-27 09:42:00,
2013-10-27 05:43:00,32.6,30.8,30.01,West,261,0.0,0.0,93,0.00,,,0.00,VWS V14.00,2013-10-27 09:43:00,
2013-10-27 05:44:00,32.8,31.3,30.02,West,261,0.0,2.0,94,0.00,,,0.00,VWS V14.00,2013-10-27 09:44:00,
2013-10-27 05:45:00,32.8,31.3,30.02,West,261,0.0,2.0,94,0.00,,,0.00,VWS V14.00,2013-10-27 09:45:00,
2013-10-27 05:46:00,32.9,31.4,30.02,West,261,0.0,2.0,94,0.00,,,0.00,VWS V14.00,2013-10-27 09:46:00,
2013-10-27 05:47:00,32.9,31.4,30.02,West,261,0.0,2.0,94,0.00,,,0.00,VWS V14.00,2013-10-27 09:47:00,
2013-10-27 05:48:00,32.5,30.7,30.01,West,261,1.0,2.0,93,0.00,,,0.00,VWS V14.00,2013-10-27 09:48:00,
2013-10-27 05:49:00,32.9,31.4,30.02,West,261,0.0,2.0,94,0.00,,,0.00,VWS V14.00,2013-10-27 09:49:00,
2013-10-27 05:50:00,33.0,31.5,30.02,West,261,0.0,2.0,94,0.00,,,0.00,VWS V14.00,2013-10-27 09:50:00,
2013-10-27 05:51:00,33.0,31.5,30.02,West,261,0.0,2.0,94,0.00,,,0.00,VWS V14.00,2013-10-27 09:51:00,
2013-10-27 05:52:00,33.0,31.5,30.02,West,261,0.0,2.0,94,0.00,,,0.00,VWS V14.00,2013-10-27 09:52:00,
2013-10-27 05:53:00,32.7,31.2,30.01,West,261,0.0,2.0,94,0.00,,,0.00,VWS V14.00,2013-10-27 09:53:00,
2013-10-27 05:54:00,33.1,31.6,30.02,West,261,0.0,2.0,94,0.00,,,0.00,VWS V14.00,2013-10-27 09:54:00,
2013-10-27 05:55:00,33.2,31.7,30.02,West,261,0.0,2.0,94,0.00,,,0.00,VWS V14.00,2013-10-27 09:55:00,
2013-10-27 05:56:00,33.2,31.7,30.02,West,261,0.0,2.0,94,0.00,,,0.00,VWS V14.00,2013-10-27 09:56:00,
2013-10-27 05:57:00,33.3,31.8,30.02,West,261,0.0,2.0,94,0.00,,,0.00,VWS V14.00,2013-10-27 09:57:00,
2013-10-27 05:58:00,32.9,31.4,30.02,West,261,0.0,2.0,94,0.00,,,0.00,VWS V14.00,2013-10-27 09:58:00,
2013-10-27 05:59:00,33.4,31.9,30.02,West,261,0.0,2.0,94,0.00,,,0.00,VWS V14.00,2013-10-27 09:59:00,
2013-10-27 06:00:00,33.4,31.9,30.02,West,261,0.0,2.0,94,0.00,,,0.00,VWS V14.00,2013-10-27 10:00:00,
2013-10-27 06:01:00,33.5,32.0,30.02,West,261,0.0,0.0,94,0.00,,,0.00,VWS V14.00,2013-10-27 10:01:00,
2013-10-27 06:02:00,33.6,32.1,30.02,West,261,0.0,0.0,94,0.00,,,0.00,VWS V14.00,2013-10-27 10:02:00,
2013-10-27 06:03:00,33.1,31.6,30.02,West,261,0.0,2.0,94,0.00,,,0.00,VWS V14.00,2013-10-27 10:03:00,
2013-10-27 06:04:00,33.7,32.2,30.02,West,261,0.0,1.0,94,0.00,,,0.00,VWS V14.00,2013-10-27 10:04:00,
2013-10-27 06:05:00,33.7,32.2,30.03,West,261,0.0,1.0,94,0.00,,,0.00,VWS V14.00,2013-10-27 10:05:00,
2013-10-27 06:06:00,33.8,32.3,30.03,West,261,0.0,3.0,94,0.00,,,0.00,VWS V14.00,2013-10-27 10:06:00,
2013-10-27 06:07:00,33.9,32.4,30.02,West,261,0.0,3.0,94,0.00,,,0.00,VWS V14.00,2013-10-27 10:07:00,
2013-10-27 06:08:00,33.3,31.8,30.02,West,261,0.0,2.0,94,0.00,,,0.00,VWS V14.00,2013-10-27 10:08:00,
2013-10-27 06:09:00,34.0,32.5,30.02,West,261,0.0,3.0,94,0.00,,,0.00,VWS V14.00,2013-10-27 10:09:00,
2013-10-27 06:10:00,34.1,32.6,30.02,West,261,0.0,3.0,94,0.00,,,0.00,VWS V14.00,2013-10-27 10:10:00,
2013-10-27 06:11:00,34.1,32.6,30.02,West,261,0.0,3.0,94,0.00,,,0.00,VWS V14.00,2013-10-27 10:11:00,
2013-10-27 06:12:00,34.1,32.6,30.02,West,261,0.0,3.0,94,0.00,,,0.00,VWS V14.00,2013-10-27 10:12:00,
2013-10-27 06:13:00,33.7,32.2,30.03,West,261,0.0,1.0,94,0.00,,,0.00,VWS V14.00,2013-10-27 10:13:00,
2013-10-27 06:14:00,34.3,32.8,30.02,West,261,0.0,3.0,94,0.00,,,0.00,VWS V14.00,2013-10-27 10:14:00,
2013-10-27 06:15:00,34.4,32.9,30.02,West,261,0.0,3.0,94,0.00,,,0.00,VWS V14.00,2013-10-27 10:15:00,
2013-10-27 06:16:00,34.4,32.9,30.02,West,261,0.0,3.0,94,0.00,,,0.00,VWS V14.00,2013-10-27 10:16:00,
2013-10-27 06:17:00,34.4,32.9,30.02,West,261,0.0,3.0,94,0.00,,,0.00,VWS V14.00,2013-10-27 10:17:00,
2013-10-27 06:18:00,33.9,32.4,30.02,West,261,0.0,3.0,94,0.00,,,0.00,VWS V14.00,2013-10-27 10:18:00,
2013-10-27 06:19:00,34.4,32.9,30.02,West,261,0.0,3.0,94,0.00,,,0.00,VWS V14.00,2013-10-27 10:19:00,
2013-10-27 06:20:00,34.4,32.9,30.03,West,261,0.0,3.0,94,0.00,,,0.00,VWS V14.00,2013-10-27 10:20:00,
2013-10-27 06:21:00,34.4,32.9,30.03,West,261,0.0,3.0,94,0.00,,,0.00,VWS V14.00,2013-10-27 10:21:00,
2013-10-27 06:22:00,34.5,33.0,30.02,West,261,0.0,3.0,94,0.00,,,0.00,VWS V14.00,2013-10-27 10:22:00,
2013-10-27 06:23:00,34.2,32.7,30.02,West,261,0.0,3.0,94,0.00,,,0.00,VWS V14.00,2013-10-27 10:23:00,
2013-10-27 06:24:00,34.6,33.0,30.02,West,261,0.0,3.0,94,0.00,,,0.00,VWS V14.00,2013-10-27 10:24:00,
2013-10-27 06:25:00,34.6,32.8,30.02,West,261,0.0,3.0,93,0.00,,,0.00,VWS V14.00,2013-10-27 10:25:00,
2013-10-27 06:26:00,34.6,32.8,30.02,West,261,0.0,3.0,93,0.00,,,0.00,VWS V14.00,2013-10-27 10:26:00,
2013-10-27 06:27:00,34.7,32.9,30.02,West,261,0.0,3.0,93,0.00,,,0.00,VWS V14.00,2013-10-27 10:27:00,
2013-10-27 06:28:00,34.4,32.9,30.02,West,261,0.0,3.0,94,0.00,,,0.00,VWS V14.00,2013-10-27 10:28:00,
2013-10-27 06:29:00,34.7,32.9,30.02,West,261,1.0,3.0,93,0.00,,,0.00,VWS V14.00,2013-10-27 10:29:00,
2013-10-27 06:30:00,34.8,33.0,30.02,West,261,1.0,3.0,93,0.00,,,0.00,VWS V14.00,2013-10-27 10:30:00,
2013-10-27 06:31:00,34.8,33.0,30.02,West,261,1.0,2.0,93,0.00,,,0.00,VWS V14.00,2013-10-27 10:31:00,
2013-10-27 06:32:00,34.9,33.1,30.02,West,261,0.0,2.0,93,0.00,,,0.00,VWS V14.00,2013-10-27 10:32:00,
2013-10-27 06:33:00,34.5,33.0,30.02,West,261,0.0,3.0,94,0.00,,,0.00,VWS V14.00,2013-10-27 10:33:00,
2013-10-27 06:34:00,35.0,33.2,30.02,West,261,0.0,2.0,93,0.00,,,0.00,VWS V14.00,2013-10-27 10:34:00,
2013-10-27 06:35:00,35.0,33.2,30.02,West,261,0.0,2.0,93,0.00,,,0.00,VWS V14.00,2013-10-27 10:35:00,
2013-10-27 06:36:00,35.1,33.3,30.02,West,261,0.0,2.0,93,0.00,,,0.00,VWS V14.00,2013-10-27 10:36:00,
2013-10-27 06:37:00,35.1,33.3,30.02,West,261,0.0,2.0,93,0.00,,,0.00,VWS V14.00,2013-10-27 10:37:00,
2013-10-27 06:38:00,34.7,32.9,30.02,West,261,0.0,3.0,93,0.00,,,0.00,VWS V14.00,2013-10-27 10:38:00,
2013-10-27 06:39:00,35.2,33.4,30.02,West,261,0.0,2.0,93,0.00,,,0.00,VWS V14.00,2013-10-27 10:39:00,
2013-10-27 06:40:00,35.2,33.4,30.02,West,261,0.0,2.0,93,0.00,,,0.00,VWS V14.00,2013-10-27 10:40:00,
2013-10-27 06:41:00,35.3,33.5,30.03,West,261,1.0,2.0,93,0.00,,,0.00,VWS V14.00,2013-10-27 10:41:00,
2013-10-27 06:42:00,35.3,33.5,30.02,West,261,0.0,2.0,93,0.00,,,0.00,VWS V14.00,2013-10-27 10:42:00,
2013-10-27 06:43:00,34.9,33.1,30.02,West,261,0.0,2.0,93,0.00,,,0.00,VWS V14.00,2013-10-27 10:43:00,
2013-10-27 06:44:00,35.4,33.6,30.02,West,261,0.0,2.0,93,0.00,,,0.00,VWS V14.00,2013-10-27 10:44:00,
2013-10-27 06:45:00,35.4,33.6,30.03,West,261,0.0,2.0,93,0.00,,,0.00,VWS V14.00,2013-10-27 10:45:00,
2013-10-27 06:46:00,35.4,33.6,30.02,West,261,0.0,2.0,93,0.00,,,0.00,VWS V14.00,2013-10-27 10:46:00,
2013-10-27 06:47:00,35.4,33.6,30.03,West,261,0.0,2.0,93,0.00,,,0.00,VWS V14.00,2013-10-27 10:47:00,
2013-10-27 06:48:00,35.2,33.4,30.02,West,261,0.0,2.0,93,0.00,,,0.00,VWS V14.00,2013-10-27 10:48:00,
2013-10-27 06:49:00,35.5,33.7,30.03,West,261,0.0,2.0,93,0.00,,,0.00,VWS V14.00,2013-10-27 10:49:00,
2013-10-27 06:50:00,35.5,33.4,30.03,West,261,2.0,3.0,92,0.00,,,0.00,VWS V14.00,2013-10-27 10:50:00,
2013-10-27 06:51:00,35.5,33.4,30.02,West,261,0.0,3.0,92,0.00,,,0.00,VWS V14.00,2013-10-27 10:51:00,
2013-10-27 06:52:00,35.6,33.5,30.03,West,261,0.0,3.0,92,0.00,,,0.00,VWS V14.00,2013-10-27 10:52:00,
2013-10-27 06:53:00,35.3,33.5,30.02,West,261,0.0,2.0,93,0.00,,,0.00,VWS V14.00,2013-10-27 10:53:00,
2013-10-27 06:54:00,35.6,33.5,30.02,West,261,0.0,3.0,92,0.00,,,0.00,VWS V14.00,2013-10-27 10:54:00,
2013-10-27 06:55:00,35.6,33.5,30.02,West,261,0.0,3.0,92,0.00,,,0.00,VWS V14.00,2013-10-27 10:55:00,
2013-10-27 06:56:00,35.7,33.6,30.02,West,261,0.0,3.0,92,0.00,,,0.00,VWS V14.00,2013-10-27 10:56:00,
2013-10-27 06:57:00,35.7,33.6,30.02,West,261,0.0,3.0,92,0.00,,,0.00,VWS V14.00,2013-10-27 10:57:00,
2013-10-27 06:58:00,35.5,33.7,30.03,West,261,0.0,2.0,93,0.00,,,0.00,VWS V14.00,2013-10-27 10:58:00,
2013-10-27 06:59:00,35.7,33.6,30.02,West,261,0.0,3.0,92,0.00,,,0.00,VWS V14.00,2013-10-27 10:59:00,
2013-10-27 07:00:00,35.7,33.6,30.02,West,261,0.0,3.0,92,0.00,,,0.00,VWS V14.00,2013-10-27 11:00:00,
2013-10-27 07:01:00,35.7,33.6,30.02,West,261,0.0,0.0,92,0.00,,,0.00,VWS V14.00,2013-10-27 11:01:00,
2013-10-27 07:02:00,35.8,33.7,30.02,West,261,0.0,2.0,92,0.00,,,0.00,VWS V14.00,2013-10-27 11:02:00,
2013-10-27 07:03:00,35.6,33.5,30.03,West,261,0.0,3.0,92,0.00,,,0.00,VWS V14.00,2013-10-27 11:03:00,
2013-10-27 07:04:00,35.8,33.7,30.02,West,261,0.0,2.0,92,0.00,,,0.00,VWS V14.00,2013-10-27 11:04:00,
2013-10-27 07:05:00,35.8,33.7,30.02,West,261,0.0,2.0,92,0.00,,,0.00,VWS V14.00,2013-10-27 11:05:00,
2013-10-27 07:06:00,35.8,33.7,30.02,West,261,0.0,2.0,92,0.00,,,0.00,VWS V14.00,2013-10-27 11:06:00,
2013-10-27 07:07:00,35.8,33.7,30.02,West,261,0.0,2.0,92,0.00,,,0.00,VWS V14.00,2013-10-27 11:07:00,
2013-10-27 07:08:00,35.7,33.6,30.02,West,261,0.0,3.0,92,0.00,,,0.00,VWS V14.00,2013-10-27 11:08:00,
2013-10-27 07:09:00,35.8,33.7,30.02,West,261,0.0,2.0,92,0.00,,,0.00,VWS V14.00,2013-10-27 11:09:00,
2013-10-27 07:10:00,35.8,33.7,30.02,West,261,0.0,2.0,92,0.00,,,0.00,VWS V14.00,2013-10-27 11:10:00,
2013-10-27 07:11:00,35.8,33.7,30.02,West,261,0.0,2.0,92,0.00,,,0.00,VWS V14.00,2013-10-27 11:11:00,
2013-10-27 07:12:00,35.9,33.8,30.03,West,261,0.0,2.0,92,0.00,,,0.00,VWS V14.00,2013-10-27 11:12:00,
2013-10-27 07:13:00,35.8,33.7,30.02,West,261,0.0,2.0,92,0.00,,,0.00,VWS V14.00,2013-10-27 11:13:00,
2013-10-27 07:14:00,35.8,33.7,30.03,West,261,0.0,2.0,92,0.00,,,0.00,VWS V14.00,2013-10-27 11:14:00,
2013-10-27 07:15:00,35.8,33.7,30.03,West,261,0.0,2.0,92,0.00,,,0.00,VWS V14.00,2013-10-27 11:15:00,
2013-10-27 07:16:00,35.8,33.7,30.03,West,261,0.0,2.0,92,0.00,,,0.00,VWS V14.00,2013-10-27 11:16:00,
2013-10-27 07:17:00,35.8,33.4,30.03,West,261,0.0,2.0,91,0.00,,,0.00,VWS V14.00,2013-10-27 11:17:00,
2013-10-27 07:18:00,35.9,33.8,30.02,West,261,0.0,2.0,92,0.00,,,0.00,VWS V14.00,2013-10-27 11:18:00,
2013-10-27 07:19:00,35.8,33.7,30.03,West,261,0.0,2.0,92,0.00,,,0.00,VWS V14.00,2013-10-27 11:19:00,
2013-10-27 07:20:00,35.7,33.6,30.03,West,261,0.0,2.0,92,0.00,,,0.00,VWS V14.00,2013-10-27 11:20:00,
2013-10-27 07:21:00,35.7,33.6,30.03,West,261,0.0,2.0,92,0.00,,,0.00,VWS V14.00,2013-10-27 11:21:00,
2013-10-27 07:22:00,35.7,33.6,30.03,West,261,0.0,2.0,92,0.00,,,0.00,VWS V14.00,2013-10-27 11:22:00,
2013-10-27 07:23:00,35.9,33.8,30.03,West,261,0.0,2.0,92,0.00,,,0.00,VWS V14.00,2013-10-27 11:23:00,
2013-10-27 07:24:00,35.6,33.5,30.03,West,261,0.0,2.0,92,0.00,,,0.00,VWS V14.00,2013-10-27 11:24:00,
2013-10-27 07:25:00,35.6,33.5,30.03,West,261,0.0,2.0,92,0.00,,,0.00,VWS V14.00,2013-10-27 11:25:00,
2013-10-27 07:26:00,35.6,33.5,30.03,West,261,0.0,2.0,92,0.00,,,0.00,VWS V14.00,2013-10-27 11:26:00,
2013-10-27 07:27:00,35.5,33.4,30.03,West,261,2.0,2.0,92,0.00,,,0.00,VWS V14.00,2013-10-27 11:27:00,
2013-10-27 07:28:00,35.8,33.7,30.03,West,261,0.0,2.0,92,0.00,,,0.00,VWS V14.00,2013-10-27 11:28:00,
2013-10-27 07:29:00,35.5,33.4,30.03,West,261,0.0,3.0,92,0.00,,,0.00,VWS V14.00,2013-10-27 11:29:00,
2013-10-27 07:30:00,35.5,33.4,30.03,West,261,0.0,3.0,92,0.00,,,0.00,VWS V14.00,2013-10-27 11:30:00,
2013-10-27 07:31:00,35.5,33.4,30.03,West,261,0.0,1.0,92,0.00,,,0.00,VWS V14.00,2013-10-27 11:31:00,
2013-10-27 07:32:00,35.5,33.4,30.03,West,261,0.0,1.0,92,0.00,,,0.00,VWS V14.00,2013-10-27 11:32:00,
2013-10-27 07:33:00,35.7,33.6,30.03,West,261,0.0,2.0,92,0.00,,,0.00,VWS V14.00,2013-10-27 11:33:00,
2013-10-27 07:34:00,35.5,33.4,30.03,West,261,0.0,1.0,92,0.00,,,0.00,VWS V14.00,2013-10-27 11:34:00,
2013-10-27 07:35:00,35.5,33.4,30.03,West,261,0.0,1.0,92,0.00,,,0.00,VWS V14.00,2013-10-27 11:35:00,
2013-10-27 07:36:00,35.5,33.4,30.03,West,261,0.0,1.0,92,0.00,,,0.00,VWS V14.00,2013-10-27 11:36:00,
2013-10-27 07:37:00,35.5,33.4,30.03,West,261,0.0,1.0,92,0.00,,,0.00,VWS V14.00,2013-10-27 11:37:00,
2013-10-27 07:38:00,35.6,33.5,30.03,West,261,1.0,3.0,92,0.00,,,0.00,VWS V14.00,2013-10-27 11:38:00,
2013-10-27 07:39:00,35.5,33.4,30.03,West,261,0.0,1.0,92,0.00,,,0.00,VWS V14.00,2013-10-27 11:39:00,
2013-10-27 07:40:00,35.4,33.3,30.03,West,261,0.0,1.0,92,0.00,,,0.00,VWS V14.00,2013-10-27 11:40:00,
2013-10-27 07:41:00,35.4,33.3,30.03,West,261,0.0,1.0,92,0.00,,,0.00,VWS V14.00,2013-10-27 11:41:00,
2013-10-27 07:42:00,35.4,33.3,30.03,West,261,0.0,1.0,92,0.00,,,0.00,VWS V14.00,2013-10-27 11:42:00,
2013-10-27 07:43:00,35.5,33.4,30.03,West,261,0.0,1.0,92,0.00,,,0.00,VWS V14.00,2013-10-27 11:43:00,
2013-10-27 07:44:00,35.4,33.3,30.03,West,261,0.0,1.0,92,0.00,,,0.00,VWS V14.00,2013-10-27 11:44:00,
2013-10-27 07:45:00,35.4,33.3,30.03,West,261,0.0,1.0,92,0.00,,,0.00,VWS V14.00,2013-10-27 11:45:00,
2013-10-27 07:46:00,35.4,33.3,30.04,West,261,1.0,1.0,92,0.00,,,0.00,VWS V14.00,2013-10-27 11:46:00,
2013-10-27 07:47:00,35.4,33.3,30.04,West,261,0.0,1.0,92,0.00,,,0.00,VWS V14.00,2013-10-27 11:47:00,
2013-10-27 07:48:00,35.5,33.4,30.03,West,261,0.0,1.0,92,0.00,,,0.00,VWS V14.00,2013-10-27 11:48:00,
2013-10-27 07:49:00,35.4,33.3,30.04,West,261,0.0,1.0,92,0.00,,,0.00,VWS V14.00,2013-10-27 11:49:00,
2013-10-27 07:50:00,35.4,33.3,30.04,West,261,0.0,1.0,92,0.00,,,0.00,VWS V14.00,2013-10-27 11:50:00,
2013-10-27 07:51:00,35.4,33.3,30.04,West,261,0.0,2.0,92,0.00,,,0.00,VWS V14.00,2013-10-27 11:51:00,
2013-10-27 07:52:00,35.4,33.3,30.04,West,261,0.0,2.0,92,0.00,,,0.00,VWS V14.00,2013-10-27 11:52:00,
2013-10-27 07:53:00,35.4,33.3,30.03,West,261,0.0,1.0,92,0.00,,,0.00,VWS V14.00,2013-10-27 11:53:00,
2013-10-27 07:54:00,35.4,33.3,30.04,West,261,0.0,2.0,92,0.00,,,0.00,VWS V14.00,2013-10-27 11:54:00,
2013-10-27 07:55:00,35.4,33.3,30.04,West,261,0.0,2.0,92,0.00,,,0.00,VWS V14.00,2013-10-27 11:55:00,
2013-10-27 07:56:00,35.5,33.4,30.04,West,261,0.0,2.0,92,0.00,,,0.00,VWS V14.00,2013-10-27 11:56:00,
2013-10-27 07:57:00,35.4,33.3,30.04,West,261,0.0,2.0,92,0.00,,,0.00,VWS V14.00,2013-10-27 11:57:00,
2013-10-27 07:58:00,35.4,33.3,30.04,West,261,0.0,1.0,92,0.00,,,0.00,VWS V14.00,2013-10-27 11:58:00,
2013-10-27 07:59:00,35.4,33.3,30.04,West,261,0.0,2.0,92,0.00,,,0.00,VWS V14.00,2013-10-27 11:59:00,
2013-10-27 08:00:00,35.4,33.3,30.04,West,261,0.0,2.0,92,0.00,,,0.00,VWS V14.00,2013-10-27 12:00:00,
2013-10-27 08:01:00,35.4,33.3,30.04,West,263,0.0,0.0,92,0.00,,,0.00,VWS V14.00,2013-10-27 12:01:00,
2013-10-27 08:02:00,35.4,33.3,30.04,West,263,0.0,0.0,92,0.00,,,0.00,VWS V14.00,2013-10-27 12:02:00,
2013-10-27 08:03:00,35.4,33.3,30.04,West,261,0.0,2.0,92,0.00,,,0.00,VWS V14.00,2013-10-27 12:03:00,
2013-10-27 08:04:00,35.4,33.3,30.04,West,263,0.0,0.0,92,0.00,,,0.00,VWS V14.00,2013-10-27 12:04:00,
2013-10-27 08:05:00,35.3,33.2,30.04,West,263,0.0,0.0,92,0.00,,,0.00,VWS V14.00,2013-10-27 12:05:00,
2013-10-27 08:06:00,35.3,33.2,30.04,West,263,1.0,1.0,92,0.00,,,0.00,VWS V14.00,2013-10-27 12:06:00,
2013-10-27 08:07:00,35.3,33.2,30.03,West,263,0.0,1.0,92,0.00,,,0.00,VWS V14.00,2013-10-27 12:07:00,
2013-10-27 08:08:00,35.4,33.3,30.04,West,261,0.0,2.0,92,0.00,,,0.00,VWS V14.00,2013-10-27 12:08:00,
2013-10-27 08:09:00,35.4,33.3,30.03,West,263,0.0,1.0,92,0.00,,,0.00,VWS V14.00,2013-10-27 12:09:00,
2013-10-27 08:10:00,35.4,33.3,30.03,West,263,0.0,1.0,92,0.00,,,0.00,VWS V14.00,2013-10-27 12:10:00,
2013-10-27 08:11:00,35.4,33.3,30.04,West,263,0.0,2.0,92,0.00,,,0.00,VWS V14.00,2013-10-27 12:11:00,
2013-10-27 08:12:00,35.4,33.3,30.04,West,263,0.0,2.0,92,0.00,,,0.00,VWS V14.00,2013-10-27 12:12:00,
2013-10-27 08:13:00,35.4,33.3,30.04,West,263,0.0,0.0,92,0.00,,,0.00,VWS V14.00,2013-10-27 12:13:00,
2013-10-27 08:14:00,35.5,33.4,30.04,West,263,1.0,2.0,92,0.00,,,0.00,VWS V14.00,2013-10-27 12:14:00,
2013-10-27 08:15:00,35.5,33.4,30.04,West,263,0.0,2.0,92,0.00,,,0.00,VWS V14.00,2013-10-27 12:15:00,
2013-10-27 08:16:00,35.5,33.4,30.04,West,263,0.0,2.0,92,0.00,,,0.00,VWS V14.00,2013-10-27 12:16:00,
2013-10-27 08:17:00,35.6,33.5,30.04,West,263,0.0,2.0,92,0.00,,,0.00,VWS V14.00,2013-10-27 12:17:00,
2013-10-27 08:18:00,35.3,33.2,30.03,West,263,0.0,1.0,92,0.00,,,0.00,VWS V14.00,2013-10-27 12:18:00,
2013-10-27 08:19:00,35.6,33.5,30.04,West,263,0.0,2.0,92,0.00,,,0.00,VWS V14.00,2013-10-27 12:19:00,
2013-10-27 08:20:00,35.6,33.5,30.05,West,263,0.0,2.0,92,0.00,,,0.00,VWS V14.00,2013-10-27 12:20:00,
2013-10-27 08:21:00,35.7,33.6,30.04,West,263,0.0,2.0,92,0.00,,,0.00,VWS V14.00,2013-10-27 12:21:00,
2013-10-27 08:22:00,35.7,33.6,30.04,West,263,0.0,2.0,92,0.00,,,0.00,VWS V14.00,2013-10-27 12:22:00,
2013-10-27 08:23:00,35.5,33.4,30.04,West,263,0.0,2.0,92,0.00,,,0.00,VWS V14.00,2013-10-27 12:23:00,
2013-10-27 08:24:00,35.8,33.7,30.04,West,263,0.0,2.0,92,0.00,,,0.00,VWS V14.00,2013-10-27 12:24:00,
2013-10-27 08:25:00,35.7,33.6,30.05,West,263,0.0,2.0,92,0.00,,,0.00,VWS V14.00,2013-10-27 12:25:00,
2013-10-27 08:26:00,35.8,33.7,30.05,West,263,0.0,2.0,92,0.00,,,0.00,VWS V14.00,2013-10-27 12:26:00,
2013-10-27 08:27:00,35.8,33.7,30.05,West,263,1.0,3.0,92,0.00,,,0.00,VWS V14.00,2013-10-27 12:27:00,
2013-10-27 08:28:00,35.6,33.5,30.04,West,263,0.0,2.0,92,0.00,,,0.00,VWS V14.00,2013-10-27 12:28:00,
2013-10-27 08:29:00,35.9,33.8,30.05,West,263,0.0,3.0,92,0.00,,,0.00,VWS V14.00,2013-10-27 12:29:00,
2013-10-27 08:30:00,35.9,33.8,30.05,West,263,0.0,3.0,92,0.00,,,0.00,VWS V14.00,2013-10-27 12:30:00,
2013-10-27 08:31:00,35.9,33.8,30.05,West,263,0.0,0.0,92,0.00,,,0.00,VWS V14.00,2013-10-27 12:31:00,
2013-10-27 08:32:00,36.0,33.9,30.05,West,263,0.0,0.0,92,0.00,,,0.00,VWS V14.00,2013-10-27 12:32:00,
2013-10-27 08:33:00,35.7,33.6,30.04,West,263,0.0,2.0,92,0.00,,,0.00,VWS V14.00,2013-10-27 12:33:00,
2013-10-27 08:34:00,36.0,33.9,30.05,West,263,0.0,1.0,92,0.00,,,0.00,VWS V14.00,2013-10-27 12:34:00,
2013-10-27 08:35:00,36.1,34.0,30.05,West,263,0.0,1.0,92,0.00,,,0.00,VWS V14.00,2013-10-27 12:35:00,
2013-10-27 08:36:00,36.1,34.0,30.05,West,263,0.0,3.0,92,0.00,,,0.00,VWS V14.00,2013-10-27 12:36:00,
2013-10-27 08:37:00,36.1,34.0,30.05,West,263,0.0,3.0,92,0.00,,,0.00,VWS V14.00,2013-10-27 12:37:00,
2013-10-27 08:38:00,35.9,33.8,30.04,West,263,0.0,3.0,92,0.00,,,0.00,VWS V14.00,2013-10-27 12:38:00,
2013-10-27 08:39:00,36.2,34.1,30.05,West,263,0.0,3.0,92,0.00,,,0.00,VWS V14.00,2013-10-27 12:39:00,
2013-10-27 08:40:00,36.3,34.2,30.05,West,259,1.0,3.0,92,0.00,,,0.00,VWS V14.00,2013-10-27 12:40:00,
2013-10-27 08:41:00,36.3,34.2,30.05,West,259,0.0,3.0,92,0.00,,,0.00,VWS V14.00,2013-10-27 12:41:00,
2013-10-27 08:42:00,36.4,34.3,30.05,West,259,0.0,3.0,92,0.00,,,0.00,VWS V14.00,2013-10-27 12:42:00,
2013-10-27 08:43:00,36.0,33.9,30.05,West,263,0.0,1.0,92,0.00,,,0.00,VWS V14.00,2013-10-27 12:43:00,
2013-10-27 08:44:00,36.5,34.4,30.04,West,259,0.0,3.0,92,0.00,,,0.00,VWS V14.00,2013-10-27 12:44:00,
2013-10-27 08:45:00,36.5,34.4,30.05,West,259,2.0,3.0,92,0.00,,,0.00,VWS V14.00,2013-10-27 12:45:00,
2013-10-27 08:46:00,36.6,34.5,30.05,West,259,0.0,3.0,92,0.00,,,0.00,VWS V14.00,2013-10-27 12:46:00,
2013-10-27 08:47:00,36.6,34.5,30.05,West,259,0.0,3.0,92,0.00,,,0.00,VWS V14.00,2013-10-27 12:47:00,
2013-10-27 08:48:00,36.2,34.1,30.05,West,263,0.0,3.0,92,0.00,,,0.00,VWS V14.00,2013-10-27 12:48:00,
2013-10-27 08:49:00,36.7,34.6,30.05,West,259,0.0,3.0,92,0.00,,,0.00,VWS V14.00,2013-10-27 12:49:00,
2013-10-27 08:50:00,36.8,34.7,30.05,West,259,0.0,3.0,92,0.00,,,0.00,VWS V14.00,2013-10-27 12:50:00,
2013-10-27 08:51:00,36.8,34.7,30.05,West,259,0.0,3.0,92,0.00,,,0.00,VWS V14.00,2013-10-27 12:51:00,
2013-10-27 08:52:00,36.9,34.8,30.05,West,259,0.0,3.0,92,0.00,,,0.00,VWS V14.00,2013-10-27 12:52:00,
2013-10-27 08:53:00,36.4,34.3,30.05,West,259,0.0,3.0,92,0.00,,,0.00,VWS V14.00,2013-10-27 12:53:00,
2013-10-27 08:54:00,37.0,34.9,30.04,West,259,0.0,3.0,92,0.00,,,0.00,VWS V14.00,2013-10-27 12:54:00,
2013-10-27 08:55:00,37.1,35.0,30.05,West,259,0.0,3.0,92,0.00,,,0.00,VWS V14.00,2013-10-27 12:55:00,
2013-10-27 08:56:00,37.1,35.0,30.05,West,259,0.0,3.0,92,0.00,,,0.00,VWS V14.00,2013-10-27 12:56:00,
2013-10-27 08:57:00,37.2,35.1,30.05,West,259,0.0,3.0,92,0.00,,,0.00,VWS V14.00,2013-10-27 12:57:00,
2013-10-27 08:58:00,36.7,34.6,30.05,West,259,0.0,3.0,92,0.00,,,0.00,VWS V14.00,2013-10-27 12:58:00,
2013-10-27 08:59:00,37.3,35.2,30.05,West,259,0.0,3.0,92,0.00,,,0.00,VWS V14.00,2013-10-27 12:59:00,
2013-10-27 09:00:00,37.4,35.3,30.05,WSW,257,0.0,3.0,92,0.00,,,0.00,VWS V14.00,2013-10-27 13:00:00,
2013-10-27 09:01:00,37.5,35.4,30.05,WSW,257,0.0,2.0,92,0.00,,,0.00,VWS V14.00,2013-10-27 13:01:00,
2013-10-27 09:02:00,37.6,35.2,30.05,WSW,257,0.0,2.0,91,0.00,,,0.00,VWS V14.00,2013-10-27 13:02:00,
2013-10-27 09:03:00,37.7,35.3,30.05,WSW,257,0.0,2.0,91,0.00,,,0.00,VWS V14.00,2013-10-27 13:03:00,
2013-10-27 09:04:00,37.0,34.9,30.04,West,259,0.0,3.0,92,0.00,,,0.00,VWS V14.00,2013-10-27 13:04:00,
2013-10-27 09:05:00,37.8,35.4,30.05,WSW,257,0.0,2.0,91,0.00,,,0.00,VWS V14.00,2013-10-27 13:05:00,
2013-10-27 09:06:00,37.8,35.4,30.05,WSW,257,0.0,2.0,91,0.00,,,0.00,VWS V14.00,2013-10-27 13:06:00,
2013-10-27 09:07:00,37.9,35.5,30.05,WSW,257,0.0,2.0,91,0.00,,,0.00,VWS V14.00,2013-10-27 13:07:00,
2013-10-27 09:08:00,38.0,35.6,30.05,WSW,257,1.0,2.0,91,0.00,,,0.00,VWS V14.00,2013-10-27 13:08:00,
2013-10-27 09:09:00,37.3,35.2,30.05,West,259,0.0,3.0,92,0.00,,,0.00,VWS V14.00,2013-10-27 13:09:00,
2013-10-27 09:10:00,38.2,35.8,30.05,WSW,257,0.0,3.0,91,0.00,,,0.00,VWS V14.00,2013-10-27 13:10:00,
2013-10-27 09:11:00,38.2,35.8,30.05,WSW,257,0.0,3.0,91,0.00,,,0.00,VWS V14.00,2013-10-27 13:11:00,
2013-10-27 09:12:00,38.3,35.9,30.06,WSW,257,0.0,3.0,91,0.00,,,0.00,VWS V14.00,2013-10-27 13:12:00,
2013-10-27 09:13:00,38.4,36.0,30.06,WSW,257,0.0,3.0,91,0.00,,,0.00,VWS V14.00,2013-10-27 13:13:00,
2013-10-27 09:14:00,37.7,35.3,30.05,WSW,257,0.0,2.0,91,0.00,,,0.00,VWS V14.00,2013-10-27 13:14:00,
2013-10-27 09:15:00,38.5,36.1,30.06,WSW,257,2.0,3.0,91,0.00,,,0.00,VWS V14.00,2013-10-27 13:15:00,
2013-10-27 09:16:00,38.6,35.9,30.06,WSW,257,1.0,3.0,90,0.00,,,0.00,VWS V14.00,2013-10-27 13:16:00,
2013-10-27 09:17:00,38.6,36.2,30.06,WSW,257,0.0,3.0,91,0.00,,,0.00,VWS V14.00,2013-10-27 13:17:00,
2013-10-27 09:18:00,38.7,36.0,30.06,WSW,257,0.0,3.0,90,0.00,,,0.00,VWS V14.00,2013-10-27 13:18:00,
2013-10-27 09:19:00,38.0,35.6,30.05,WSW,257,1.0,3.0,91,0.00,,,0.00,VWS V14.00,2013-10-27 13:19:00,
2013-10-27 09:20:00,38.8,36.1,30.06,WSW,257,0.0,3.0,90,0.00,,,0.00,VWS V14.00,2013-10-27 13:20:00,
2013-10-27 09:21:00,38.9,36.2,30.06,WSW,257,0.0,3.0,90,0.00,,,0.00,VWS V14.00,2013-10-27 13:21:00,
2013-10-27 09:22:00,38.9,36.2,30.06,WSW,257,0.0,3.0,90,0.00,,,0.00,VWS V14.00,2013-10-27 13:22:00,
2013-10-27 09:23:00,39.0,36.3,30.06,WSW,257,0.0,3.0,90,0.00,,,0.00,VWS V14.00,2013-10-27 13:23:00,
2013-10-27 09:24:00,38.4,36.0,30.06,WSW,257,0.0,3.0,91,0.00,,,0.00,VWS V14.00,2013-10-27 13:24:00,
2013-10-27 09:25:00,39.1,36.4,30.06,WSW,257,0.0,3.0,90,0.00,,,0.00,VWS V14.00,2013-10-27 13:25:00,
2013-10-27 09:26:00,39.2,36.5,30.06,WSW,257,0.0,3.0,90,0.00,,,0.00,VWS V14.00,2013-10-27 13:26:00,
2013-10-27 09:27:00,39.3,36.6,30.06,WSW,257,2.0,3.0,90,0.00,,,0.00,VWS V14.00,2013-10-27 13:27:00,
2013-10-27 09:28:00,39.3,36.6,30.06,WSW,257,0.0,3.0,90,0.00,,,0.00,VWS V14.00,2013-10-27 13:28:00,
2013-10-27 09:29:00,38.8,36.1,30.06,WSW,257,0.0,3.0,90,0.00,,,0.00,VWS V14.00,2013-10-27 13:29:00,
2013-10-27 09:30:00,39.4,36.7,30.06,WSW,257,0.0,3.0,90,0.00,,,0.00,VWS V14.00,2013-10-27 13:30:00,
2013-10-27 09:31:00,39.5,36.8,30.06,WSW,257,0.0,2.0,90,0.00,,,0.00,VWS V14.00,2013-10-27 13:31:00,
2013-10-27 09:32:00,39.5,36.8,30.06,WSW,257,1.0,2.0,90,0.00,,,0.00,VWS V14.00,2013-10-27 13:32:00,
2013-10-27 09:33:00,39.6,36.9,30.06,WSW,257,0.0,2.0,90,0.00,,,0.00,VWS V14.00,2013-10-27 13:33:00,
2013-10-27 09:34:00,39.1,36.4,30.06,WSW,257,0.0,3.0,90,0.00,,,0.00,VWS V14.00,2013-10-27 13:34:00,
2013-10-27 09:35:00,39.7,37.0,30.06,WSW,257,2.0,3.0,90,0.00,,,0.00,VWS V14.00,2013-10-27 13:35:00,
2013-10-27 09:36:00,39.7,37.0,30.06,WSW,257,1.0,3.0,90,0.00,,,0.00,VWS V14.00,2013-10-27 13:36:00,
2013-10-27 09:37:00,39.8,37.1,30.06,WSW,257,0.0,3.0,90,0.00,,,0.00,VWS V14.00,2013-10-27 13:37:00,
2013-10-27 09:38:00,39.8,36.8,30.06,WSW,257,0.0,3.0,89,0.00,,,0.00,VWS V14.00,2013-10-27 13:38:00,
2013-10-27 09:39:00,39.4,36.7,30.06,WSW,257,0.0,3.0,90,0.00,,,0.00,VWS V14.00,2013-10-27 13:39:00,
2013-10-27 09:40:00,39.9,36.9,30.06,WSW,257,1.0,4.0,89,0.00,,,0.00,VWS V14.00,2013-10-27 13:40:00,
2013-10-27 09:41:00,39.9,36.9,30.06,WSW,257,1.0,4.0,89,0.00,,,0.00,VWS V14.00,2013-10-27 13:41:00,
2013-10-27 09:42:00,40.0,37.0,30.06,WSW,257,0.0,4.0,89,0.00,,,0.00,VWS V14.00,2013-10-27 13:42:00,
2013-10-27 09:43:00,40.0,37.0,30.06,WSW,257,2.0,4.0,89,0.00,,,0.00,VWS V14.00,2013-10-27 13:43:00,
2013-10-27 09:44:00,39.6,36.9,30.06,WSW,257,0.0,2.0,90,0.00,,,0.00,VWS V14.00,2013-10-27 13:44:00,
2013-10-27 09:45:00,40.1,37.1,30.06,WSW,257,0.0,4.0,89,0.00,,,0.00,VWS V14.00,2013-10-27 13:45:00,
2013-10-27 09:46:00,40.1,37.1,30.06,WSW,257,3.0,4.0,89,0.00,,,0.00,VWS V14.00,2013-10-27 13:46:00,
2013-10-27 09:47:00,40.1,37.1,30.06,WSW,257,1.0,4.0,89,0.00,,,0.00,VWS V14.00,2013-10-27 13:47:00,
2013-10-27 09:48:00,40.2,37.2,30.06,WSW,257,0.0,4.0,89,0.00,,,0.00,VWS V14.00,2013-10-27 13:48:00,
2013-10-27 09:49:00,39.8,36.8,30.06,WSW,257,2.0,4.0,89,0.00,,,0.00,VWS V14.00,2013-10-27 13:49:00,
2013-10-27 09:50:00,40.3,37.3,30.06,WSW,257,2.0,4.0,89,0.00,,,0.00,VWS V14.00,2013-10-27 13:50:00,
2013-10-27 09:51:00,40.3,37.3,30.06,WSW,257,0.0,4.0,89,0.00,,,0.00,VWS V14.00,2013-10-27 13:51:00,
2013-10-27 09:52:00,40.4,37.4,30.06,WSW,257,0.0,4.0,89,0.00,,,0.00,VWS V14.00,2013-10-27 13:52:00,
2013-10-27 09:53:00,40.4,37.4,30.06,WSW,257,3.0,4.0,89,0.00,,,0.00,VWS V14.00,2013-10-27 13:53:00,
2013-10-27 09:54:00,40.0,37.0,30.06,WSW,257,0.0,4.0,89,0.00,,,0.00,VWS V14.00,2013-10-27 13:54:00,
2013-10-27 09:55:00,40.5,37.2,30.06,WSW,257,0.0,4.0,88,0.00,,,0.00,VWS V14.00,2013-10-27 13:55:00,
2013-10-27 09:56:00,40.6,37.3,30.06,WSW,257,0.0,4.0,88,0.00,,,0.00,VWS V14.00,2013-10-27 13:56:00,
2013-10-27 09:57:00,40.6,37.3,30.06,WSW,257,2.0,4.0,88,0.00,,,0.00,VWS V14.00,2013-10-27 13:57:00,
2013-10-27 09:58:00,40.7,37.4,30.06,WSW,257,0.0,4.0,88,0.00,,,0.00,VWS V14.00,2013-10-27 13:58:00,
2013-10-27 09:59:00,40.2,37.2,30.06,WSW,257,0.0,4.0,89,0.00,,,0.00,VWS V14.00,2013-10-27 13:59:00,
2013-10-27 10:00:00,40.8,37.5,30.06,WSW,257,0.0,4.0,88,0.00,,,0.00,VWS V14.00,2013-10-27 14:00:00,
2013-10-27 10:01:00,40.9,37.6,30.06,WSW,247,0.0,0.0,88,0.00,,,0.00,VWS V14.00,2013-10-27 14:01:00,
2013-10-27 10:02:00,40.9,37.6,30.06,WSW,247,2.0,4.0,88,0.00,,,0.00,VWS V14.00,2013-10-27 14:02:00,
2013-10-27 10:03:00,41.0,37.7,30.06,WSW,246,0.0,4.0,88,0.00,,,0.00,VWS V14.00,2013-10-27 14:03:00,
2013-10-27 10:04:00,40.5,37.2,30.06,WSW,257,2.0,4.0,88,0.00,,,0.00,VWS V14.00,2013-10-27 14:04:00,
2013-10-27 10:05:00,41.1,37.8,30.06,WSW,249,2.0,4.0,88,0.00,,,0.00,VWS V14.00,2013-10-27 14:05:00,
2013-10-27 10:06:00,41.1,37.5,30.06,WSW,249,0.0,4.0,87,0.00,,,0.00,VWS V14.00,2013-10-27 14:06:00,
2013-10-27 10:07:00,41.2,37.6,30.06,WSW,250,0.0,4.0,87,0.00,,,0.00,VWS V14.00,2013-10-27 14:07:00,
2013-10-27 10:08:00,41.3,37.7,30.06,WSW,249,0.0,4.0,87,0.00,,,0.00,VWS V14.00,2013-10-27 14:08:00,
2013-10-27 10:09:00,40.7,37.4,30.06,WSW,257,0.0,4.0,88,0.00,,,0.00,VWS V14.00,2013-10-27 14:09:00,
2013-10-27 10:10:00,41.4,37.8,30.07,WSW,250,2.0,4.0,87,0.00,,,0.00,VWS V14.00,2013-10-27 14:10:00,
2013-10-27 10:11:00,41.5,37.9,30.07,WSW,250,1.0,4.0,87,0.00,,,0.00,VWS V14.00,2013-10-27 14:11:00,
2013-10-27 10:12:00,41.5,37.6,30.06,WSW,250,0.0,4.0,86,0.00,,,0.00,VWS V14.00,2013-10-27 14:12:00,
2013-10-27 10:13:00,41.6,37.7,30.06,West,269,0.0,4.0,86,0.00,,,0.00,VWS V14.00,2013-10-27 14:13:00,
2013-10-27 10:14:00,41.0,37.4,30.06,WSW,247,0.0,4.0,87,0.00,,,0.00,VWS V14.00,2013-10-27 14:14:00,
2013-10-27 10:15:00,41.7,37.8,30.06,West,269,2.0,4.0,86,0.00,,,0.00,VWS V14.00,2013-10-27 14:15:00,
2013-10-27 10:16:00,41.8,37.9,30.06,West,269,3.0,4.0,86,0.00,,,0.00,VWS V14.00,2013-10-27 14:16:00,
2013-10-27 10:17:00,41.9,38.0,30.06,West,269,0.0,4.0,86,0.00,,,0.00,VWS V14.00,2013-10-27 14:17:00,
2013-10-27 10:18:00,41.9,37.7,30.06,West,269,1.0,4.0,85,0.00,,,0.00,VWS V14.00,2013-10-27 14:18:00,
2013-10-27 10:19:00,41.3,37.7,30.06,WSW,250,0.0,4.0,87,0.00,,,0.00,VWS V14.00,2013-10-27 14:19:00,
2013-10-27 10:20:00,42.0,37.8,30.06,West,269,2.0,4.0,85,0.00,,,0.00,VWS V14.00,2013-10-27 14:20:00,
2013-10-27 10:21:00,42.1,37.9,30.06,West,269,3.0,5.0,85,0.00,,,0.00,VWS V14.00,2013-10-27 14:21:00,
2013-10-27 10:22:00,42.2,38.0,30.06,West,269,2.0,5.0,85,0.00,,,0.00,VWS V14.00,2013-10-27 14:22:00,
2013-10-27 10:23:00,42.2,37.7,30.06,West,267,2.0,6.0,84,0.00,,,0.00,VWS V14.00,2013-10-27 14:23:00,
2013-10-27 10:24:00,41.6,37.7,30.06,West,269,0.0,4.0,86,0.00,,,0.00,VWS V14.00,2013-10-27 14:24:00,
2013-10-27 10:25:00,42.4,37.9,30.07,West,267,0.0,6.0,84,0.00,,,0.00,VWS V14.00,2013-10-27 14:25:00,
2013-10-27 10:26:00,42.4,38.2,30.07,West,267,1.0,6.0,85,0.00,,,0.00,VWS V14.00,2013-10-27 14:26:00,
2013-10-27 10:27:00,42.5,38.0,30.07,West,267,2.0,6.0,84,0.00,,,0.00,VWS V14.00,2013-10-27 14:27:00,
2013-10-27 10:28:00,42.5,38.0,30.07,West,267,3.0,6.0,84,0.00,,,0.00,VWS V14.00,2013-10-27 14:28:00,
2013-10-27 10:29:00,42.0,37.8,30.06,West,269,1.0,4.0,85,0.00,,,0.00,VWS V14.00,2013-10-27 14:29:00,
2013-10-27 10:30:00,42.7,38.2,30.07,West,267,0.0,6.0,84,0.00,,,0.00,VWS V14.00,2013-10-27 14:30:00,
2013-10-27 10:31:00,42.8,38.3,30.07,West,267,1.0,2.0,84,0.00,,,0.00,VWS V14.00,2013-10-27 14:31:00,
2013-10-27 10:32:00,42.8,38.3,30.07,West,267,0.0,2.0,84,0.00,,,0.00,VWS V14.00,2013-10-27 14:32:00,
2013-10-27 10:33:00,42.9,38.4,30.07,West,265,4.0,4.0,84,0.00,,,0.00,VWS V14.00,2013-10-27 14:33:00,
2013-10-27 10:34:00,42.3,37.8,30.07,West,267,0.0,6.0,84,0.00,,,0.00,VWS V14.00,2013-10-27 14:34:00,
2013-10-27 10:35:00,43.0,38.5,30.07,West,266,3.0,4.0,84,0.00,,,0.00,VWS V14.00,2013-10-27 14:35:00,
2013-10-27 10:36:00,43.1,38.3,30.07,West,266,2.0,4.0,83,0.00,,,0.00,VWS V14.00,2013-10-27 14:36:00,
2013-10-27 10:37:00,43.1,38.3,30.07,West,266,2.0,4.0,83,0.00,,,0.00,VWS V14.00,2013-10-27 14:37:00,
2013-10-27 10:38:00,43.2,38.4,30.07,West,263,2.0,7.0,83,0.00,,,0.00,VWS V14.00,2013-10-27 14:38:00,
2013-10-27 10:39:00,42.6,38.1,30.07,West,267,2.0,6.0,84,0.00,,,0.00,VWS V14.00,2013-10-27 14:39:00,
2013-10-27 10:40:00,43.3,38.5,30.07,West,262,3.0,7.0,83,0.00,,,0.00,VWS V14.00,2013-10-27 14:40:00,
2013-10-27 10:41:00,43.4,38.6,30.07,West,262,4.0,7.0,83,0.00,,,0.00,VWS V14.00,2013-10-27 14:41:00,
2013-10-27 10:42:00,43.4,38.3,30.07,West,262,0.0,7.0,82,0.00,,,0.00,VWS V14.00,2013-10-27 14:42:00,
2013-10-27 10:43:00,43.5,38.4,30.07,West,262,0.0,7.0,82,0.00,,,0.00,VWS V14.00,2013-10-27 14:43:00,
2013-10-27 10:44:00,42.9,38.4,30.07,West,265,0.0,4.0,84,0.00,,,0.00,VWS V14.00,2013-10-27 14:44:00,
2013-10-27 10:45:00,43.6,38.2,30.07,West,262,2.0,7.0,81,0.00,,,0.00,VWS V14.00,2013-10-27 14:45:00,
2013-10-27 10:46:00,43.6,38.2,30.07,West,262,2.0,7.0,81,0.00,,,0.00,VWS V14.00,2013-10-27 14:46:00,
2013-10-27 10:47:00,43.7,38.3,30.07,West,261,0.0,7.0,81,0.00,,,0.00,VWS V14.00,2013-10-27 14:47:00,
2013-10-27 10:48:00,43.7,38.3,30.07,West,262,0.0,7.0,81,0.00,,,0.00,VWS V14.00,2013-10-27 14:48:00,
2013-10-27 10:49:00,43.2,38.4,30.07,West,263,1.0,7.0,83,0.00,,,0.00,VWS V14.00,2013-10-27 14:49:00,
2013-10-27 10:50:00,43.9,38.5,30.07,West,262,0.0,7.0,81,0.00,,,0.00,VWS V14.00,2013-10-27 14:50:00,
2013-10-27 10:51:00,44.0,38.5,30.07,West,262,3.0,7.0,81,0.00,,,0.00,VWS V14.00,2013-10-27 14:51:00,
2013-10-27 10:52:00,44.0,38.2,30.07,West,262,3.0,7.0,80,0.00,,,0.00,VWS V14.00,2013-10-27 14:52:00,
2013-10-27 10:53:00,44.1,38.3,30.07,West,262,0.0,7.0,80,0.00,,,0.00,VWS V14.00,2013-10-27 14:53:00,
2013-10-27 10:54:00,43.5,38.4,30.07,West,262,1.0,7.0,82,0.00,,,0.00,VWS V14.00,2013-10-27 14:54:00,
2013-10-27 10:55:00,44.2,38.4,30.07,West,262,2.0,7.0,80,0.00,,,0.00,VWS V14.00,2013-10-27 14:55:00,
2013-10-27 10:56:00,44.3,38.2,30.07,West,262,0.0,7.0,79,0.00,,,0.00,VWS V14.00,2013-10-27 14:56:00,
2013-10-27 10:57:00,44.4,38.0,30.07,West,262,2.0,7.0,78,0.00,,,0.00,VWS V14.00,2013-10-27 14:57:00,
2013-10-27 10:58:00,44.5,38.1,30.07,West,262,0.0,7.0,78,0.00,,,0.00,VWS V14.00,2013-10-27 14:58:00,
2013-10-27 10:59:00,43.8,38.4,30.07,West,262,0.0,7.0,81,0.00,,,0.00,VWS V14.00,2013-10-27 14:59:00,
2013-10-27 11:00:00,44.7,37.9,30.06,West,262,0.0,7.0,77,0.00,,,0.00,VWS V14.00,2013-10-27 15:00:00,
2013-10-27 11:01:00,44.9,38.5,30.06,West,262,0.0,3.0,78,0.00,,,0.00,VWS V14.00,2013-10-27 15:01:00,
2013-10-27 11:02:00,45.1,38.7,30.06,West,262,0.0,3.0,78,0.00,,,0.00,VWS V14.00,2013-10-27 15:02:00,
2013-10-27 11:03:00,45.3,38.9,30.06,West,262,0.0,3.0,78,0.00,,,0.00,VWS V14.00,2013-10-27 15:03:00,
2013-10-27 11:04:00,44.2,38.4,30.07,West,261,2.0,7.0,80,0.00,,,0.00,VWS V14.00,2013-10-27 15:04:00,
2013-10-27 11:05:00,45.8,39.3,30.06,West,262,0.0,3.0,78,0.00,,,0.00,VWS V14.00,2013-10-27 15:05:00,
2013-10-27 11:06:00,46.1,39.0,30.06,West,262,0.0,3.0,76,0.00,,,0.00,VWS V14.00,2013-10-27 15:06:00,
2013-10-27 11:07:00,46.3,39.2,30.06,West,262,0.0,3.0,76,0.00,,,0.00,VWS V14.00,2013-10-27 15:07:00,
2013-10-27 11:08:00,46.6,39.5,30.06,West,262,1.0,5.0,76,0.00,,,0.00,VWS V14.00,2013-10-27 15:08:00,
2013-10-27 11:09:00,44.6,38.2,30.07,West,261,0.0,7.0,78,0.00,,,0.00,VWS V14.00,2013-10-27 15:09:00,
2013-10-27 11:10:00,47.0,38.8,30.06,West,262,0.0,5.0,73,0.00,,,0.00,VWS V14.00,2013-10-27 15:10:00,
2013-10-27 11:11:00,47.2,39.0,30.06,West,261,3.0,5.0,73,0.00,,,0.00,VWS V14.00,2013-10-27 15:11:00,
2013-10-27 11:12:00,47.4,39.5,30.06,West,261,0.0,5.0,74,0.00,,,0.00,VWS V14.00,2013-10-27 15:12:00,
2013-10-27 11:13:00,47.6,39.0,30.06,West,261,0.0,5.0,72,0.00,,,0.00,VWS V14.00,2013-10-27 15:13:00,
2013-10-27 11:14:00,45.5,39.4,30.06,West,262,0.0,3.0,79,0.00,,,0.00,VWS V14.00,2013-10-27 15:14:00,
2013-10-27 11:15:00,47.8,39.2,30.06,West,261,2.0,5.0,72,0.00,,,0.00,VWS V14.00,2013-10-27 15:15:00,
2013-10-27 11:16:00,47.9,39.3,30.06,West,260,0.0,5.0,72,0.00,,,0.00,VWS V14.00,2013-10-27 15:16:00,
2013-10-27 11:17:00,48.1,39.2,30.06,West,259,0.0,5.0,71,0.00,,,0.00,VWS V14.00,2013-10-27 15:17:00,
2013-10-27 11:18:00,48.2,39.2,30.06,West,259,3.0,5.0,71,0.00,,,0.00,VWS V14.00,2013-10-27 15:18:00,
2013-10-27 11:19:00,46.8,39.3,30.06,West,261,0.0,5.0,75,0.00,,,0.00,VWS V14.00,2013-10-27 15:19:00,
2013-10-27 11:20:00,48.3,39.0,30.06,West,259,2.0,5.0,70,0.00,,,0.00,VWS V14.00,2013-10-27 15:20:00,
2013-10-27 11:21:00,48.5,39.2,30.06,West,259,3.0,5.0,70,0.00,,,0.00,VWS V14.00,2013-10-27 15:21:00,
2013-10-27 11:22:00,48.5,39.2,30.06,West,259,0.0,5.0,70,0.00,,,0.00,VWS V14.00,2013-10-27 15:22:00,
2013-10-27 11:23:00,48.6,38.9,30.06,West,259,0.0,5.0,69,0.00,,,0.00,VWS V14.00,2013-10-27 15:23:00,
2013-10-27 11:24:00,47.6,38.7,30.06,West,261,0.0,5.0,71,0.00,,,0.00,VWS V14.00,2013-10-27 15:24:00,
2013-10-27 11:25:00,48.6,38.5,30.06,West,259,0.0,5.0,68,0.00,,,0.00,VWS V14.00,2013-10-27 15:25:00,
2013-10-27 11:26:00,48.7,38.6,30.05,West,259,0.0,5.0,68,0.00,,,0.00,VWS V14.00,2013-10-27 15:26:00,
2013-10-27 11:27:00,48.8,39.1,30.05,West,259,0.0,5.0,69,0.00,,,0.00,VWS V14.00,2013-10-27 15:27:00,
2013-10-27 11:28:00,49.0,39.3,30.05,WSW,246,1.0,5.0,69,0.00,,,0.00,VWS V14.00,2013-10-27 15:28:00,
2013-10-27 11:29:00,48.2,39.2,30.06,West,259,0.0,5.0,71,0.00,,,0.00,VWS V14.00,2013-10-27 15:29:00,
2013-10-27 11:30:00,49.2,39.1,30.05,WSW,247,0.0,5.0,68,0.00,,,0.00,VWS V14.00,2013-10-27 15:30:00,
2013-10-27 11:31:00,49.2,39.1,30.06,WSW,247,0.0,2.0,68,0.00,,,0.00,VWS V14.00,2013-10-27 15:31:00,
2013-10-27 11:32:00,49.2,39.1,30.06,WSW,246,0.0,2.0,68,0.00,,,0.00,VWS V14.00,2013-10-27 15:32:00,
2013-10-27 11:33:00,49.2,38.7,30.06,WSW,246,2.0,4.0,67,0.00,,,0.00,VWS V14.00,2013-10-27 15:33:00,
2013-10-27 11:34:00,48.6,38.5,30.05,West,259,1.0,5.0,68,0.00,,,0.00,VWS V14.00,2013-10-27 15:34:00,
2013-10-27 11:35:00,49.1,38.2,30.06,WSW,246,0.0,4.0,66,0.00,,,0.00,VWS V14.00,2013-10-27 15:35:00,
2013-10-27 11:36:00,49.0,38.5,30.06,WSW,246,0.0,4.0,67,0.00,,,0.00,VWS V14.00,2013-10-27 15:36:00,
2013-10-27 11:37:00,48.9,38.4,30.06,WSW,246,2.0,4.0,67,0.00,,,0.00,VWS V14.00,2013-10-27 15:37:00,
2013-10-27 11:38:00,48.9,38.4,30.06,WSW,246,0.0,4.0,67,0.00,,,0.00,VWS V14.00,2013-10-27 15:38:00,
2013-10-27 11:39:00,49.1,39.4,30.05,WSW,247,0.0,5.0,69,0.00,,,0.00,VWS V14.00,2013-10-27 15:39:00,
2013-10-27 11:40:00,48.8,38.3,30.06,WSW,247,0.0,4.0,67,0.00,,,0.00,VWS V14.00,2013-10-27 15:40:00,
2013-10-27 11:41:00,48.7,38.6,30.06,WSW,247,0.0,4.0,68,0.00,,,0.00,VWS V14.00,2013-10-27 15:41:00,
2013-10-27 11:42:00,48.7,38.6,30.06,WSW,247,2.0,5.0,68,0.00,,,0.00,VWS V14.00,2013-10-27 15:42:00,
2013-10-27 11:43:00,48.6,38.2,30.06,SW,230,2.0,5.0,67,0.00,,,0.00,VWS V14.00,2013-10-27 15:43:00,
2013-10-27 11:44:00,49.2,38.7,30.06,WSW,247,2.0,4.0,67,0.00,,,0.00,VWS V14.00,2013-10-27 15:44:00,
2013-10-27 11:45:00,48.5,38.1,30.06,SW,230,2.0,5.0,67,0.00,,,0.00,VWS V14.00,2013-10-27 15:45:00,
2013-10-27 11:46:00,48.4,38.0,30.06,SW,229,1.0,5.0,67,0.00,,,0.00,VWS V14.00,2013-10-27 15:46:00,
2013-10-27 11:47:00,48.4,38.0,30.06,SW,216,3.0,5.0,67,0.00,,,0.00,VWS V14.00,2013-10-27 15:47:00,
2013-10-27 11:48:00,48.4,38.0,30.06,SSW,213,4.0,5.0,67,0.00,,,0.00,VWS V14.00,2013-10-27 15:48:00,
2013-10-27 11:49:00,48.8,38.3,30.06,WSW,247,0.0,4.0,67,0.00,,,0.00,VWS V14.00,2013-10-27 15:49:00,
2013-10-27 11:50:00,48.4,38.0,30.06,SSW,202,3.0,6.0,67,0.00,,,0.00,VWS V14.00,2013-10-27 15:50:00,
2013-10-27 11:51:00,48.5,37.7,30.06,South,181,4.0,6.0,66,0.00,,,0.00,VWS V14.00,2013-10-27 15:51:00,
2013-10-27 11:52:00,48.4,37.6,30.06,South,178,2.0,6.0,66,0.00,,,0.00,VWS V14.00,2013-10-27 15:52:00,
2013-10-27 11:53:00,48.4,37.6,30.06,South,178,3.0,6.0,66,0.00,,,0.00,VWS V14.00,2013-10-27 15:53:00,
2013-10-27 11:54:00,48.5,38.1,30.06,SW,230,3.0,5.0,67,0.00,,,0.00,VWS V14.00,2013-10-27 15:54:00,
2013-10-27 11:55:00,48.4,38.0,30.06,South,178,1.0,6.0,67,0.00,,,0.00,VWS V14.00,2013-10-27 15:55:00,
2013-10-27 11:56:00,48.4,38.0,30.05,South,175,5.0,6.0,67,0.00,,,0.00,VWS V14.00,2013-10-27 15:56:00,
2013-10-27 11:57:00,48.4,38.0,30.06,South,175,3.0,6.0,67,0.00,,,0.00,VWS V14.00,2013-10-27 15:57:00,
2013-10-27 11:58:00,48.4,38.0,30.06,SSE,166,2.0,6.0,67,0.00,,,0.00,VWS V14.00,2013-10-27 15:58:00,
2013-10-27 11:59:00,48.4,38.0,30.06,SSW,213,0.0,5.0,67,0.00,,,0.00,VWS V14.00,2013-10-27 15:59:00,
2013-10-27 12:00:00,48.4,38.3,30.06,SSE,165,3.0,6.0,68,0.00,,,0.00,VWS V14.00,2013-10-27 16:00:00,
2013-10-27 12:01:00,48.4,38.3,30.06,SSE,165,3.0,4.0,68,0.00,,,0.00,VWS V14.00,2013-10-27 16:01:00,
2013-10-27 12:02:00,48.4,38.3,30.06,SSE,166,0.0,4.0,68,0.00,,,0.00,VWS V14.00,2013-10-27 16:02:00,
2013-10-27 12:03:00,48.4,38.3,30.06,SSE,166,0.0,4.0,68,0.00,,,0.00,VWS V14.00,2013-10-27 16:03:00,
2013-10-27 12:04:00,48.4,38.0,30.06,South,178,0.0,6.0,67,0.00,,,0.00,VWS V14.00,2013-10-27 16:04:00,
2013-10-27 12:05:00,48.5,39.2,30.06,SSE,166,3.0,4.0,70,0.00,,,0.00,VWS V14.00,2013-10-27 16:05:00,
2013-10-27 12:06:00,48.5,39.2,30.06,SSE,165,2.0,4.0,70,0.00,,,0.00,VWS V14.00,2013-10-27 16:06:00,
2013-10-27 12:07:00,48.5,38.8,30.06,SSE,165,3.0,6.0,69,0.00,,,0.00,VWS V14.00,2013-10-27 16:07:00,
2013-10-27 12:08:00,48.5,38.4,30.05,SSE,165,5.0,6.0,68,0.00,,,0.00,VWS V14.00,2013-10-27 16:08:00,
2013-10-27 12:09:00,48.4,38.0,30.06,SSE,165,2.0,6.0,67,0.00,,,0.00,VWS V14.00,2013-10-27 16:09:00,
2013-10-27 12:10:00,48.4,38.3,30.05,SSE,155,3.0,7.0,68,0.00,,,0.00,VWS V14.00,2013-10-27 16:10:00,
2013-10-27 12:11:00,48.4,38.3,30.05,SSE,155,0.0,7.0,68,0.00,,,0.00,VWS V14.00,2013-10-27 16:11:00,
2013-10-27 12:12:00,48.4,38.7,30.05,SSE,155,0.0,7.0,69,0.00,,,0.00,VWS V14.00,2013-10-27 16:12:00,
2013-10-27 12:13:00,48.4,39.1,30.06,SSE,155,0.0,7.0,70,0.00,,,0.00,VWS V14.00,2013-10-27 16:13:00,
2013-10-27 12:14:00,48.4,38.7,30.06,SSE,166,0.0,4.0,69,0.00,,,0.00,VWS V14.00,2013-10-27 16:14:00,
2013-10-27 12:15:00,48.5,39.2,30.05,SSE,155,5.0,7.0,70,0.00,,,0.00,VWS V14.00,2013-10-27 16:15:00,
2013-10-27 12:16:00,48.6,39.3,30.05,SSE,155,4.0,7.0,70,0.00,,,0.00,VWS V14.00,2013-10-27 16:16:00,
2013-10-27 12:17:00,48.7,39.4,30.05,SSE,155,3.0,7.0,70,0.00,,,0.00,VWS V14.00,2013-10-27 16:17:00,
2013-10-27 12:18:00,48.8,39.1,30.05,SSE,155,1.0,7.0,69,0.00,,,0.00,VWS V14.00,2013-10-27 16:18:00,
2013-10-27 12:19:00,48.4,38.3,30.05,SSE,153,4.0,7.0,68,0.00,,,0.00,VWS V14.00,2013-10-27 16:19:00,
2013-10-27 12:20:00,48.9,38.8,30.05,SSE,155,4.0,7.0,68,0.00,,,0.00,VWS V14.00,2013-10-27 16:20:00,
2013-10-27 12:21:00,48.9,38.8,30.05,SSE,155,2.0,7.0,68,0.00,,,0.00,VWS V14.00,2013-10-27 16:21:00,
2013-10-27 12:22:00,48.9,38.8,30.05,SSE,156,1.0,7.0,68,0.00,,,0.00,VWS V14.00,2013-10-27 16:22:00,
2013-10-27 12:23:00,48.9,38.8,30.05,SSE,155,3.0,7.0,68,0.00,,,0.00,VWS V14.00,2013-10-27 16:23:00,
2013-10-27 12:24:00,48.5,39.2,30.06,SSE,155,2.0,7.0,70,0.00,,,0.00,VWS V14.00,2013-10-27 16:24:00,
2013-10-27 12:25:00,48.9,38.1,30.05,SSE,154,2.0,7.0,66,0.00,,,0.00,VWS V14.00,2013-10-27 16:25:00,
2013-10-27 12:26:00,48.9,38.4,30.05,SSE,154,2.0,7.0,67,0.00,,,0.00,VWS V14.00,2013-10-27 16:26:00,
2013-10-27 12:27:00,48.9,38.4,30.05,SSE,153,2.0,7.0,67,0.00,,,0.00,VWS V14.00,2013-10-27 16:27:00,
2013-10-27 12:28:00,48.9,38.8,30.05,SSE,154,2.0,7.0,68,0.00,,,0.00,VWS V14.00,2013-10-27 16:28:00,
2013-10-27 12:29:00,48.8,39.1,30.05,SSE,155,2.0,7.0,69,0.00,,,0.00,VWS V14.00,2013-10-27 16:29:00,
2013-10-27 12:30:00,48.9,38.4,30.05,SSE,154,1.0,7.0,67,0.00,,,0.00,VWS V14.00,2013-10-27 16:30:00,
2013-10-27 12:31:00,48.9,38.8,30.05,SSE,154,2.0,2.0,68,0.00,,,0.00,VWS V14.00,2013-10-27 16:31:00,
2013-10-27 12:32:00,48.9,38.8,30.05,SSE,153,2.0,6.0,68,0.00,,,0.00,VWS V14.00,2013-10-27 16:32:00,
2013-10-27 12:33:00,48.9,38.8,30.05,SSE,153,2.0,6.0,68,0.00,,,0.00,VWS V14.00,2013-10-27 16:33:00,
2013-10-27 12:34:00,48.9,38.1,30.05,SSE,153,2.0,7.0,66,0.00,,,0.00,VWS V14.00,2013-10-27 16:34:00,
2013-10-27 12:35:00,48.9,38.4,30.05,SSE,153,2.0,6.0,67,0.00,,,0.00,VWS V14.00,2013-10-27 16:35:00,
2013-10-27 12:36:00,48.8,38.3,30.05,SSE,153,0.0,6.0,67,0.00,,,0.00,VWS V14.00,2013-10-27 16:36:00,
2013-10-27 12:37:00,48.8,38.3,30.05,SSE,153,0.0,6.0,67,0.00,,,0.00,VWS V14.00,2013-10-27 16:37:00,
2013-10-27 12:38:00,48.8,38.3,30.05,SSE,153,0.0,6.0,67,0.00,,,0.00,VWS V14.00,2013-10-27 16:38:00,
2013-10-27 12:39:00,48.9,38.8,30.05,SSE,153,4.0,7.0,68,0.00,,,0.00,VWS V14.00,2013-10-27 16:39:00,
2013-10-27 12:40:00,48.7,38.6,30.05,SSE,153,2.0,6.0,68,0.00,,,0.00,VWS V14.00,2013-10-27 16:40:00,
2013-10-27 12:41:00,48.7,38.6,30.05,SSE,153,0.0,6.0,68,0.00,,,0.00,VWS V14.00,2013-10-27 16:41:00,
2013-10-27 12:42:00,48.6,38.5,30.05,SSE,153,3.0,6.0,68,0.00,,,0.00,VWS V14.00,2013-10-27 16:42:00,
2013-10-27 12:43:00,48.6,38.5,30.05,SSE,153,0.0,6.0,68,0.00,,,0.00,VWS V14.00,2013-10-27 16:43:00,
2013-10-27 12:44:00,48.9,38.4,30.05,SSE,153,1.0,6.0,67,0.00,,,0.00,VWS V14.00,2013-10-27 16:44:00,
2013-10-27 12:45:00,48.6,38.9,30.05,SSE,153,0.0,6.0,69,0.00,,,0.00,VWS V14.00,2013-10-27 16:45:00,
2013-10-27 12:46:00,48.5,38.8,30.05,SSE,153,1.0,6.0,69,0.00,,,0.00,VWS V14.00,2013-10-27 16:46:00,
2013-10-27 12:47:00,48.5,38.8,30.05,SSE,153,4.0,6.0,69,0.00,,,0.00,VWS V14.00,2013-10-27 16:47:00,
2013-10-27 12:48:00,48.5,38.8,30.05,SSE,153,1.0,6.0,69,0.00,,,0.00,VWS V14.00,2013-10-27 16:48:00,
2013-10-27 12:49:00,48.7,38.6,30.05,SSE,153,1.0,6.0,68,0.00,,,0.00,VWS V14.00,2013-10-27 16:49:00,
2013-10-27 12:50:00,48.4,38.7,30.05,SSE,153,1.0,6.0,69,0.00,,,0.00,VWS V14.00,2013-10-27 16:50:00,
2013-10-27 12:51:00,48.4,38.7,30.05,SSE,153,2.0,6.0,69,0.00,,,0.00,VWS V14.00,2013-10-27 16:51:00,
2013-10-27 12:52:00,48.3,38.6,30.05,SSE,153,0.0,6.0,69,0.00,,,0.00,VWS V14.00,2013-10-27 16:52:00,
2013-10-27 12:53:00,48.3,38.2,30.05,SSE,153,2.0,6.0,68,0.00,,,0.00,VWS V14.00,2013-10-27 16:53:00,
2013-10-27 12:54:00,48.6,38.9,30.05,SSE,153,0.0,6.0,69,0.00,,,0.00,VWS V14.00,2013-10-27 16:54:00,
2013-10-27 12:55:00,48.2,38.2,30.04,SSE,153,2.0,6.0,68,0.00,,,0.00,VWS V14.00,2013-10-27 16:55:00,
2013-10-27 12:56:00,48.1,38.4,30.04,SSE,153,3.0,6.0,69,0.00,,,0.00,VWS V14.00,2013-10-27 16:56:00,
2013-10-27 12:57:00,48.0,38.3,30.04,SSE,153,2.0,6.0,69,0.00,,,0.00,VWS V14.00,2013-10-27 16:57:00,
2013-10-27 12:58:00,47.9,38.2,30.04,SSE,154,1.0,6.0,69,0.00,,,0.00,VWS V14.00,2013-10-27 16:58:00,
2013-10-27 12:59:00,48.5,38.8,30.05,SSE,153,0.0,6.0,69,0.00,,,0.00,VWS V14.00,2013-10-27 16:59:00,
2013-10-27 13:00:00,47.8,38.5,30.04,SSE,155,2.0,6.0,70,0.00,,,0.00,VWS V14.00,2013-10-27 17:00:00,
2013-10-27 13:01:00,47.8,38.5,30.04,SSE,155,2.0,4.0,70,0.00,,,0.00,VWS V14.00,2013-10-27 17:01:00,
2013-10-27 13:02:00,47.8,38.5,30.04,SSE,155,3.0,4.0,70,0.00,,,0.00,VWS V14.00,2013-10-27 17:02:00,
2013-10-27 13:03:00,47.7,38.4,30.04,SSE,155,2.0,4.0,70,0.00,,,0.00,VWS V14.00,2013-10-27 17:03:00,
2013-10-27 13:04:00,48.3,38.2,30.04,SSE,153,4.0,6.0,68,0.00,,,0.00,VWS V14.00,2013-10-27 17:04:00,
2013-10-27 13:05:00,47.7,38.8,30.04,SSE,155,0.0,4.0,71,0.00,,,0.00,VWS V14.00,2013-10-27 17:05:00,
2013-10-27 13:06:00,47.8,38.9,30.04,SSE,155,0.0,4.0,71,0.00,,,0.00,VWS V14.00,2013-10-27 17:06:00,
2013-10-27 13:07:00,47.8,39.2,30.04,SSE,155,1.0,4.0,72,0.00,,,0.00,VWS V14.00,2013-10-27 17:07:00,
2013-10-27 13:08:00,47.8,39.2,30.04,SSE,155,2.0,4.0,72,0.00,,,0.00,VWS V14.00,2013-10-27 17:08:00,
2013-10-27 13:09:00,47.9,38.2,30.04,SSE,153,3.0,6.0,69,0.00,,,0.00,VWS V14.00,2013-10-27 17:09:00,
2013-10-27 13:10:00,47.7,38.8,30.04,SSE,155,2.0,5.0,71,0.00,,,0.00,VWS V14.00,2013-10-27 17:10:00,
2013-10-27 13:11:00,47.7,38.4,30.04,SSE,155,0.0,5.0,70,0.00,,,0.00,VWS V14.00,2013-10-27 17:11:00,
2013-10-27 13:12:00,47.7,38.8,30.03,SSE,155,3.0,5.0,71,0.00,,,0.00,VWS V14.00,2013-10-27 17:12:00,
2013-10-27 13:13:00,47.7,38.8,30.03,SSE,155,2.0,5.0,71,0.00,,,0.00,VWS V14.00,2013-10-27 17:13:00,
2013-10-27 13:14:00,47.7,38.4,30.04,SSE,155,2.0,4.0,70,0.00,,,0.00,VWS V14.00,2013-10-27 17:14:00,
2013-10-27 13:15:00,47.7,38.8,30.03,SSE,155,2.0,5.0,71,0.00,,,0.00,VWS V14.00,2013-10-27 17:15:00,
2013-10-27 13:16:00,47.7,39.1,30.03,SSE,155,4.0,5.0,72,0.00,,,0.00,VWS V14.00,2013-10-27 17:16:00,
2013-10-27 13:17:00,47.7,38.8,30.03,SSE,155,5.0,5.0,71,0.00,,,0.00,VWS V14.00,2013-10-27 17:17:00,
2013-10-27 13:18:00,47.7,38.8,30.03,SSE,155,0.0,5.0,71,0.00,,,0.00,VWS V14.00,2013-10-27 17:18:00,
2013-10-27 13:19:00,47.8,38.9,30.04,SSE,155,3.0,4.0,71,0.00,,,0.00,VWS V14.00,2013-10-27 17:19:00,
2013-10-27 13:20:00,47.7,39.1,30.03,SSE,155,0.0,5.0,72,0.00,,,0.00,VWS V14.00,2013-10-27 17:20:00,
2013-10-27 13:21:00,47.8,39.2,30.03,SSE,155,0.0,5.0,72,0.00,,,0.00,VWS V14.00,2013-10-27 17:21:00,
2013-10-27 13:22:00,47.8,39.2,30.03,SSE,155,0.0,5.0,72,0.00,,,0.00,VWS V14.00,2013-10-27 17:22:00,
2013-10-27 13:23:00,47.8,39.6,30.03,SSE,155,3.0,5.0,73,0.00,,,0.00,VWS V14.00,2013-10-27 17:23:00,
2013-10-27 13:24:00,47.7,38.8,30.03,SSE,155,1.0,5.0,71,0.00,,,0.00,VWS V14.00,2013-10-27 17:24:00,
2013-10-27 13:25:00,47.9,39.3,30.03,SSE,155,0.0,5.0,72,0.00,,,0.00,VWS V14.00,2013-10-27 17:25:00,
2013-10-27 13:26:00,47.9,39.3,30.03,SSE,155,0.0,5.0,72,0.00,,,0.00,VWS V14.00,2013-10-27 17:26:00,
2013-10-27 13:27:00,47.9,39.3,30.03,SSE,155,0.0,5.0,72,0.00,,,0.00,VWS V14.00,2013-10-27 17:27:00,
2013-10-27 13:28:00,48.0,39.8,30.03,SSE,155,1.0,5.0,73,0.00,,,0.00,VWS V14.00,2013-10-27 17:28:00,
2013-10-27 13:29:00,47.7,39.1,30.03,SSE,155,0.0,5.0,72,0.00,,,0.00,VWS V14.00,2013-10-27 17:29:00,
2013-10-27 13:30:00,48.1,39.9,30.03,SSE,155,1.0,5.0,73,0.00,,,0.00,VWS V14.00,2013-10-27 17:30:00,
2013-10-27 13:31:00,48.1,39.9,30.02,SSE,155,0.0,2.0,73,0.00,,,0.00,VWS V14.00,2013-10-27 17:31:00,
2013-10-27 13:32:00,48.2,40.3,30.02,SSE,155,0.0,2.0,74,0.00,,,0.00,VWS V14.00,2013-10-27 17:32:00,
2013-10-27 13:33:00,48.2,40.3,30.02,SSE,155,2.0,2.0,74,0.00,,,0.00,VWS V14.00,2013-10-27 17:33:00,
2013-10-27 13:34:00,47.9,39.3,30.03,SSE,155,1.0,5.0,72,0.00,,,0.00,VWS V14.00,2013-10-27 17:34:00,
2013-10-27 13:35:00,48.3,40.1,30.02,SSE,155,1.0,4.0,73,0.00,,,0.00,VWS V14.00,2013-10-27 17:35:00,
2013-10-27 13:36:00,48.3,40.1,30.03,SSE,155,0.0,4.0,73,0.00,,,0.00,VWS V14.00,2013-10-27 17:36:00,
2013-10-27 13:37:00,48.4,40.2,30.03,SSE,155,3.0,4.0,73,0.00,,,0.00,VWS V14.00,2013-10-27 17:37:00,
2013-10-27 13:38:00,48.5,40.2,30.02,SSE,155,2.0,4.0,73,0.00,,,0.00,VWS V14.00,2013-10-27 17:38:00,
2013-10-27 13:39:00,48.0,39.8,30.03,SSE,155,0.0,5.0,73,0.00,,,0.00,VWS V14.00,2013-10-27 17:39:00,
2013-10-27 13:40:00,48.6,40.3,30.02,SSE,155,3.0,4.0,73,0.00,,,0.00,VWS V14.00,2013-10-27 17:40:00,
2013-10-27 13:41:00,48.6,40.3,30.02,SSE,155,0.0,4.0,73,0.00,,,0.00,VWS V14.00,2013-10-27 17:41:00,
2013-10-27 13:42:00,48.7,40.5,30.02,SSE,155,2.0,4.0,73,0.00,,,0.00,VWS V14.00,2013-10-27 17:42:00,
2013-10-27 13:43:00,48.8,40.5,30.02,SSE,155,2.0,4.0,73,0.00,,,0.00,VWS V14.00,2013-10-27 17:43:00,
2013-10-27 13:44:00,48.3,40.1,30.02,SSE,155,4.0,4.0,73,0.00,,,0.00,VWS V14.00,2013-10-27 17:44:00,
2013-10-27 13:45:00,48.9,40.6,30.02,SSE,155,1.0,4.0,73,0.00,,,0.00,VWS V14.00,2013-10-27 17:45:00,
2013-10-27 13:46:00,49.0,41.1,30.02,SSE,155,2.0,4.0,74,0.00,,,0.00,VWS V14.00,2013-10-27 17:46:00,
2013-10-27 13:47:00,49.1,40.8,30.02,SSE,155,2.0,4.0,73,0.00,,,0.00,VWS V14.00,2013-10-27 17:47:00,
2013-10-27 13:48:00,49.2,40.9,30.02,SSE,155,0.0,4.0,73,0.00,,,0.00,VWS V14.00,2013-10-27 17:48:00,
2013-10-27 13:49:00,48.5,40.2,30.02,SSE,155,0.0,4.0,73,0.00,,,0.00,VWS V14.00,2013-10-27 17:49:00,
2013-10-27 13:50:00,49.3,40.7,30.02,SSE,155,0.0,4.0,72,0.00,,,0.00,VWS V14.00,2013-10-27 17:50:00,
2013-10-27 13:51:00,49.3,40.7,30.02,SSE,155,2.0,5.0,72,0.00,,,0.00,VWS V14.00,2013-10-27 17:51:00,
2013-10-27 13:52:00,49.4,40.8,30.02,SSE,155,0.0,5.0,72,0.00,,,0.00,VWS V14.00,2013-10-27 17:52:00,
2013-10-27 13:53:00,49.4,40.8,30.02,SSE,155,0.0,5.0,72,0.00,,,0.00,VWS V14.00,2013-10-27 17:53:00,
2013-10-27 13:54:00,48.8,40.5,30.02,SSE,155,2.0,4.0,73,0.00,,,0.00,VWS V14.00,2013-10-27 17:54:00,
2013-10-27 13:55:00,49.5,40.9,30.02,SSE,155,0.0,5.0,72,0.00,,,0.00,VWS V14.00,2013-10-27 17:55:00,
2013-10-27 13:56:00,49.5,40.9,30.01,SSE,155,0.0,5.0,72,0.00,,,0.00,VWS V14.00,2013-10-27 17:56:00,
2013-10-27 13:57:00,49.5,40.9,30.01,SSE,155,0.0,5.0,72,0.00,,,0.00,VWS V14.00,2013-10-27 17:57:00,
2013-10-27 13:58:00,49.5,40.9,30.01,SSE,155,0.0,5.0,72,0.00,,,0.00,VWS V14.00,2013-10-27 17:58:00,
2013-10-27 13:59:00,49.2,40.6,30.02,SSE,155,0.0,4.0,72,0.00,,,0.00,VWS V14.00,2013-10-27 17:59:00,
2013-10-27 14:00:00,49.6,41.0,30.01,SSE,155,0.0,5.0,72,0.00,,,0.00,VWS V14.00,2013-10-27 18:00:00,
2013-10-27 14:01:00,49.7,40.7,30.01,SSE,155,0.0,0.0,71,0.00,,,0.00,VWS V14.00,2013-10-27 18:01:00,
2013-10-27 14:02:00,49.7,40.7,30.01,SSE,155,0.0,0.0,71,0.00,,,0.00,VWS V14.00,2013-10-27 18:02:00,
2013-10-27 14:03:00,49.7,40.3,30.01,SSE,155,0.0,1.0,70,0.00,,,0.00,VWS V14.00,2013-10-27 18:03:00,
2013-10-27 14:04:00,49.4,40.8,30.02,SSE,155,0.0,5.0,72,0.00,,,0.00,VWS V14.00,2013-10-27 18:04:00,
2013-10-27 14:05:00,49.8,40.8,30.01,SSE,155,0.0,2.0,71,0.00,,,0.00,VWS V14.00,2013-10-27 18:05:00,
2013-10-27 14:06:00,49.8,40.4,30.01,SSE,155,2.0,4.0,70,0.00,,,0.00,VWS V14.00,2013-10-27 18:06:00,
2013-10-27 14:07:00,49.8,40.0,30.01,SSE,155,0.0,4.0,69,0.00,,,0.00,VWS V14.00,2013-10-27 18:07:00,
2013-10-27 14:08:00,49.8,40.0,30.01,SSE,155,0.0,4.0,69,0.00,,,0.00,VWS V14.00,2013-10-27 18:08:00,
2013-10-27 14:09:00,49.6,41.0,30.01,SSE,155,0.0,5.0,72,0.00,,,0.00,VWS V14.00,2013-10-27 18:09:00,
2013-10-27 14:10:00,49.9,40.2,30.01,SSE,155,0.0,4.0,69,0.00,,,0.00,VWS V14.00,2013-10-27 18:10:00,
2013-10-27 14:11:00,49.9,39.8,30.01,SSE,155,1.0,4.0,68,0.00,,,0.00,VWS V14.00,2013-10-27 18:11:00,
2013-10-27 14:12:00,49.9,39.8,30.01,SSE,155,0.0,4.0,68,0.00,,,0.00,VWS V14.00,2013-10-27 18:12:00,
2013-10-27 14:13:00,50.0,39.9,30.01,SSE,155,3.0,4.0,68,0.00,,,0.00,VWS V14.00,2013-10-27 18:13:00,
2013-10-27 14:14:00,49.7,40.7,30.01,SSE,155,0.0,1.0,71,0.00,,,0.00,VWS V14.00,2013-10-27 18:14:00,
2013-10-27 14:15:00,50.1,40.0,30.01,SSE,155,0.0,4.0,68,0.00,,,0.00,VWS V14.00,2013-10-27 18:15:00,
2013-10-27 14:16:00,50.1,40.0,30.01,SSE,155,1.0,4.0,68,0.00,,,0.00,VWS V14.00,2013-10-27 18:16:00,
2013-10-27 14:17:00,50.1,39.6,30.01,SSE,155,3.0,5.0,67,0.00,,,0.00,VWS V14.00,2013-10-27 18:17:00,
2013-10-27 14:18:00,50.2,39.3,30.01,SSE,156,0.0,5.0,66,0.00,,,0.00,VWS V14.00,2013-10-27 18:18:00,
2013-10-27 14:19:00,49.9,40.5,30.01,SSE,155,0.0,4.0,70,0.00,,,0.00,VWS V14.00,2013-10-27 18:19:00,
2013-10-27 14:20:00,50.3,39.4,30.01,SSE,156,0.0,5.0,66,0.00,,,0.00,VWS V14.00,2013-10-27 18:20:00,
2013-10-27 14:21:00,50.3,39.8,30.01,SSE,156,0.0,5.0,67,0.00,,,0.00,VWS V14.00,2013-10-27 18:21:00,
2013-10-27 14:22:00,50.3,39.4,30.01,SSE,156,0.0,5.0,66,0.00,,,0.00,VWS V14.00,2013-10-27 18:22:00,
2013-10-27 14:23:00,50.3,39.4,30.01,SSE,156,1.0,5.0,66,0.00,,,0.00,VWS V14.00,2013-10-27 18:23:00,
2013-10-27 14:24:00,50.0,39.9,30.01,SSE,155,0.0,4.0,68,0.00,,,0.00,VWS V14.00,2013-10-27 18:24:00,
2013-10-27 14:25:00,50.4,39.1,30.01,SSE,156,2.0,5.0,65,0.00,,,0.00,VWS V14.00,2013-10-27 18:25:00,
2013-10-27 14:26:00,50.4,39.1,30.01,SSE,156,4.0,5.0,65,0.00,,,0.00,VWS V14.00,2013-10-27 18:26:00,
2013-10-27 14:27:00,50.4,39.1,30.01,SSE,156,5.0,6.0,65,0.00,,,0.00,VWS V14.00,2013-10-27 18:27:00,
2013-10-27 14:28:00,50.4,39.1,30.01,South,178,5.0,9.0,65,0.00,,,0.00,VWS V14.00,2013-10-27 18:28:00,
2013-10-27 14:29:00,50.2,39.3,30.01,SSE,156,0.0,5.0,66,0.00,,,0.00,VWS V14.00,2013-10-27 18:29:00,
2013-10-27 14:30:00,50.4,38.7,30.01,WSW,238,5.0,10.0,64,0.00,,,0.00,VWS V14.00,2013-10-27 18:30:00,
2013-10-27 14:31:00,50.4,38.7,30.00,WSW,240,6.0,6.0,64,0.00,,,0.00,VWS V14.00,2013-10-27 18:31:00,
2013-10-27 14:32:00,50.4,38.7,30.00,WSW,241,4.0,6.0,64,0.00,,,0.00,VWS V14.00,2013-10-27 18:32:00,
2013-10-27 14:33:00,50.4,38.3,30.00,WSW,240,4.0,6.0,63,0.00,,,0.00,VWS V14.00,2013-10-27 18:33:00,
2013-10-27 14:34:00,50.4,39.5,30.01,SSE,156,3.0,5.0,66,0.00,,,0.00,VWS V14.00,2013-10-27 18:34:00,
2013-10-27 14:35:00,50.4,38.3,30.00,WSW,238,6.0,9.0,63,0.00,,,0.00,VWS V14.00,2013-10-27 18:35:00,
2013-10-27 14:36:00,50.5,38.4,30.00,WSW,238,4.0,9.0,63,0.00,,,0.00,VWS V14.00,2013-10-27 18:36:00,
2013-10-27 14:37:00,50.5,38.4,30.00,WSW,238,2.0,9.0,63,0.00,,,0.00,VWS V14.00,2013-10-27 18:37:00,
2013-10-27 14:38:00,50.5,38.8,30.00,WSW,238,3.0,9.0,64,0.00,,,0.00,VWS V14.00,2013-10-27 18:38:00,
2013-10-27 14:39:00,50.4,38.7,30.00,SW,235,2.0,10.0,64,0.00,,,0.00,VWS V14.00,2013-10-27 18:39:00,
2013-10-27 14:40:00,50.6,38.5,30.00,WSW,239,3.0,9.0,63,0.00,,,0.00,VWS V14.00,2013-10-27 18:40:00,
2013-10-27 14:41:00,50.7,38.6,30.00,WSW,239,3.0,9.0,63,0.00,,,0.00,VWS V14.00,2013-10-27 18:41:00,
2013-10-27 14:42:00,50.8,39.1,30.00,WSW,239,2.0,9.0,64,0.00,,,0.00,VWS V14.00,2013-10-27 18:42:00,
2013-10-27 14:43:00,50.9,39.2,30.00,WSW,238,0.0,9.0,64,0.00,,,0.00,VWS V14.00,2013-10-27 18:43:00,
2013-10-27 14:44:00,50.4,38.3,30.00,WSW,240,7.0,7.0,63,0.00,,,0.00,VWS V14.00,2013-10-27 18:44:00,
2013-10-27 14:45:00,51.0,39.7,30.00,WSW,238,2.0,9.0,65,0.00,,,0.00,VWS V14.00,2013-10-27 18:45:00,
2013-10-27 14:46:00,51.1,39.8,30.00,WSW,239,5.0,9.0,65,0.00,,,0.00,VWS V14.00,2013-10-27 18:46:00,
2013-10-27 14:47:00,51.2,39.5,30.00,WSW,238,1.0,9.0,64,0.00,,,0.00,VWS V14.00,2013-10-27 18:47:00,
2013-10-27 14:48:00,51.2,39.0,30.00,WSW,238,3.0,9.0,63,0.00,,,0.00,VWS V14.00,2013-10-27 18:48:00,
2013-10-27 14:49:00,50.6,38.9,30.00,WSW,238,2.0,9.0,64,0.00,,,0.00,VWS V14.00,2013-10-27 18:49:00,
2013-10-27 14:50:00,51.4,39.2,30.00,WSW,238,2.0,9.0,63,0.00,,,0.00,VWS V14.00,2013-10-27 18:50:00,
2013-10-27 14:51:00,51.4,39.7,29.99,WSW,237,3.0,9.0,64,0.00,,,0.00,VWS V14.00,2013-10-27 18:51:00,
2013-10-27 14:52:00,51.4,39.7,30.00,WSW,238,3.0,9.0,64,0.00,,,0.00,VWS V14.00,2013-10-27 18:52:00,
2013-10-27 14:53:00,51.5,39.7,29.99,WSW,238,5.0,9.0,64,0.00,,,0.00,VWS V14.00,2013-10-27 18:53:00,
2013-10-27 14:54:00,50.9,39.2,30.00,WSW,239,0.0,9.0,64,0.00,,,0.00,VWS V14.00,2013-10-27 18:54:00,
2013-10-27 14:55:00,51.6,39.8,29.99,SW,234,4.0,9.0,64,0.00,,,0.00,VWS V14.00,2013-10-27 18:55:00,
2013-10-27 14:56:00,51.6,39.4,29.99,SW,234,3.0,9.0,63,0.00,,,0.00,VWS V14.00,2013-10-27 18:56:00,
2013-10-27 14:57:00,51.6,39.8,29.99,SW,233,1.0,9.0,64,0.00,,,0.00,VWS V14.00,2013-10-27 18:57:00,
2013-10-27 14:58:00,51.7,39.9,29.99,SW,233,3.0,9.0,64,0.00,,,0.00,VWS V14.00,2013-10-27 18:58:00,
2013-10-27 14:59:00,51.3,39.5,30.00,WSW,238,2.0,9.0,64,0.00,,,0.00,VWS V14.00,2013-10-27 18:59:00,
2013-10-27 15:00:00,51.9,40.1,29.99,SW,233,2.0,9.0,64,0.00,,,0.00,VWS V14.00,2013-10-27 19:00:00,
2013-10-27 15:01:00,52.0,40.6,29.99,SW,230,2.0,4.0,65,0.00,,,0.00,VWS V14.00,2013-10-27 19:01:00,
2013-10-27 15:02:00,52.0,40.2,29.99,SW,230,1.0,4.0,64,0.00,,,0.00,VWS V14.00,2013-10-27 19:02:00,
2013-10-27 15:03:00,52.1,39.9,29.99,SW,224,1.0,4.0,63,0.00,,,0.00,VWS V14.00,2013-10-27 19:03:00,
2013-10-27 15:04:00,51.5,39.3,29.99,WSW,237,3.0,9.0,63,0.00,,,0.00,VWS V14.00,2013-10-27 19:04:00,
2013-10-27 15:05:00,52.1,39.9,29.99,SW,225,1.0,5.0,63,0.00,,,0.00,VWS V14.00,2013-10-27 19:05:00,
2013-10-27 15:06:00,52.1,40.3,29.99,SW,225,1.0,5.0,64,0.00,,,0.00,VWS V14.00,2013-10-27 19:06:00,
2013-10-27 15:07:00,52.1,40.3,29.99,SW,225,2.0,5.0,64,0.00,,,0.00,VWS V14.00,2013-10-27 19:07:00,
2013-10-27 15:08:00,52.1,40.3,29.99,SW,225,1.0,5.0,64,0.00,,,0.00,VWS V14.00,2013-10-27 19:08:00,
2013-10-27 15:09:00,51.8,40.0,29.99,SW,233,2.0,9.0,64,0.00,,,0.00,VWS V14.00,2013-10-27 19:09:00,
2013-10-27 15:10:00,52.0,39.8,29.99,South,191,0.0,6.0,63,0.00,,,0.00,VWS V14.00,2013-10-27 19:10:00,
2013-10-27 15:11:00,51.9,40.1,29.99,SSW,195,3.0,6.0,64,0.00,,,0.00,VWS V14.00,2013-10-27 19:11:00,
2013-10-27 15:12:00,51.9,39.7,29.99,SSW,196,5.0,7.0,63,0.00,,,0.00,VWS V14.00,2013-10-27 19:12:00,
2013-10-27 15:13:00,51.9,39.3,29.99,SSW,200,3.0,7.0,62,0.00,,,0.00,VWS V14.00,2013-10-27 19:13:00,
2013-10-27 15:14:00,52.1,40.3,29.99,SW,227,5.0,5.0,64,0.00,,,0.00,VWS V14.00,2013-10-27 19:14:00,
2013-10-27 15:15:00,52.0,39.8,29.99,SSW,200,4.0,7.0,63,0.00,,,0.00,VWS V14.00,2013-10-27 19:15:00,
2013-10-27 15:16:00,52.0,39.8,29.99,SSW,200,4.0,7.0,63,0.00,,,0.00,VWS V14.00,2013-10-27 19:16:00,
2013-10-27 15:17:00,52.0,39.8,29.99,SSW,199,3.0,7.0,63,0.00,,,0.00,VWS V14.00,2013-10-27 19:17:00,
2013-10-27 15:18:00,51.9,39.7,29.99,SSW,199,2.0,7.0,63,0.00,,,0.00,VWS V14.00,2013-10-27 19:18:00,
2013-10-27 15:19:00,52.0,40.2,29.99,SSW,194,6.0,6.0,64,0.00,,,0.00,VWS V14.00,2013-10-27 19:19:00,
2013-10-27 15:20:00,51.9,40.1,29.99,SSW,199,0.0,7.0,64,0.00,,,0.00,VWS V14.00,2013-10-27 19:20:00,
2013-10-27 15:21:00,51.9,40.1,29.99,SSW,199,0.0,7.0,64,0.00,,,0.00,VWS V14.00,2013-10-27 19:21:00,
2013-10-27 15:22:00,51.8,40.0,29.99,SSW,199,1.0,7.0,64,0.00,,,0.00,VWS V14.00,2013-10-27 19:22:00,
2013-10-27 15:23:00,51.9,40.1,29.99,SSW,199,1.0,7.0,64,0.00,,,0.00,VWS V14.00,2013-10-27 19:23:00,
2013-10-27 15:24:00,51.9,39.7,29.99,SSW,200,2.0,7.0,63,0.00,,,0.00,VWS V14.00,2013-10-27 19:24:00,
2013-10-27 15:25:00,51.9,40.1,29.99,SSW,198,2.0,7.0,64,0.00,,,0.00,VWS V14.00,2013-10-27 19:25:00,
2013-10-27 15:26:00,52.0,40.2,29.99,SSW,198,1.0,7.0,64,0.00,,,0.00,VWS V14.00,2013-10-27 19:26:00,
2013-10-27 15:27:00,52.1,40.7,29.99,SSW,205,2.0,7.0,65,0.00,,,0.00,VWS V14.00,2013-10-27 19:27:00,
2013-10-27 15:28:00,52.2,40.4,29.99,SSW,205,3.0,7.0,64,0.00,,,0.00,VWS V14.00,2013-10-27 19:28:00,
2013-10-27 15:29:00,51.9,40.1,29.99,SSW,199,0.0,7.0,64,0.00,,,0.00,VWS V14.00,2013-10-27 19:29:00,
2013-10-27 15:30:00,52.5,41.1,29.99,SSW,207,4.0,7.0,65,0.00,,,0.00,VWS V14.00,2013-10-27 19:30:00,
2013-10-27 15:31:00,52.6,40.4,29.99,SW,230,2.0,9.0,63,0.00,,,0.00,VWS V14.00,2013-10-27 19:31:00,
2013-10-27 15:32:00,52.7,40.9,29.99,SW,227,3.0,9.0,64,0.00,,,0.00,VWS V14.00,2013-10-27 19:32:00,
2013-10-27 15:33:00,52.8,40.6,29.99,WSW,237,4.0,10.0,63,0.00,,,0.00,VWS V14.00,2013-10-27 19:33:00,
2013-10-27 15:34:00,51.9,40.1,29.99,SSW,198,5.0,7.0,64,0.00,,,0.00,VWS V14.00,2013-10-27 19:34:00,
2013-10-27 15:35:00,52.9,40.2,29.99,SW,230,2.0,10.0,62,0.00,,,0.00,VWS V14.00,2013-10-27 19:35:00,
2013-10-27 15:36:00,52.9,40.2,29.99,SW,219,3.0,10.0,62,0.00,,,0.00,VWS V14.00,2013-10-27 19:36:00,
2013-10-27 15:37:00,52.9,40.2,29.99,SW,218,2.0,10.0,62,0.00,,,0.00,VWS V14.00,2013-10-27 19:37:00,
2013-10-27 15:38:00,52.9,40.2,29.99,SW,226,5.0,10.0,62,0.00,,,0.00,VWS V14.00,2013-10-27 19:38:00,
2013-10-27 15:39:00,52.4,40.6,29.99,SSW,205,1.0,7.0,64,0.00,,,0.00,VWS V14.00,2013-10-27 19:39:00,
2013-10-27 15:40:00,52.8,39.7,29.99,SW,216,3.0,10.0,61,0.00,,,0.00,VWS V14.00,2013-10-27 19:40:00,
2013-10-27 15:41:00,52.7,39.6,29.99,SW,221,2.0,10.0,61,0.00,,,0.00,VWS V14.00,2013-10-27 19:41:00,
2013-10-27 15:42:00,52.6,39.5,29.99,SW,221,3.0,10.0,61,0.00,,,0.00,VWS V14.00,2013-10-27 19:42:00,
2013-10-27 15:43:00,52.5,39.5,29.99,SW,220,1.0,10.0,61,0.00,,,0.00,VWS V14.00,2013-10-27 19:43:00,
2013-10-27 15:44:00,52.8,40.6,29.99,WSW,237,5.0,10.0,63,0.00,,,0.00,VWS V14.00,2013-10-27 19:44:00,
2013-10-27 15:45:00,52.4,40.2,29.99,SW,219,0.0,10.0,63,0.00,,,0.00,VWS V14.00,2013-10-27 19:45:00,
2013-10-27 15:46:00,52.4,40.6,29.99,SW,218,4.0,10.0,64,0.00,,,0.00,VWS V14.00,2013-10-27 19:46:00,
2013-10-27 15:47:00,52.4,41.0,29.99,SSW,194,2.0,10.0,65,0.00,,,0.00,VWS V14.00,2013-10-27 19:47:00,
2013-10-27 15:48:00,52.4,41.0,29.99,SE,142,2.0,10.0,65,0.00,,,0.00,VWS V14.00,2013-10-27 19:48:00,
2013-10-27 15:49:00,52.9,39.8,29.99,SW,215,3.0,10.0,61,0.00,,,0.00,VWS V14.00,2013-10-27 19:49:00,
2013-10-27 15:50:00,52.4,41.8,29.99,SE,142,0.0,10.0,67,0.00,,,0.00,VWS V14.00,2013-10-27 19:50:00,
2013-10-27 15:51:00,52.4,41.8,29.99,SE,142,0.0,10.0,67,0.00,,,0.00,VWS V14.00,2013-10-27 19:51:00,
2013-10-27 15:52:00,52.4,41.8,29.99,SE,144,4.0,10.0,67,0.00,,,0.00,VWS V14.00,2013-10-27 19:52:00,
2013-10-27 15:53:00,52.3,41.7,29.99,SE,144,0.0,10.0,67,0.00,,,0.00,VWS V14.00,2013-10-27 19:53:00,
2013-10-27 15:54:00,52.4,39.8,29.99,SW,219,0.0,10.0,62,0.00,,,0.00,VWS V14.00,2013-10-27 19:54:00,
2013-10-27 15:55:00,52.2,41.2,29.99,SSE,163,2.0,10.0,66,0.00,,,0.00,VWS V14.00,2013-10-27 19:55:00,
2013-10-27 15:56:00,52.1,41.1,29.99,SSE,163,1.0,10.0,66,0.00,,,0.00,VWS V14.00,2013-10-27 19:56:00,
2013-10-27 15:57:00,52.1,41.5,29.99,SSE,163,2.0,10.0,67,0.00,,,0.00,VWS V14.00,2013-10-27 19:57:00,
2013-10-27 15:58:00,52.0,41.4,29.99,SSE,163,3.0,10.0,67,0.00,,,0.00,VWS V14.00,2013-10-27 19:58:00,
2013-10-27 15:59:00,52.4,41.4,29.99,SE,141,0.0,10.0,66,0.00,,,0.00,VWS V14.00,2013-10-27 19:59:00,
2013-10-27 16:00:00,51.9,41.3,29.99,SSE,164,2.0,10.0,67,0.00,,,0.00,VWS V14.00,2013-10-27 20:00:00,
2013-10-27 16:01:00,51.9,41.3,29.99,SSE,163,3.0,3.0,67,0.00,,,0.00,VWS V14.00,2013-10-27 20:01:00,
2013-10-27 16:02:00,51.9,40.9,29.99,SSE,165,4.0,5.0,66,0.00,,,0.00,VWS V14.00,2013-10-27 20:02:00,
2013-10-27 16:03:00,51.9,41.3,29.99,SSE,165,1.0,5.0,67,0.00,,,0.00,VWS V14.00,2013-10-27 20:03:00,
2013-10-27 16:04:00,52.3,41.3,29.99,SSE,161,2.0,10.0,66,0.00,,,0.00,VWS V14.00,2013-10-27 20:04:00,
2013-10-27 16:05:00,52.1,41.5,29.99,SSE,165,2.0,5.0,67,0.00,,,0.00,VWS V14.00,2013-10-27 20:05:00,
2013-10-27 16:06:00,52.2,41.6,29.99,SSE,165,2.0,5.0,67,0.00,,,0.00,VWS V14.00,2013-10-27 20:06:00,
2013-10-27 16:07:00,52.4,41.8,29.99,SSE,165,1.0,5.0,67,0.00,,,0.00,VWS V14.00,2013-10-27 20:07:00,
2013-10-27 16:08:00,52.5,41.9,29.99,SSE,165,2.0,5.0,67,0.00,,,0.00,VWS V14.00,2013-10-27 20:08:00,
2013-10-27 16:09:00,51.9,40.9,29.99,SSE,164,2.0,10.0,66,0.00,,,0.00,VWS V14.00,2013-10-27 20:09:00,
2013-10-27 16:10:00,52.9,41.9,29.99,South,171,3.0,7.0,66,0.00,,,0.00,VWS V14.00,2013-10-27 20:10:00,
2013-10-27 16:11:00,53.0,42.0,29.99,South,171,1.0,9.0,66,0.00,,,0.00,VWS V14.00,2013-10-27 20:11:00,
2013-10-27 16:12:00,53.2,42.5,29.99,South,169,3.0,9.0,67,0.00,,,0.00,VWS V14.00,2013-10-27 20:12:00,
2013-10-27 16:13:00,53.3,42.2,29.99,SSE,168,2.0,9.0,66,0.00,,,0.00,VWS V14.00,2013-10-27 20:13:00,
2013-10-27 16:14:00,52.0,41.4,29.99,SSE,165,1.0,5.0,67,0.00,,,0.00,VWS V14.00,2013-10-27 20:14:00,
2013-10-27 16:15:00,53.4,42.7,29.99,South,172,1.0,9.0,67,0.00,,,0.00,VWS V14.00,2013-10-27 20:15:00,
2013-10-27 16:16:00,53.5,42.8,29.99,South,172,0.0,9.0,67,0.00,,,0.00,VWS V14.00,2013-10-27 20:16:00,
2013-10-27 16:17:00,53.5,43.2,29.99,South,175,3.0,9.0,68,0.00,,,0.00,VWS V14.00,2013-10-27 20:17:00,
2013-10-27 16:18:00,53.5,42.4,29.99,South,175,2.0,9.0,66,0.00,,,0.00,VWS V14.00,2013-10-27 20:18:00,
2013-10-27 16:19:00,52.7,42.1,29.99,SSE,165,1.0,5.0,67,0.00,,,0.00,VWS V14.00,2013-10-27 20:19:00,
2013-10-27 16:20:00,53.5,42.8,29.99,South,179,0.0,9.0,67,0.00,,,0.00,VWS V14.00,2013-10-27 20:20:00,
2013-10-27 16:21:00,53.5,42.8,29.99,SSE,164,3.0,9.0,67,0.00,,,0.00,VWS V14.00,2013-10-27 20:21:00,
2013-10-27 16:22:00,53.5,42.4,29.99,SSE,164,0.0,9.0,66,0.00,,,0.00,VWS V14.00,2013-10-27 20:22:00,
2013-10-27 16:23:00,53.5,42.0,29.99,SSE,164,1.0,9.0,65,0.00,,,0.00,VWS V14.00,2013-10-27 20:23:00,
2013-10-27 16:24:00,53.3,42.2,29.99,South,172,0.0,9.0,66,0.00,,,0.00,VWS V14.00,2013-10-27 20:24:00,
2013-10-27 16:25:00,53.4,41.9,29.99,SSE,164,1.0,9.0,65,0.00,,,0.00,VWS V14.00,2013-10-27 20:25:00,
2013-10-27 16:26:00,53.3,41.8,29.99,South,179,4.0,9.0,65,0.00,,,0.00,VWS V14.00,2013-10-27 20:26:00,
2013-10-27 16:27:00,53.2,41.3,29.99,South,178,2.0,9.0,64,0.00,,,0.00,VWS V14.00,2013-10-27 20:27:00,
2013-10-27 16:28:00,53.0,41.6,29.99,South,181,3.0,9.0,65,0.00,,,0.00,VWS V14.00,2013-10-27 20:28:00,
2013-10-27 16:29:00,53.5,42.4,29.99,South,179,0.0,9.0,66,0.00,,,0.00,VWS V14.00,2013-10-27 20:29:00,
2013-10-27 16:30:00,52.7,41.3,29.99,South,180,2.0,9.0,65,0.00,,,0.00,VWS V14.00,2013-10-27 20:30:00,
2013-10-27 16:31:00,52.5,41.5,29.99,South,179,0.0,2.0,66,0.00,,,0.00,VWS V14.00,2013-10-27 20:31:00,
2013-10-27 16:32:00,52.4,41.4,29.99,South,179,0.0,2.0,66,0.00,,,0.00,VWS V14.00,2013-10-27 20:32:00,
2013-10-27 16:33:00,52.3,41.3,29.99,South,179,0.0,2.0,66,0.00,,,0.00,VWS V14.00,2013-10-27 20:33:00,
2013-10-27 16:34:00,53.4,41.9,29.99,SSE,164,2.0,9.0,65,0.00,,,0.00,VWS V14.00,2013-10-27 20:34:00,
2013-10-27 16:35:00,52.2,41.6,29.99,South,179,0.0,3.0,67,0.00,,,0.00,VWS V14.00,2013-10-27 20:35:00,
2013-10-27 16:36:00,52.2,41.2,29.99,South,179,1.0,3.0,66,0.00,,,0.00,VWS V14.00,2013-10-27 20:36:00,
2013-10-27 16:37:00,52.2,41.6,29.99,South,180,2.0,4.0,67,0.00,,,0.00,VWS V14.00,2013-10-27 20:37:00,
2013-10-27 16:38:00,52.3,41.3,29.99,South,180,2.0,4.0,66,0.00,,,0.00,VWS V14.00,2013-10-27 20:38:00,
2013-10-27 16:39:00,52.9,41.5,29.99,South,180,3.0,9.0,65,0.00,,,0.00,VWS V14.00,2013-10-27 20:39:00,
2013-10-27 16:40:00,52.4,41.4,29.99,South,179,2.0,4.0,66,0.00,,,0.00,VWS V14.00,2013-10-27 20:40:00,
2013-10-27 16:41:00,52.5,41.5,29.99,South,179,0.0,4.0,66,0.00,,,0.00,VWS V14.00,2013-10-27 20:41:00,
2013-10-27 16:42:00,52.6,41.6,29.99,South,179,0.0,4.0,66,0.00,,,0.00,VWS V14.00,2013-10-27 20:42:00,
2013-10-27 16:43:00,52.8,41.8,29.99,South,174,4.0,4.0,66,0.00,,,0.00,VWS V14.00,2013-10-27 20:43:00,
2013-10-27 16:44:00,52.3,41.7,29.99,South,179,1.0,2.0,67,0.00,,,0.00,VWS V14.00,2013-10-27 20:44:00,
2013-10-27 16:45:00,53.1,42.5,29.99,South,174,0.0,4.0,67,0.00,,,0.00,VWS V14.00,2013-10-27 20:45:00,
2013-10-27 16:46:00,53.2,42.5,29.99,South,173,2.0,4.0,67,0.00,,,0.00,VWS V14.00,2013-10-27 20:46:00,
2013-10-27 16:47:00,53.3,41.8,29.99,South,182,5.0,6.0,65,0.00,,,0.00,VWS V14.00,2013-10-27 20:47:00,
2013-10-27 16:48:00,53.4,41.9,29.99,SW,234,9.0,9.0,65,0.00,,,0.00,VWS V14.00,2013-10-27 20:48:00,
2013-10-27 16:49:00,52.3,41.3,29.99,South,179,0.0,4.0,66,0.00,,,0.00,VWS V14.00,2013-10-27 20:49:00,
2013-10-27 16:50:00,53.5,41.2,29.99,SSW,211,2.0,9.0,63,0.00,,,0.00,VWS V14.00,2013-10-27 20:50:00,
2013-10-27 16:51:00,53.6,41.3,29.99,SSW,210,0.0,9.0,63,0.00,,,0.00,VWS V14.00,2013-10-27 20:51:00,
2013-10-27 16:52:00,53.6,41.3,29.99,SSW,213,2.0,9.0,63,0.00,,,0.00,VWS V14.00,2013-10-27 20:52:00,
2013-10-27 16:53:00,53.7,41.4,29.99,SW,223,1.0,9.0,63,0.00,,,0.00,VWS V14.00,2013-10-27 20:53:00,
2013-10-27 16:54:00,52.9,42.3,29.99,South,174,0.0,4.0,67,0.00,,,0.00,VWS V14.00,2013-10-27 20:54:00,
2013-10-27 16:55:00,53.7,41.8,29.99,SW,223,1.0,9.0,64,0.00,,,0.00,VWS V14.00,2013-10-27 20:55:00,
2013-10-27 16:56:00,53.7,41.8,29.99,SW,223,3.0,9.0,64,0.00,,,0.00,VWS V14.00,2013-10-27 20:56:00,
2013-10-27 16:57:00,53.7,41.8,29.99,SW,219,3.0,9.0,64,0.00,,,0.00,VWS V14.00,2013-10-27 20:57:00,
2013-10-27 16:58:00,53.7,41.8,29.99,SW,219,2.0,9.0,64,0.00,,,0.00,VWS V14.00,2013-10-27 20:58:00,
2013-10-27 16:59:00,53.5,41.2,29.99,SW,230,1.0,9.0,63,0.00,,,0.00,VWS V14.00,2013-10-27 20:59:00,
2013-10-27 17:00:00,53.5,41.6,29.99,SW,219,3.0,9.0,64,0.00,,,0.00,VWS V14.00,2013-10-27 21:00:00,
2013-10-27 17:01:00,53.4,41.5,29.99,SW,217,2.0,7.0,64,0.00,,,0.00,VWS V14.00,2013-10-27 21:01:00,
2013-10-27 17:02:00,53.3,41.0,29.99,SW,218,3.0,7.0,63,0.00,,,0.00,VWS V14.00,2013-10-27 21:02:00,
2013-10-27 17:03:00,53.1,40.8,29.99,SW,219,1.0,7.0,63,0.00,,,0.00,VWS V14.00,2013-10-27 21:03:00,
2013-10-27 17:04:00,53.7,41.8,29.99,SW,223,0.0,9.0,64,0.00,,,0.00,VWS V14.00,2013-10-27 21:04:00,
2013-10-27 17:05:00,52.9,41.1,29.99,SW,218,2.0,7.0,64,0.00,,,0.00,VWS V14.00,2013-10-27 21:05:00,
2013-10-27 17:06:00,52.8,41.0,29.99,SW,218,1.0,7.0,64,0.00,,,0.00,VWS V14.00,2013-10-27 21:06:00,
2013-10-27 17:07:00,52.8,41.4,29.99,SW,218,0.0,7.0,65,0.00,,,0.00,VWS V14.00,2013-10-27 21:07:00,
2013-10-27 17:08:00,52.7,41.3,29.99,SW,218,0.0,7.0,65,0.00,,,0.00,VWS V14.00,2013-10-27 21:08:00,
2013-10-27 17:09:00,53.6,41.7,29.99,SW,219,2.0,9.0,64,0.00,,,0.00,VWS V14.00,2013-10-27 21:09:00,
2013-10-27 17:10:00,52.6,41.6,29.99,SW,217,2.0,7.0,66,0.00,,,0.00,VWS V14.00,2013-10-27 21:10:00,
2013-10-27 17:11:00,52.6,42.0,29.99,SW,217,3.0,7.0,67,0.00,,,0.00,VWS V14.00,2013-10-27 21:11:00,
2013-10-27 17:12:00,52.6,42.0,29.99,SW,216,4.0,7.0,67,0.00,,,0.00,VWS V14.00,2013-10-27 21:12:00,
2013-10-27 17:13:00,52.5,41.9,29.99,SW,216,1.0,7.0,67,0.00,,,0.00,VWS V14.00,2013-10-27 21:13:00,
2013-10-27 17:14:00,53.0,40.3,29.99,SW,219,1.0,7.0,62,0.00,,,0.00,VWS V14.00,2013-10-27 21:14:00,
2013-10-27 17:15:00,52.4,42.2,29.99,SW,216,0.0,7.0,68,0.00,,,0.00,VWS V14.00,2013-10-27 21:15:00,
2013-10-27 17:16:00,52.4,42.2,29.99,SW,215,0.0,7.0,68,0.00,,,0.00,VWS V14.00,2013-10-27 21:16:00,
2013-10-27 17:17:00,52.4,42.2,29.99,SW,215,2.0,7.0,68,0.00,,,0.00,VWS V14.00,2013-10-27 21:17:00,
2013-10-27 17:18:00,52.4,42.5,29.99,SW,215,0.0,7.0,69,0.00,,,0.00,VWS V14.00,2013-10-27 21:18:00,
2013-10-27 17:19:00,52.7,41.7,29.99,SW,218,0.0,7.0,66,0.00,,,0.00,VWS V14.00,2013-10-27 21:19:00,
2013-10-27 17:20:00,52.3,42.5,29.99,SW,215,0.0,7.0,69,0.00,,,0.00,VWS V14.00,2013-10-27 21:20:00,
2013-10-27 17:21:00,52.3,42.5,29.99,SW,215,1.0,7.0,69,0.00,,,0.00,VWS V14.00,2013-10-27 21:21:00,
2013-10-27 17:22:00,52.3,42.1,29.99,SW,215,5.0,7.0,68,0.00,,,0.00,VWS V14.00,2013-10-27 21:22:00,
2013-10-27 17:23:00,52.3,41.7,29.99,SW,216,0.0,7.0,67,0.00,,,0.00,VWS V14.00,2013-10-27 21:23:00,
2013-10-27 17:24:00,52.4,42.2,29.99,SW,216,4.0,7.0,68,0.00,,,0.00,VWS V14.00,2013-10-27 21:24:00,
2013-10-27 17:25:00,52.2,41.2,29.99,SW,215,1.0,7.0,66,0.00,,,0.00,VWS V14.00,2013-10-27 21:25:00,
2013-10-27 17:26:00,52.2,41.2,29.98,SW,215,3.0,7.0,66,0.00,,,0.00,VWS V14.00,2013-10-27 21:26:00,
2013-10-27 17:27:00,52.1,41.1,29.98,SW,215,1.0,7.0,66,0.00,,,0.00,VWS V14.00,2013-10-27 21:27:00,
2013-10-27 17:28:00,52.0,40.6,29.99,SW,214,4.0,7.0,65,0.00,,,0.00,VWS V14.00,2013-10-27 21:28:00,
2013-10-27 17:29:00,52.3,42.5,29.99,SW,215,0.0,7.0,69,0.00,,,0.00,VWS V14.00,2013-10-27 21:29:00,
2013-10-27 17:30:00,51.9,40.1,29.99,SW,214,4.0,7.0,64,0.00,,,0.00,VWS V14.00,2013-10-27 21:30:00,
2013-10-27 17:31:00,51.8,40.0,29.98,SW,215,2.0,4.0,64,0.00,,,0.00,VWS V14.00,2013-10-27 21:31:00,
2013-10-27 17:32:00,51.7,39.9,29.98,SW,216,1.0,5.0,64,0.00,,,0.00,VWS V14.00,2013-10-27 21:32:00,
2013-10-27 17:33:00,51.6,39.8,29.98,SW,215,1.0,5.0,64,0.00,,,0.00,VWS V14.00,2013-10-27 21:33:00,
2013-10-27 17:34:00,52.3,41.7,29.99,SW,215,2.0,7.0,67,0.00,,,0.00,VWS V14.00,2013-10-27 21:34:00,
2013-10-27 17:35:00,51.5,40.1,29.98,SW,214,1.0,5.0,65,0.00,,,0.00,VWS V14.00,2013-10-27 21:35:00,
2013-10-27 17:36:00,51.4,40.0,29.98,SW,215,0.0,5.0,65,0.00,,,0.00,VWS V14.00,2013-10-27 21:36:00,
2013-10-27 17:37:00,51.3,40.3,29.98,SW,215,4.0,6.0,66,0.00,,,0.00,VWS V14.00,2013-10-27 21:37:00,
2013-10-27 17:38:00,51.3,40.3,29.98,SW,215,2.0,6.0,66,0.00,,,0.00,VWS V14.00,2013-10-27 21:38:00,
2013-10-27 17:39:00,51.9,40.1,29.98,SW,215,5.0,7.0,64,0.00,,,0.00,VWS V14.00,2013-10-27 21:39:00,
2013-10-27 17:40:00,51.2,40.2,29.98,SW,217,3.0,6.0,66,0.00,,,0.00,VWS V14.00,2013-10-27 21:40:00,
2013-10-27 17:41:00,51.1,40.5,29.98,SW,217,2.0,6.0,67,0.00,,,0.00,VWS V14.00,2013-10-27 21:41:00,
2013-10-27 17:42:00,51.1,40.5,29.98,SW,223,5.0,6.0,67,0.00,,,0.00,VWS V14.00,2013-10-27 21:42:00,
2013-10-27 17:43:00,51.0,40.4,29.98,SW,223,0.0,6.0,67,0.00,,,0.00,VWS V14.00,2013-10-27 21:43:00,
2013-10-27 17:44:00,51.5,40.1,29.98,SW,216,4.0,5.0,65,0.00,,,0.00,VWS V14.00,2013-10-27 21:44:00,
2013-10-27 17:45:00,50.9,40.3,29.98,SW,223,1.0,6.0,67,0.00,,,0.00,VWS V14.00,2013-10-27 21:45:00,
2013-10-27 17:46:00,50.9,40.0,29.98,SW,223,2.0,6.0,66,0.00,,,0.00,VWS V14.00,2013-10-27 21:46:00,
2013-10-27 17:47:00,50.8,40.2,29.98,SW,223,0.0,6.0,67,0.00,,,0.00,VWS V14.00,2013-10-27 21:47:00,
2013-10-27 17:48:00,50.8,39.9,29.98,SW,222,2.0,6.0,66,0.00,,,0.00,VWS V14.00,2013-10-27 21:48:00,
2013-10-27 17:49:00,51.2,40.2,29.98,SW,215,2.0,6.0,66,0.00,,,0.00,VWS V14.00,2013-10-27 21:49:00,
2013-10-27 17:50:00,50.7,40.2,29.98,SW,222,1.0,6.0,67,0.00,,,0.00,VWS V14.00,2013-10-27 21:50:00,
2013-10-27 17:51:00,50.6,40.1,29.98,SW,222,2.0,6.0,67,0.00,,,0.00,VWS V14.00,2013-10-27 21:51:00,
2013-10-27 17:52:00,50.6,40.1,29.98,SW,222,1.0,6.0,67,0.00,,,0.00,VWS V14.00,2013-10-27 21:52:00,
2013-10-27 17:53:00,50.5,40.0,29.98,SW,222,0.0,6.0,67,0.00,,,0.00,VWS V14.00,2013-10-27 21:53:00,
2013-10-27 17:54:00,51.0,40.4,29.98,SW,223,5.0,6.0,67,0.00,,,0.00,VWS V14.00,2013-10-27 21:54:00,
2013-10-27 17:55:00,50.5,40.0,29.98,SW,222,4.0,6.0,67,0.00,,,0.00,VWS V14.00,2013-10-27 21:55:00,
2013-10-27 17:56:00,50.4,39.9,29.98,SW,222,2.0,6.0,67,0.00,,,0.00,VWS V14.00,2013-10-27 21:56:00,
2013-10-27 17:57:00,50.4,39.9,29.98,SW,222,4.0,6.0,67,0.00,,,0.00,VWS V14.00,2013-10-27 21:57:00,
2013-10-27 17:58:00,50.4,39.9,29.98,SW,222,0.0,6.0,67,0.00,,,0.00,VWS V14.00,2013-10-27 21:58:00,
2013-10-27 17:59:00,50.8,39.9,29.98,SW,223,1.0,6.0,66,0.00,,,0.00,VWS V14.00,2013-10-27 21:59:00,
2013-10-27 18:00:00,50.4,39.9,29.98,SW,222,1.0,6.0,67,0.00,,,0.00,VWS V14.00,2013-10-27 22:00:00,
2013-10-27 18:01:00,50.3,39.8,29.98,SW,222,3.0,4.0,67,0.00,,,0.00,VWS V14.00,2013-10-27 22:01:00,
2013-10-27 18:02:00,50.3,39.8,29.98,SW,222,4.0,5.0,67,0.00,,,0.00,VWS V14.00,2013-10-27 22:02:00,
2013-10-27 18:03:00,50.3,39.8,29.98,SW,222,2.0,5.0,67,0.00,,,0.00,VWS V14.00,2013-10-27 22:03:00,
2013-10-27 18:04:00,50.5,40.0,29.98,SW,222,0.0,6.0,67,0.00,,,0.00,VWS V14.00,2013-10-27 22:04:00,
2013-10-27 18:05:00,50.3,39.8,29.98,SW,222,0.0,5.0,67,0.00,,,0.00,VWS V14.00,2013-10-27 22:05:00,
2013-10-27 18:06:00,50.2,39.7,29.98,SW,222,0.0,6.0,67,0.00,,,0.00,VWS V14.00,2013-10-27 22:06:00,
2013-10-27 18:07:00,50.2,39.7,29.98,SW,222,2.0,6.0,67,0.00,,,0.00,VWS V14.00,2013-10-27 22:07:00,
2013-10-27 18:08:00,50.2,39.7,29.98,SW,222,0.0,6.0,67,0.00,,,0.00,VWS V14.00,2013-10-27 22:08:00,
2013-10-27 18:09:00,50.3,39.8,29.99,SW,222,1.0,6.0,67,0.00,,,0.00,VWS V14.00,2013-10-27 22:09:00,
2013-10-27 18:10:00,50.1,40.0,29.98,SW,222,1.0,6.0,68,0.00,,,0.00,VWS V14.00,2013-10-27 22:10:00,
2013-10-27 18:11:00,50.1,40.0,29.98,SW,222,1.0,6.0,68,0.00,,,0.00,VWS V14.00,2013-10-27 22:11:00,
2013-10-27 18:12:00,50.1,40.3,29.99,SW,222,1.0,6.0,69,0.00,,,0.00,VWS V14.00,2013-10-27 22:12:00,
2013-10-27 18:13:00,50.0,40.2,29.98,SW,222,0.0,6.0,69,0.00,,,0.00,VWS V14.00,2013-10-27 22:13:00,
2013-10-27 18:14:00,50.3,39.8,29.98,SW,222,0.0,5.0,67,0.00,,,0.00,VWS V14.00,2013-10-27 22:14:00,
2013-10-27 18:15:00,50.0,39.9,29.99,SW,222,3.0,6.0,68,0.00,,,0.00,VWS V14.00,2013-10-27 22:15:00,
2013-10-27 18:16:00,49.9,39.8,29.99,SW,222,0.0,6.0,68,0.00,,,0.00,VWS V14.00,2013-10-27 22:16:00,
2013-10-27 18:17:00,49.9,39.8,29.99,SW,222,2.0,6.0,68,0.00,,,0.00,VWS V14.00,2013-10-27 22:17:00,
2013-10-27 18:18:00,49.9,39.8,29.99,SW,222,0.0,6.0,68,0.00,,,0.00,VWS V14.00,2013-10-27 22:18:00,
2013-10-27 18:19:00,50.2,39.7,29.98,SW,222,1.0,6.0,67,0.00,,,0.00,VWS V14.00,2013-10-27 22:19:00,
2013-10-27 18:20:00,49.8,39.7,29.99,SW,222,0.0,6.0,68,0.00,,,0.00,VWS V14.00,2013-10-27 22:20:00,
2013-10-27 18:21:00,49.8,39.7,29.99,SSW,203,5.0,7.0,68,0.00,,,0.00,VWS V14.00,2013-10-27 22:21:00,
2013-10-27 18:22:00,49.7,39.6,29.99,SSW,203,0.0,7.0,68,0.00,,,0.00,VWS V14.00,2013-10-27 22:22:00,
2013-10-27 18:23:00,49.7,39.6,29.99,SSW,203,0.0,7.0,68,0.00,,,0.00,VWS V14.00,2013-10-27 22:23:00,
2013-10-27 18:24:00,50.0,40.2,29.99,SW,222,0.0,6.0,69,0.00,,,0.00,VWS V14.00,2013-10-27 22:24:00,
2013-10-27 18:25:00,49.7,39.6,29.99,SSW,204,0.0,7.0,68,0.00,,,0.00,VWS V14.00,2013-10-27 22:25:00,
2013-10-27 18:26:00,49.6,39.5,29.99,SSW,203,2.0,7.0,68,0.00,,,0.00,VWS V14.00,2013-10-27 22:26:00,
2013-10-27 18:27:00,49.6,39.5,29.99,SSW,203,0.0,7.0,68,0.00,,,0.00,VWS V14.00,2013-10-27 22:27:00,
2013-10-27 18:28:00,49.6,39.5,29.99,SSW,203,0.0,7.0,68,0.00,,,0.00,VWS V14.00,2013-10-27 22:28:00,
2013-10-27 18:29:00,49.8,39.7,29.99,SW,222,2.0,6.0,68,0.00,,,0.00,VWS V14.00,2013-10-27 22:29:00,
2013-10-27 18:30:00,49.6,39.5,29.99,SSW,205,1.0,7.0,68,0.00,,,0.00,VWS V14.00,2013-10-27 22:30:00,
2013-10-27 18:31:00,49.6,39.5,29.99,SSW,205,2.0,5.0,68,0.00,,,0.00,VWS V14.00,2013-10-27 22:31:00,
2013-10-27 18:32:00,49.6,39.5,29.99,SSW,205,0.0,5.0,68,0.00,,,0.00,VWS V14.00,2013-10-27 22:32:00,
2013-10-27 18:33:00,49.6,39.5,29.99,SSW,205,2.0,5.0,68,0.00,,,0.00,VWS V14.00,2013-10-27 22:33:00,
2013-10-27 18:34:00,49.7,39.6,29.99,SSW,203,5.0,7.0,68,0.00,,,0.00,VWS V14.00,2013-10-27 22:34:00,
2013-10-27 18:35:00,49.6,39.5,29.99,SSW,205,1.0,5.0,68,0.00,,,0.00,VWS V14.00,2013-10-27 22:35:00,
2013-10-27 18:36:00,49.7,39.6,29.99,SSW,205,0.0,5.0,68,0.00,,,0.00,VWS V14.00,2013-10-27 22:36:00,
2013-10-27 18:37:00,49.7,39.6,29.99,SSW,205,0.0,5.0,68,0.00,,,0.00,VWS V14.00,2013-10-27 22:37:00,
2013-10-27 18:38:00,49.7,39.6,29.99,SSW,205,0.0,5.0,68,0.00,,,0.00,VWS V14.00,2013-10-27 22:38:00,
2013-10-27 18:39:00,49.6,39.5,29.99,SSW,203,5.0,7.0,68,0.00,,,0.00,VWS V14.00,2013-10-27 22:39:00,
2013-10-27 18:40:00,49.6,39.9,29.99,SSW,205,1.0,5.0,69,0.00,,,0.00,VWS V14.00,2013-10-27 22:40:00,
2013-10-27 18:41:00,49.6,39.9,29.99,SSW,205,0.0,5.0,69,0.00,,,0.00,VWS V14.00,2013-10-27 22:41:00,
2013-10-27 18:42:00,49.6,39.9,29.99,SSW,205,2.0,5.0,69,0.00,,,0.00,VWS V14.00,2013-10-27 22:42:00,
2013-10-27 18:43:00,49.6,39.9,29.99,SSW,205,0.0,5.0,69,0.00,,,0.00,VWS V14.00,2013-10-27 22:43:00,
2013-10-27 18:44:00,49.6,39.5,29.99,SSW,205,0.0,5.0,68,0.00,,,0.00,VWS V14.00,2013-10-27 22:44:00,
2013-10-27 18:45:00,49.5,39.8,30.00,SSW,205,2.0,5.0,69,0.00,,,0.00,VWS V14.00,2013-10-27 22:45:00,
2013-10-27 18:46:00,49.5,39.8,30.00,SSW,205,1.0,5.0,69,0.00,,,0.00,VWS V14.00,2013-10-27 22:46:00,
2013-10-27 18:47:00,49.5,40.1,30.00,SSW,205,0.0,5.0,70,0.00,,,0.00,VWS V14.00,2013-10-27 22:47:00,
2013-10-27 18:48:00,49.4,40.0,29.99,SSW,205,0.0,5.0,70,0.00,,,0.00,VWS V14.00,2013-10-27 22:48:00,
2013-10-27 18:49:00,49.6,39.5,29.99,SSW,205,3.0,5.0,68,0.00,,,0.00,VWS V14.00,2013-10-27 22:49:00,
2013-10-27 18:50:00,49.4,40.0,30.00,SSW,205,1.0,5.0,70,0.00,,,0.00,VWS V14.00,2013-10-27 22:50:00,
2013-10-27 18:51:00,49.4,40.0,30.00,SSW,205,3.0,5.0,70,0.00,,,0.00,VWS V14.00,2013-10-27 22:51:00,
2013-10-27 18:52:00,49.3,39.6,30.00,SSW,205,1.0,5.0,69,0.00,,,0.00,VWS V14.00,2013-10-27 22:52:00,
2013-10-27 18:53:00,49.3,39.6,30.00,SSW,205,0.0,5.0,69,0.00,,,0.00,VWS V14.00,2013-10-27 22:53:00,
2013-10-27 18:54:00,49.5,39.8,29.99,SSW,205,0.0,5.0,69,0.00,,,0.00,VWS V14.00,2013-10-27 22:54:00,
2013-10-27 18:55:00,49.2,39.5,30.00,SSW,205,2.0,5.0,69,0.00,,,0.00,VWS V14.00,2013-10-27 22:55:00,
2013-10-27 18:56:00,49.2,39.5,30.00,SSW,205,0.0,5.0,69,0.00,,,0.00,VWS V14.00,2013-10-27 22:56:00,
2013-10-27 18:57:00,49.2,39.5,30.00,SSW,205,1.0,5.0,69,0.00,,,0.00,VWS V14.00,2013-10-27 22:57:00,
2013-10-27 18:58:00,49.2,39.5,30.00,SSW,205,0.0,5.0,69,0.00,,,0.00,VWS V14.00,2013-10-27 22:58:00,
2013-10-27 18:59:00,49.4,40.0,30.00,SSW,205,3.0,5.0,70,0.00,,,0.00,VWS V14.00,2013-10-27 22:59:00,
2013-10-27 19:00:00,49.2,39.5,30.00,SSW,205,1.0,5.0,69,0.00,,,0.00,VWS V14.00,2013-10-27 23:00:00,
2013-10-27 19:01:00,49.2,39.5,30.00,SSW,205,2.0,3.0,69,0.00,,,0.00,VWS V14.00,2013-10-27 23:01:00,
2013-10-27 19:02:00,49.2,39.5,30.00,SSW,205,0.0,3.0,69,0.00,,,0.00,VWS V14.00,2013-10-27 23:02:00,
2013-10-27 19:03:00,49.2,39.5,30.00,SSW,205,0.0,3.0,69,0.00,,,0.00,VWS V14.00,2013-10-27 23:03:00,
2013-10-27 19:04:00,49.3,39.6,30.00,SSW,205,1.0,5.0,69,0.00,,,0.00,VWS V14.00,2013-10-27 23:04:00,
2013-10-27 19:05:00,49.2,39.5,30.00,SSW,205,0.0,4.0,69,0.00,,,0.00,VWS V14.00,2013-10-27 23:05:00,
2013-10-27 19:06:00,49.2,39.5,30.00,SSW,205,0.0,4.0,69,0.00,,,0.00,VWS V14.00,2013-10-27 23:06:00,
2013-10-27 19:07:00,49.2,39.5,30.00,SSW,205,2.0,4.0,69,0.00,,,0.00,VWS V14.00,2013-10-27 23:07:00,
2013-10-27 19:08:00,49.1,39.4,30.00,SSW,205,3.0,4.0,69,0.00,,,0.00,VWS V14.00,2013-10-27 23:08:00,
2013-10-27 19:09:00,49.2,39.5,30.00,SSW,205,1.0,5.0,69,0.00,,,0.00,VWS V14.00,2013-10-27 23:09:00,
2013-10-27 19:10:00,49.1,39.4,30.00,SSW,206,0.0,4.0,69,0.00,,,0.00,VWS V14.00,2013-10-27 23:10:00,
2013-10-27 19:11:00,49.1,39.4,30.00,SSW,206,4.0,4.0,69,0.00,,,0.00,VWS V14.00,2013-10-27 23:11:00,
2013-10-27 19:12:00,49.1,39.4,30.00,SSW,206,0.0,4.0,69,0.00,,,0.00,VWS V14.00,2013-10-27 23:12:00,
2013-10-27 19:13:00,49.0,39.3,30.00,SSW,206,2.0,4.0,69,0.00,,,0.00,VWS V14.00,2013-10-27 23:13:00,
2013-10-27 19:14:00,49.2,39.5,30.00,SSW,205,3.0,4.0,69,0.00,,,0.00,VWS V14.00,2013-10-27 23:14:00,
2013-10-27 19:15:00,49.0,39.3,30.00,SSW,207,1.0,5.0,69,0.00,,,0.00,VWS V14.00,2013-10-27 23:15:00,
2013-10-27 19:16:00,49.0,39.3,30.00,SSW,207,0.0,5.0,69,0.00,,,0.00,VWS V14.00,2013-10-27 23:16:00,
2013-10-27 19:17:00,49.0,39.3,30.00,SSW,207,0.0,5.0,69,0.00,,,0.00,VWS V14.00,2013-10-27 23:17:00,
2013-10-27 19:18:00,48.9,39.6,30.00,SSW,207,0.0,5.0,70,0.00,,,0.00,VWS V14.00,2013-10-27 23:18:00,
2013-10-27 19:19:00,49.1,39.4,30.00,SSW,206,0.0,4.0,69,0.00,,,0.00,VWS V14.00,2013-10-27 23:19:00,
2013-10-27 19:20:00,48.8,39.5,30.00,SSW,207,1.0,5.0,70,0.00,,,0.00,VWS V14.00,2013-10-27 23:20:00,
2013-10-27 19:21:00,48.8,39.5,30.00,SSW,207,0.0,5.0,70,0.00,,,0.00,VWS V14.00,2013-10-27 23:21:00,
2013-10-27 19:22:00,48.8,39.5,30.00,SSW,207,0.0,5.0,70,0.00,,,0.00,VWS V14.00,2013-10-27 23:22:00,
2013-10-27 19:23:00,48.7,39.4,30.00,SSW,207,0.0,5.0,70,0.00,,,0.00,VWS V14.00,2013-10-27 23:23:00,
2013-10-27 19:24:00,49.0,39.7,30.00,SSW,206,0.0,4.0,70,0.00,,,0.00,VWS V14.00,2013-10-27 23:24:00,
2013-10-27 19:25:00,48.7,39.4,30.00,SSW,207,0.0,5.0,70,0.00,,,0.00,VWS V14.00,2013-10-27 23:25:00,
2013-10-27 19:26:00,48.7,39.4,30.00,SSW,207,1.0,5.0,70,0.00,,,0.00,VWS V14.00,2013-10-27 23:26:00,
2013-10-27 19:27:00,48.6,39.3,30.00,SSW,208,0.0,5.0,70,0.00,,,0.00,VWS V14.00,2013-10-27 23:27:00,
2013-10-27 19:28:00,48.6,39.3,30.00,SSW,208,0.0,5.0,70,0.00,,,0.00,VWS V14.00,2013-10-27 23:28:00,
2013-10-27 19:29:00,48.9,39.6,30.00,SSW,207,1.0,5.0,70,0.00,,,0.00,VWS V14.00,2013-10-27 23:29:00,
2013-10-27 19:30:00,48.6,39.3,30.00,SSW,208,2.0,5.0,70,0.00,,,0.00,VWS V14.00,2013-10-27 23:30:00,
2013-10-27 19:31:00,48.6,39.3,30.00,SSW,207,2.0,4.0,70,0.00,,,0.00,VWS V14.00,2013-10-27 23:31:00,
2013-10-27 19:32:00,48.6,39.3,30.00,SSW,207,0.0,4.0,70,0.00,,,0.00,VWS V14.00,2013-10-27 23:32:00,
2013-10-27 19:33:00,48.6,39.3,30.00,SSW,208,0.0,4.0,70,0.00,,,0.00,VWS V14.00,2013-10-27 23:33:00,
2013-10-27 19:34:00,48.7,39.4,30.00,SSW,207,1.0,5.0,70,0.00,,,0.00,VWS V14.00,2013-10-27 23:34:00,
2013-10-27 19:35:00,48.6,39.3,30.00,SSW,208,0.0,4.0,70,0.00,,,0.00,VWS V14.00,2013-10-27 23:35:00,
2013-10-27 19:36:00,48.6,39.3,30.00,SSW,199,2.0,6.0,70,0.00,,,0.00,VWS V14.00,2013-10-27 23:36:00,
2013-10-27 19:37:00,48.6,39.3,30.00,SSW,199,0.0,6.0,70,0.00,,,0.00,VWS V14.00,2013-10-27 23:37:00,
2013-10-27 19:38:00,48.6,39.3,30.00,SSW,199,3.0,6.0,70,0.00,,,0.00,VWS V14.00,2013-10-27 23:38:00,
2013-10-27 19:39:00,48.6,39.3,30.00,SSW,208,2.0,5.0,70,0.00,,,0.00,VWS V14.00,2013-10-27 23:39:00,
2013-10-27 19:40:00,48.6,39.6,30.00,SSW,199,2.0,6.0,71,0.00,,,0.00,VWS V14.00,2013-10-27 23:40:00,
2013-10-27 19:41:00,48.6,39.6,30.00,SSW,199,0.0,6.0,71,0.00,,,0.00,VWS V14.00,2013-10-27 23:41:00,
2013-10-27 19:42:00,48.6,39.6,30.00,SSW,199,0.0,6.0,71,0.00,,,0.00,VWS V14.00,2013-10-27 23:42:00,
2013-10-27 19:43:00,48.6,39.6,30.00,SSW,200,3.0,6.0,71,0.00,,,0.00,VWS V14.00,2013-10-27 23:43:00,
2013-10-27 19:44:00,48.6,39.3,30.00,SSW,207,3.0,4.0,70,0.00,,,0.00,VWS V14.00,2013-10-27 23:44:00,
2013-10-27 19:45:00,48.5,39.5,30.00,SSW,199,1.0,6.0,71,0.00,,,0.00,VWS V14.00,2013-10-27 23:45:00,
2013-10-27 19:46:00,48.5,39.5,30.00,SSW,199,0.0,6.0,71,0.00,,,0.00,VWS V14.00,2013-10-27 23:46:00,
2013-10-27 19:47:00,48.5,39.5,30.00,SSW,199,0.0,6.0,71,0.00,,,0.00,VWS V14.00,2013-10-27 23:47:00,
2013-10-27 19:48:00,48.5,39.5,30.00,SW,220,2.0,9.0,71,0.00,,,0.00,VWS V14.00,2013-10-27 23:48:00,
2013-10-27 19:49:00,48.6,39.3,30.00,SSW,199,2.0,6.0,70,0.00,,,0.00,VWS V14.00,2013-10-27 23:49:00,
2013-10-27 19:50:00,48.5,39.2,30.00,SW,219,2.0,9.0,70,0.00,,,0.00,VWS V14.00,2013-10-27 23:50:00,
2013-10-27 19:51:00,48.5,39.2,30.00,SW,219,3.0,9.0,70,0.00,,,0.00,VWS V14.00,2013-10-27 23:51:00,
2013-10-27 19:52:00,48.5,39.2,30.00,SW,219,3.0,9.0,70,0.00,,,0.00,VWS V14.00,2013-10-27 23:52:00,
2013-10-27 19:53:00,48.6,39.3,30.00,SW,219,0.0,9.0,70,0.00,,,0.00,VWS V14.00,2013-10-27 23:53:00,
2013-10-27 19:54:00,48.6,39.6,30.00,SSW,199,0.0,6.0,71,0.00,,,0.00,VWS V14.00,2013-10-27 23:54:00,
2013-10-27 19:55:00,48.6,39.3,30.00,SW,219,0.0,9.0,70,0.00,,,0.00,VWS V14.00,2013-10-27 23:55:00,
2013-10-27 19:56:00,48.7,39.4,30.01,SW,217,0.0,9.0,70,0.00,,,0.00,VWS V14.00,2013-10-27 23:56:00,
2013-10-27 19:57:00,48.7,39.4,30.01,SW,217,0.0,9.0,70,0.00,,,0.00,VWS V14.00,2013-10-27 23:57:00,
2013-10-27 19:58:00,48.7,39.4,30.01,SW,215,0.0,9.0,70,0.00,,,0.00,VWS V14.00,2013-10-27 23:58:00,
2013-10-27 19:59:00,48.5,39.2,30.00,SW,219,0.0,9.0,70,0.00,,,0.00,VWS V14.00,2013-10-27 23:59:00,
2013-10-27 20:00:00,48.7,39.4,30.01,SW,215,0.0,9.0,70,0.00,,,0.00,VWS V14.00,2013-10-28 00:00:00,
2013-10-27 20:01:00,48.7,39.4,30.00,SW,215,2.0,2.0,70,0.00,,,0.00,VWS V14.00,2013-10-28 00:01:00,
2013-10-27 20:02:00,48.7,39.0,30.00,SW,217,2.0,5.0,69,0.00,,,0.00,VWS V14.00,2013-10-28 00:02:00,
2013-10-27 20:03:00,48.7,39.0,30.00,SW,216,4.0,5.0,69,0.00,,,0.00,VWS V14.00,2013-10-28 00:03:00,
2013-10-27 20:04:00,48.6,39.3,30.00,SW,219,1.0,9.0,70,0.00,,,0.00,VWS V14.00,2013-10-28 00:04:00,
2013-10-27 20:05:00,48.7,39.0,30.00,SW,217,3.0,5.0,69,0.00,,,0.00,VWS V14.00,2013-10-28 00:05:00,
2013-10-27 20:06:00,48.7,39.4,30.00,SW,217,0.0,5.0,70,0.00,,,0.00,VWS V14.00,2013-10-28 00:06:00,
2013-10-27 20:07:00,48.7,39.4,30.00,SW,217,0.0,5.0,70,0.00,,,0.00,VWS V14.00,2013-10-28 00:07:00,
2013-10-27 20:08:00,48.7,39.4,30.00,SW,217,1.0,5.0,70,0.00,,,0.00,VWS V14.00,2013-10-28 00:08:00,
2013-10-27 20:09:00,48.7,39.4,30.01,SW,215,2.0,9.0,70,0.00,,,0.00,VWS V14.00,2013-10-28 00:09:00,
2013-10-27 20:10:00,48.7,39.4,30.00,SW,216,4.0,5.0,70,0.00,,,0.00,VWS V14.00,2013-10-28 00:10:00,
2013-10-27 20:11:00,48.7,39.4,30.00,SW,216,2.0,5.0,70,0.00,,,0.00,VWS V14.00,2013-10-28 00:11:00,
2013-10-27 20:12:00,48.7,39.4,30.00,SW,217,2.0,5.0,70,0.00,,,0.00,VWS V14.00,2013-10-28 00:12:00,
2013-10-27 20:13:00,48.7,39.4,30.00,SW,217,3.0,5.0,70,0.00,,,0.00,VWS V14.00,2013-10-28 00:13:00,
2013-10-27 20:14:00,48.7,39.0,30.00,SW,216,2.0,5.0,69,0.00,,,0.00,VWS V14.00,2013-10-28 00:14:00,
2013-10-27 20:15:00,48.7,39.7,30.00,SW,217,0.0,5.0,71,0.00,,,0.00,VWS V14.00,2013-10-28 00:15:00,
2013-10-27 20:16:00,48.6,39.6,30.00,SW,217,0.0,5.0,71,0.00,,,0.00,VWS V14.00,2013-10-28 00:16:00,
2013-10-27 20:17:00,48.6,39.6,30.00,SW,217,0.0,5.0,71,0.00,,,0.00,VWS V14.00,2013-10-28 00:17:00,
2013-10-27 20:18:00,48.6,39.6,30.00,SW,216,5.0,6.0,71,0.00,,,0.00,VWS V14.00,2013-10-28 00:18:00,
2013-10-27 20:19:00,48.7,39.4,30.00,SW,217,2.0,5.0,70,0.00,,,0.00,VWS V14.00,2013-10-28 00:19:00,
2013-10-27 20:20:00,48.6,39.3,30.00,SW,215,4.0,6.0,70,0.00,,,0.00,VWS V14.00,2013-10-28 00:20:00,
2013-10-27 20:21:00,48.6,39.3,30.00,SW,216,2.0,6.0,70,0.00,,,0.00,VWS V14.00,2013-10-28 00:21:00,
2013-10-27 20:22:00,48.6,39.3,30.00,SW,216,3.0,6.0,70,0.00,,,0.00,VWS V14.00,2013-10-28 00:22:00,
2013-10-27 20:23:00,48.6,39.3,30.00,SW,216,0.0,6.0,70,0.00,,,0.00,VWS V14.00,2013-10-28 00:23:00,
2013-10-27 20:24:00,48.7,39.7,30.00,SW,217,0.0,5.0,71,0.00,,,0.00,VWS V14.00,2013-10-28 00:24:00,
2013-10-27 20:25:00,48.5,39.5,30.00,SW,216,0.0,6.0,71,0.00,,,0.00,VWS V14.00,2013-10-28 00:25:00,
2013-10-27 20:26:00,48.5,39.5,30.00,SW,215,2.0,6.0,71,0.00,,,0.00,VWS V14.00,2013-10-28 00:26:00,
2013-10-27 20:27:00,48.5,39.2,30.00,SW,215,2.0,6.0,70,0.00,,,0.00,VWS V14.00,2013-10-28 00:27:00,
2013-10-27 20:28:00,48.5,39.2,30.00,SW,216,0.0,6.0,70,0.00,,,0.00,VWS V14.00,2013-10-28 00:28:00,
2013-10-27 20:29:00,48.6,39.3,30.00,SW,215,0.0,6.0,70,0.00,,,0.00,VWS V14.00,2013-10-28 00:29:00,
2013-10-27 20:30:00,48.5,39.5,30.00,SW,216,0.0,6.0,71,0.00,,,0.00,VWS V14.00,2013-10-28 00:30:00,
2013-10-27 20:31:00,48.5,39.5,30.00,SW,216,0.0,0.0,71,0.00,,,0.00,VWS V14.00,2013-10-28 00:31:00,
2013-10-27 20:32:00,48.5,39.5,30.00,SW,215,1.0,3.0,71,0.00,,,0.00,VWS V14.00,2013-10-28 00:32:00,
2013-10-27 20:33:00,48.4,39.4,30.00,SW,215,0.0,3.0,71,0.00,,,0.00,VWS V14.00,2013-10-28 00:33:00,
2013-10-27 20:34:00,48.5,39.2,30.00,SW,216,1.0,6.0,70,0.00,,,0.00,VWS V14.00,2013-10-28 00:34:00,
2013-10-27 20:35:00,48.4,39.4,30.00,SW,216,2.0,6.0,71,0.00,,,0.00,VWS V14.00,2013-10-28 00:35:00,
2013-10-27 20:36:00,48.3,39.0,30.00,SW,217,1.0,6.0,70,0.00,,,0.00,VWS V14.00,2013-10-28 00:36:00,
2013-10-27 20:37:00,48.4,39.1,30.00,SW,217,2.0,6.0,70,0.00,,,0.00,VWS V14.00,2013-10-28 00:37:00,
2013-10-27 20:38:00,48.4,39.1,30.01,SW,217,2.0,6.0,70,0.00,,,0.00,VWS V14.00,2013-10-28 00:38:00,
2013-10-27 20:39:00,48.5,39.2,30.00,SW,215,0.0,6.0,70,0.00,,,0.00,VWS V14.00,2013-10-28 00:39:00,
2013-10-27 20:40:00,48.4,39.1,30.01,SW,217,0.0,6.0,70,0.00,,,0.00,VWS V14.00,2013-10-28 00:40:00,
2013-10-27 20:41:00,48.4,39.1,30.00,SW,217,3.0,6.0,70,0.00,,,0.00,VWS V14.00,2013-10-28 00:41:00,
2013-10-27 20:42:00,48.4,39.1,30.00,SW,217,0.0,6.0,70,0.00,,,0.00,VWS V14.00,2013-10-28 00:42:00,
2013-10-27 20:43:00,48.4,39.1,30.00,SW,218,0.0,6.0,70,0.00,,,0.00,VWS V14.00,2013-10-28 00:43:00,
2013-10-27 20:44:00,48.4,39.4,30.00,SW,216,1.0,6.0,71,0.00,,,0.00,VWS V14.00,2013-10-28 00:44:00,
2013-10-27 20:45:00,48.4,39.1,30.00,SW,225,1.0,7.0,70,0.00,,,0.00,VWS V14.00,2013-10-28 00:45:00,
2013-10-27 20:46:00,48.5,39.2,30.00,SW,225,3.0,7.0,70,0.00,,,0.00,VWS V14.00,2013-10-28 00:46:00,
2013-10-27 20:47:00,48.5,39.2,30.00,SW,221,3.0,7.0,70,0.00,,,0.00,VWS V14.00,2013-10-28 00:47:00,
2013-10-27 20:48:00,48.5,39.2,30.00,SW,221,3.0,7.0,70,0.00,,,0.00,VWS V14.00,2013-10-28 00:48:00,
2013-10-27 20:49:00,48.4,39.1,30.00,SW,217,0.0,6.0,70,0.00,,,0.00,VWS V14.00,2013-10-28 00:49:00,
2013-10-27 20:50:00,48.5,38.8,30.00,SW,227,3.0,9.0,69,0.00,,,0.00,VWS V14.00,2013-10-28 00:50:00,
2013-10-27 20:51:00,48.6,38.9,30.00,SW,227,2.0,9.0,69,0.00,,,0.00,VWS V14.00,2013-10-28 00:51:00,
2013-10-27 20:52:00,48.6,38.9,30.00,SW,227,0.0,9.0,69,0.00,,,0.00,VWS V14.00,2013-10-28 00:52:00,
2013-10-27 20:53:00,48.6,38.9,30.00,SW,226,3.0,9.0,69,0.00,,,0.00,VWS V14.00,2013-10-28 00:53:00,
2013-10-27 20:54:00,48.4,39.1,30.00,SW,218,0.0,6.0,70,0.00,,,0.00,VWS V14.00,2013-10-28 00:54:00,
2013-10-27 20:55:00,48.6,38.9,30.00,SW,226,2.0,9.0,69,0.00,,,0.00,VWS V14.00,2013-10-28 00:55:00,
2013-10-27 20:56:00,48.6,38.9,30.00,SW,226,0.0,9.0,69,0.00,,,0.00,VWS V14.00,2013-10-28 00:56:00,
2013-10-27 20:57:00,48.6,38.9,30.00,SW,226,0.0,9.0,69,0.00,,,0.00,VWS V14.00,2013-10-28 00:57:00,
2013-10-27 20:58:00,48.6,38.9,30.00,SW,226,0.0,9.0,69,0.00,,,0.00,VWS V14.00,2013-10-28 00:58:00,
2013-10-27 20:59:00,48.5,38.8,30.00,SW,221,0.0,9.0,69,0.00,,,0.00,VWS V14.00,2013-10-28 00:59:00,
2013-10-27 21:00:00,48.6,38.9,30.00,SW,226,3.0,9.0,69,0.00,,,0.00,VWS V14.00,2013-10-28 01:00:00,
2013-10-27 21:01:00,48.6,38.9,30.00,SW,226,0.0,3.0,69,0.00,,,0.00,VWS V14.00,2013-10-28 01:01:00,
2013-10-27 21:02:00,48.6,38.9,30.00,SW,227,1.0,3.0,69,0.00,,,0.00,VWS V14.00,2013-10-28 01:02:00,
2013-10-27 21:03:00,48.5,38.8,30.00,SW,227,2.0,4.0,69,0.00,,,0.00,VWS V14.00,2013-10-28 01:03:00,
2013-10-27 21:04:00,48.5,38.8,30.00,SW,227,0.0,4.0,69,0.00,,,0.00,VWS V14.00,2013-10-28 01:04:00,
2013-10-27 21:05:00,48.6,38.9,30.00,SW,226,2.0,9.0,69,0.00,,,0.00,VWS V14.00,2013-10-28 01:05:00,
2013-10-27 21:06:00,48.5,38.4,30.00,SW,227,0.0,4.0,68,0.00,,,0.00,VWS V14.00,2013-10-28 01:06:00,
2013-10-27 21:07:00,48.5,38.8,30.00,SW,227,0.0,4.0,69,0.00,,,0.00,VWS V14.00,2013-10-28 01:07:00,
2013-10-27 21:08:00,48.5,38.8,30.00,SW,227,0.0,4.0,69,0.00,,,0.00,VWS V14.00,2013-10-28 01:08:00,
2013-10-27 21:09:00,48.5,38.8,30.00,SW,227,0.0,4.0,69,0.00,,,0.00,VWS V14.00,2013-10-28 01:09:00,
2013-10-27 21:10:00,48.6,38.9,30.00,SW,226,3.0,9.0,69,0.00,,,0.00,VWS V14.00,2013-10-28 01:10:00,
2013-10-27 21:11:00,48.4,39.1,30.00,SW,227,2.0,4.0,70,0.00,,,0.00,VWS V14.00,2013-10-28 01:11:00,
2013-10-27 21:12:00,48.4,39.1,30.00,SW,227,2.0,4.0,70,0.00,,,0.00,VWS V14.00,2013-10-28 01:12:00,
2013-10-27 21:13:00,48.4,39.1,30.00,SW,227,0.0,4.0,70,0.00,,,0.00,VWS V14.00,2013-10-28 01:13:00,
2013-10-27 21:14:00,48.3,39.0,30.00,SW,226,1.0,4.0,70,0.00,,,0.00,VWS V14.00,2013-10-28 01:14:00,
2013-10-27 21:15:00,48.5,38.4,30.00,SW,226,2.0,4.0,68,0.00,,,0.00,VWS V14.00,2013-10-28 01:15:00,
2013-10-27 21:16:00,48.3,39.0,30.00,SW,226,3.0,5.0,70,0.00,,,0.00,VWS V14.00,2013-10-28 01:16:00,
2013-10-27 21:17:00,48.3,39.0,30.00,SW,227,0.0,5.0,70,0.00,,,0.00,VWS V14.00,2013-10-28 01:17:00,
2013-10-27 21:18:00,48.3,39.3,30.00,SW,227,0.0,5.0,71,0.00,,,0.00,VWS V14.00,2013-10-28 01:18:00,
2013-10-27 21:19:00,48.3,39.3,30.00,SW,227,1.0,5.0,71,0.00,,,0.00,VWS V14.00,2013-10-28 01:19:00,
2013-10-27 21:20:00,48.4,38.7,30.00,SW,226,1.0,4.0,69,0.00,,,0.00,VWS V14.00,2013-10-28 01:20:00,
2013-10-27 21:21:00,48.2,39.2,30.00,SW,226,1.0,5.0,71,0.00,,,0.00,VWS V14.00,2013-10-28 01:21:00,
2013-10-27 21:22:00,48.2,39.6,30.00,SW,226,0.0,5.0,72,0.00,,,0.00,VWS V14.00,2013-10-28 01:22:00,
2013-10-27 21:23:00,48.2,39.6,30.00,SW,227,0.0,5.0,72,0.00,,,0.00,VWS V14.00,2013-10-28 01:23:00,
2013-10-27 21:24:00,48.2,39.6,30.00,SW,227,0.0,5.0,72,0.00,,,0.00,VWS V14.00,2013-10-28 01:24:00,
2013-10-27 21:25:00,48.3,39.0,30.00,SW,227,0.0,4.0,70,0.00,,,0.00,VWS V14.00,2013-10-28 01:25:00,
2013-10-27 21:26:00,48.1,39.5,30.00,SW,226,0.0,5.0,72,0.00,,,0.00,VWS V14.00,2013-10-28 01:26:00,
2013-10-27 21:27:00,48.1,39.5,30.00,SW,226,1.0,5.0,72,0.00,,,0.00,VWS V14.00,2013-10-28 01:27:00,
2013-10-27 21:28:00,48.0,39.8,30.00,SW,226,0.0,5.0,73,0.00,,,0.00,VWS V14.00,2013-10-28 01:28:00,
2013-10-27 21:29:00,47.9,39.7,30.00,SW,226,0.0,5.0,73,0.00,,,0.00,VWS V14.00,2013-10-28 01:29:00,
2013-10-27 21:30:00,48.2,39.2,30.00,SW,226,0.0,5.0,71,0.00,,,0.00,VWS V14.00,2013-10-28 01:30:00,
2013-10-27 21:31:00,47.8,39.9,30.00,SW,227,3.0,3.0,74,0.00,,,0.00,VWS V14.00,2013-10-28 01:31:00,
2013-10-27 21:32:00,47.8,39.9,30.00,SW,227,1.0,3.0,74,0.00,,,0.00,VWS V14.00,2013-10-28 01:32:00,
2013-10-27 21:33:00,47.8,39.9,30.00,SW,227,0.0,4.0,74,0.00,,,0.00,VWS V14.00,2013-10-28 01:33:00,
2013-10-27 21:34:00,47.7,39.8,30.00,SW,226,0.0,4.0,74,0.00,,,0.00,VWS V14.00,2013-10-28 01:34:00,
2013-10-27 21:35:00,48.1,39.5,30.00,SW,227,0.0,5.0,72,0.00,,,0.00,VWS V14.00,2013-10-28 01:35:00,
2013-10-27 21:36:00,47.7,39.5,30.00,SW,227,3.0,4.0,73,0.00,,,0.00,VWS V14.00,2013-10-28 01:36:00,
2013-10-27 21:37:00,47.7,39.5,30.01,SW,227,2.0,4.0,73,0.00,,,0.00,VWS V14.00,2013-10-28 01:37:00,
2013-10-27 21:38:00,47.7,39.5,30.01,SW,227,2.0,4.0,73,0.00,,,0.00,VWS V14.00,2013-10-28 01:38:00,
2013-10-27 21:39:00,47.7,39.5,30.01,SW,227,0.0,4.0,73,0.00,,,0.00,VWS V14.00,2013-10-28 01:39:00,
2013-10-27 21:40:00,47.9,39.7,30.00,SW,227,0.0,5.0,73,0.00,,,0.00,VWS V14.00,2013-10-28 01:40:00,
2013-10-27 21:41:00,47.7,39.5,30.01,SW,226,3.0,4.0,73,0.00,,,0.00,VWS V14.00,2013-10-28 01:41:00,
2013-10-27 21:42:00,47.7,39.5,30.01,SW,226,2.0,4.0,73,0.00,,,0.00,VWS V14.00,2013-10-28 01:42:00,
2013-10-27 21:43:00,47.7,39.5,30.01,SW,227,3.0,4.0,73,0.00,,,0.00,VWS V14.00,2013-10-28 01:43:00,
2013-10-27 21:44:00,47.7,39.5,30.01,SW,226,3.0,5.0,73,0.00,,,0.00,VWS V14.00,2013-10-28 01:44:00,
2013-10-27 21:45:00,47.7,39.8,30.00,SW,226,0.0,4.0,74,0.00,,,0.00,VWS V14.00,2013-10-28 01:45:00,
2013-10-27 21:46:00,47.7,39.5,30.01,SW,226,0.0,5.0,73,0.00,,,0.00,VWS V14.00,2013-10-28 01:46:00,
2013-10-27 21:47:00,47.7,39.5,30.01,SW,226,0.0,5.0,73,0.00,,,0.00,VWS V14.00,2013-10-28 01:47:00,
2013-10-27 21:48:00,47.7,39.5,30.01,SW,226,4.0,5.0,73,0.00,,,0.00,VWS V14.00,2013-10-28 01:48:00,
2013-10-27 21:49:00,47.7,39.1,30.01,SW,226,3.0,5.0,72,0.00,,,0.00,VWS V14.00,2013-10-28 01:49:00,
2013-10-27 21:50:00,47.7,39.5,30.01,SW,227,0.0,4.0,73,0.00,,,0.00,VWS V14.00,2013-10-28 01:50:00,
2013-10-27 21:51:00,47.7,39.1,30.01,SW,227,0.0,5.0,72,0.00,,,0.00,VWS V14.00,2013-10-28 01:51:00,
2013-10-27 21:52:00,47.7,39.1,30.01,SW,227,4.0,5.0,72,0.00,,,0.00,VWS V14.00,2013-10-28 01:52:00,
2013-10-27 21:53:00,47.7,39.1,30.01,SW,227,1.0,5.0,72,0.00,,,0.00,VWS V14.00,2013-10-28 01:53:00,
2013-10-27 21:54:00,47.7,39.1,30.01,SW,226,1.0,5.0,72,0.00,,,0.00,VWS V14.00,2013-10-28 01:54:00,
2013-10-27 21:55:00,47.7,39.5,30.01,SW,226,1.0,5.0,73,0.00,,,0.00,VWS V14.00,2013-10-28 01:55:00,
2013-10-27 21:56:00,47.6,38.7,30.01,SW,225,0.0,7.0,71,0.00,,,0.00,VWS V14.00,2013-10-28 01:56:00,
2013-10-27 21:57:00,47.6,38.7,30.01,SW,229,4.0,9.0,71,0.00,,,0.00,VWS V14.00,2013-10-28 01:57:00,
2013-10-27 21:58:00,47.6,38.7,30.01,SW,229,2.0,9.0,71,0.00,,,0.00,VWS V14.00,2013-10-28 01:58:00,
2013-10-27 21:59:00,47.6,38.7,30.01,SW,229,2.0,9.0,71,0.00,,,0.00,VWS V14.00,2013-10-28 01:59:00,
2013-10-27 22:00:00,47.7,39.1,30.01,SW,228,5.0,5.0,72,0.00,,,0.00,VWS V14.00,2013-10-28 02:00:00,
2013-10-27 22:01:00,47.6,38.7,30.01,SW,229,1.0,2.0,71,0.00,,,0.00,VWS V14.00,2013-10-28 02:01:00,
2013-10-27 22:02:00,47.7,38.8,30.01,SW,229,1.0,6.0,71,0.00,,,0.00,VWS V14.00,2013-10-28 02:02:00,
2013-10-27 22:03:00,47.6,38.3,30.01,SW,229,3.0,6.0,70,0.00,,,0.00,VWS V14.00,2013-10-28 02:03:00,
2013-10-27 22:04:00,47.6,38.3,30.01,SW,229,0.0,6.0,70,0.00,,,0.00,VWS V14.00,2013-10-28 02:04:00,
2013-10-27 22:05:00,47.7,39.1,30.01,SW,226,2.0,7.0,72,0.00,,,0.00,VWS V14.00,2013-10-28 02:05:00,
2013-10-27 22:06:00,47.6,38.3,30.01,SW,228,0.0,6.0,70,0.00,,,0.00,VWS V14.00,2013-10-28 02:06:00,
2013-10-27 22:07:00,47.6,38.3,30.01,SW,228,3.0,6.0,70,0.00,,,0.00,VWS V14.00,2013-10-28 02:07:00,
2013-10-27 22:08:00,47.5,38.2,30.01,SW,227,4.0,6.0,70,0.00,,,0.00,VWS V14.00,2013-10-28 02:08:00,
2013-10-27 22:09:00,47.5,38.2,30.01,SW,227,2.0,6.0,70,0.00,,,0.00,VWS V14.00,2013-10-28 02:09:00,
2013-10-27 22:10:00,47.7,38.8,30.01,SW,229,2.0,9.0,71,0.00,,,0.00,VWS V14.00,2013-10-28 02:10:00,
2013-10-27 22:11:00,47.4,37.8,30.01,SW,228,2.0,6.0,69,0.00,,,0.00,VWS V14.00,2013-10-28 02:11:00,
2013-10-27 22:12:00,47.4,37.8,30.01,SW,229,3.0,6.0,69,0.00,,,0.00,VWS V14.00,2013-10-28 02:12:00,
2013-10-27 22:13:00,47.4,37.8,30.01,SW,228,4.0,6.0,69,0.00,,,0.00,VWS V14.00,2013-10-28 02:13:00,
2013-10-27 22:14:00,47.4,37.8,30.01,SW,227,5.0,6.0,69,0.00,,,0.00,VWS V14.00,2013-10-28 02:14:00,
2013-10-27 22:15:00,47.6,38.3,30.01,SW,228,2.0,6.0,70,0.00,,,0.00,VWS V14.00,2013-10-28 02:15:00,
2013-10-27 22:16:00,47.4,37.8,30.02,SW,227,0.0,6.0,69,0.00,,,0.00,VWS V14.00,2013-10-28 02:16:00,
2013-10-27 22:17:00,47.3,37.7,30.02,SW,231,2.0,6.0,69,0.00,,,0.00,VWS V14.00,2013-10-28 02:17:00,
2013-10-27 22:18:00,47.3,37.7,30.02,SW,232,3.0,6.0,69,0.00,,,0.00,VWS V14.00,2013-10-28 02:18:00,
2013-10-27 22:19:00,47.3,37.7,30.02,SW,232,1.0,6.0,69,0.00,,,0.00,VWS V14.00,2013-10-28 02:19:00,
2013-10-27 22:20:00,47.4,38.1,30.01,SW,227,2.0,6.0,70,0.00,,,0.00,VWS V14.00,2013-10-28 02:20:00,
2013-10-27 22:21:00,47.2,37.6,30.02,SW,232,2.0,6.0,69,0.00,,,0.00,VWS V14.00,2013-10-28 02:21:00,
2013-10-27 22:22:00,47.2,37.6,30.02,SW,230,3.0,6.0,69,0.00,,,0.00,VWS V14.00,2013-10-28 02:22:00,
2013-10-27 22:23:00,47.1,37.5,30.02,SW,222,5.0,6.0,69,0.00,,,0.00,VWS V14.00,2013-10-28 02:23:00,
2013-10-27 22:24:00,47.1,37.5,30.02,SW,222,3.0,6.0,69,0.00,,,0.00,VWS V14.00,2013-10-28 02:24:00,
2013-10-27 22:25:00,47.4,37.8,30.02,SW,227,1.0,6.0,69,0.00,,,0.00,VWS V14.00,2013-10-28 02:25:00,
2013-10-27 22:26:00,47.1,37.5,30.02,SW,223,2.0,6.0,69,0.00,,,0.00,VWS V14.00,2013-10-28 02:26:00,
2013-10-27 22:27:00,47.1,37.5,30.02,SW,223,0.0,6.0,69,0.00,,,0.00,VWS V14.00,2013-10-28 02:27:00,
2013-10-27 22:28:00,47.0,37.4,30.02,SW,223,5.0,6.0,69,0.00,,,0.00,VWS V14.00,2013-10-28 02:28:00,
2013-10-27 22:29:00,47.0,37.4,30.02,SW,222,4.0,6.0,69,0.00,,,0.00,VWS V14.00,2013-10-28 02:29:00,
2013-10-27 22:30:00,47.2,37.6,30.02,SW,232,1.0,6.0,69,0.00,,,0.00,VWS V14.00,2013-10-28 02:30:00,
2013-10-27 22:31:00,46.9,37.3,30.02,SW,223,3.0,5.0,69,0.00,,,0.00,VWS V14.00,2013-10-28 02:31:00,
2013-10-27 22:32:00,46.9,37.3,30.02,SW,222,1.0,5.0,69,0.00,,,0.00,VWS V14.00,2013-10-28 02:32:00,
2013-10-27 22:33:00,46.8,37.2,30.02,SW,223,2.0,5.0,69,0.00,,,0.00,VWS V14.00,2013-10-28 02:33:00,
2013-10-27 22:34:00,46.8,37.2,30.02,SW,223,0.0,5.0,69,0.00,,,0.00,VWS V14.00,2013-10-28 02:34:00,
2013-10-27 22:35:00,47.1,37.5,30.02,SW,223,3.0,6.0,69,0.00,,,0.00,VWS V14.00,2013-10-28 02:35:00,
2013-10-27 22:36:00,46.7,37.1,30.02,SW,222,0.0,5.0,69,0.00,,,0.00,VWS V14.00,2013-10-28 02:36:00,
2013-10-27 22:37:00,46.6,37.3,30.02,SW,223,0.0,5.0,70,0.00,,,0.00,VWS V14.00,2013-10-28 02:37:00,
2013-10-27 22:38:00,46.5,37.3,30.02,SW,222,0.0,5.0,70,0.00,,,0.00,VWS V14.00,2013-10-28 02:38:00,
2013-10-27 22:39:00,46.5,36.9,30.02,SW,223,0.0,5.0,69,0.00,,,0.00,VWS V14.00,2013-10-28 02:39:00,
2013-10-27 22:40:00,47.0,37.4,30.02,SW,222,0.0,6.0,69,0.00,,,0.00,VWS V14.00,2013-10-28 02:40:00,
2013-10-27 22:41:00,46.3,37.1,30.02,SW,223,2.0,5.0,70,0.00,,,0.00,VWS V14.00,2013-10-28 02:41:00,
2013-10-27 22:42:00,46.3,37.1,30.02,SW,223,0.0,5.0,70,0.00,,,0.00,VWS V14.00,2013-10-28 02:42:00,
2013-10-27 22:43:00,46.2,37.0,30.02,SW,224,0.0,5.0,70,0.00,,,0.00,VWS V14.00,2013-10-28 02:43:00,
2013-10-27 22:44:00,46.2,37.0,30.02,SW,223,3.0,5.0,70,0.00,,,0.00,VWS V14.00,2013-10-28 02:44:00,
2013-10-27 22:45:00,46.7,37.1,30.02,SW,222,3.0,5.0,69,0.00,,,0.00,VWS V14.00,2013-10-28 02:45:00,
2013-10-27 22:46:00,46.1,36.9,30.02,SW,224,1.0,5.0,70,0.00,,,0.00,VWS V14.00,2013-10-28 02:46:00,
2013-10-27 22:47:00,46.0,37.1,30.02,SW,224,3.0,5.0,71,0.00,,,0.00,VWS V14.00,2013-10-28 02:47:00,
2013-10-27 22:48:00,46.0,37.1,30.02,SW,223,3.0,5.0,71,0.00,,,0.00,VWS V14.00,2013-10-28 02:48:00,
2013-10-27 22:49:00,46.0,37.1,30.02,SW,223,0.0,5.0,71,0.00,,,0.00,VWS V14.00,2013-10-28 02:49:00,
2013-10-27 22:50:00,46.4,37.2,30.02,SW,222,0.0,5.0,70,0.00,,,0.00,VWS V14.00,2013-10-28 02:50:00,
2013-10-27 22:51:00,45.9,37.4,30.02,SW,223,0.0,6.0,72,0.00,,,0.00,VWS V14.00,2013-10-28 02:51:00,
2013-10-27 22:52:00,45.9,37.4,30.02,SW,221,6.0,6.0,72,0.00,,,0.00,VWS V14.00,2013-10-28 02:52:00,
2013-10-27 22:53:00,45.9,37.4,30.02,SW,221,1.0,6.0,72,0.00,,,0.00,VWS V14.00,2013-10-28 02:53:00,
2013-10-27 22:54:00,45.9,37.4,30.02,SW,223,6.0,6.0,72,0.00,,,0.00,VWS V14.00,2013-10-28 02:54:00,
2013-10-27 22:55:00,46.1,36.9,30.02,SW,223,2.0,5.0,70,0.00,,,0.00,VWS V14.00,2013-10-28 02:55:00,
2013-10-27 22:56:00,45.9,37.0,30.02,SW,225,3.0,6.0,71,0.00,,,0.00,VWS V14.00,2013-10-28 02:56:00,
2013-10-27 22:57:00,45.9,37.0,30.02,SW,226,2.0,6.0,71,0.00,,,0.00,VWS V14.00,2013-10-28 02:57:00,
2013-10-27 22:58:00,45.9,37.0,30.02,SW,223,5.0,6.0,71,0.00,,,0.00,VWS V14.00,2013-10-28 02:58:00,
2013-10-27 22:59:00,45.9,37.0,30.02,SW,224,0.0,6.0,71,0.00,,,0.00,VWS V14.00,2013-10-28 02:59:00,
2013-10-27 23:00:00,46.0,37.1,30.02,SW,223,2.0,5.0,71,0.00,,,0.00,VWS V14.00,2013-10-28 03:00:00,
2013-10-27 23:01:00,45.9,37.0,30.02,SW,223,2.0,5.0,71,0.00,,,0.00,VWS V14.00,2013-10-28 03:01:00,
2013-10-27 23:02:00,46.0,37.1,30.02,SW,223,1.0,5.0,71,0.00,,,0.00,VWS V14.00,2013-10-28 03:02:00,
2013-10-27 23:03:00,45.9,37.0,30.02,SW,223,3.0,5.0,71,0.00,,,0.00,VWS V14.00,2013-10-28 03:03:00,
2013-10-27 23:04:00,45.9,37.0,30.02,SW,223,3.0,5.0,71,0.00,,,0.00,VWS V14.00,2013-10-28 03:04:00,
2013-10-27 23:05:00,45.9,37.4,30.02,SW,224,2.0,6.0,72,0.00,,,0.00,VWS V14.00,2013-10-28 03:05:00,
2013-10-27 23:06:00,45.9,37.0,30.02,SW,228,2.0,9.0,71,0.00,,,0.00,VWS V14.00,2013-10-28 03:06:00,
2013-10-27 23:07:00,45.9,37.0,30.02,SW,228,4.0,9.0,71,0.00,,,0.00,VWS V14.00,2013-10-28 03:07:00,
2013-10-27 23:08:00,45.9,37.0,30.02,SW,228,0.0,9.0,71,0.00,,,0.00,VWS V14.00,2013-10-28 03:08:00,
2013-10-27 23:09:00,45.9,37.0,30.02,SW,228,4.0,9.0,71,0.00,,,0.00,VWS V14.00,2013-10-28 03:09:00,
2013-10-27 23:10:00,46.0,37.1,30.02,SW,227,0.0,9.0,71,0.00,,,0.00,VWS V14.00,2013-10-28 03:10:00,
2013-10-27 23:11:00,45.9,37.0,30.02,SW,223,3.0,5.0,71,0.00,,,0.00,VWS V14.00,2013-10-28 03:11:00,
2013-10-27 23:12:00,46.0,37.1,30.02,SW,226,2.0,9.0,71,0.00,,,0.00,VWS V14.00,2013-10-28 03:12:00,
2013-10-27 23:13:00,46.0,37.5,30.02,SW,228,3.0,9.0,72,0.00,,,0.00,VWS V14.00,2013-10-28 03:13:00,
2013-10-27 23:14:00,46.0,37.5,30.02,SW,228,2.0,9.0,72,0.00,,,0.00,VWS V14.00,2013-10-28 03:14:00,
2013-10-27 23:15:00,46.0,37.1,30.02,SW,228,0.0,9.0,71,0.00,,,0.00,VWS V14.00,2013-10-28 03:15:00,
2013-10-27 23:16:00,45.9,37.0,30.02,SW,228,2.0,9.0,71,0.00,,,0.00,VWS V14.00,2013-10-28 03:16:00,
2013-10-27 23:17:00,46.1,37.2,30.02,SW,230,4.0,9.0,71,0.00,,,0.00,VWS V14.00,2013-10-28 03:17:00,
2013-10-27 23:18:00,46.1,37.2,30.02,SW,225,2.0,9.0,71,0.00,,,0.00,VWS V14.00,2013-10-28 03:18:00,
2013-10-27 23:19:00,46.1,37.2,30.02,SW,225,0.0,9.0,71,0.00,,,0.00,VWS V14.00,2013-10-28 03:19:00,
2013-10-27 23:20:00,46.1,37.2,30.02,SW,225,0.0,9.0,71,0.00,,,0.00,VWS V14.00,2013-10-28 03:20:00,
2013-10-27 23:21:00,46.0,37.1,30.02,SW,227,3.0,9.0,71,0.00,,,0.00,VWS V14.00,2013-10-28 03:21:00,
2013-10-27 23:22:00,46.0,37.1,30.02,SW,225,0.0,9.0,71,0.00,,,0.00,VWS V14.00,2013-10-28 03:22:00,
2013-10-27 23:23:00,46.0,37.1,30.02,SW,225,0.0,9.0,71,0.00,,,0.00,VWS V14.00,2013-10-28 03:23:00,
2013-10-27 23:24:00,46.0,37.1,30.02,SW,226,4.0,9.0,71,0.00,,,0.00,VWS V14.00,2013-10-28 03:24:00,
2013-10-27 23:25:00,46.0,37.1,30.02,SW,227,3.0,9.0,71,0.00,,,0.00,VWS V14.00,2013-10-28 03:25:00,
2013-10-27 23:26:00,46.0,37.1,30.02,SW,230,3.0,9.0,71,0.00,,,0.00,VWS V14.00,2013-10-28 03:26:00,
2013-10-27 23:27:00,45.9,37.0,30.02,SW,227,1.0,9.0,71,0.00,,,0.00,VWS V14.00,2013-10-28 03:27:00,
2013-10-27 23:28:00,45.9,37.0,30.02,SW,227,4.0,9.0,71,0.00,,,0.00,VWS V14.00,2013-10-28 03:28:00,
2013-10-27 23:29:00,45.8,37.0,30.02,SW,227,0.0,9.0,71,0.00,,,0.00,VWS V14.00,2013-10-28 03:29:00,
2013-10-27 23:30:00,45.8,37.0,30.02,SW,223,4.0,9.0,71,0.00,,,0.00,VWS V14.00,2013-10-28 03:30:00,
2013-10-27 23:31:00,46.1,37.2,30.02,SW,225,3.0,9.0,71,0.00,,,0.00,VWS V14.00,2013-10-28 03:31:00,
2013-10-27 23:32:00,45.8,37.0,30.02,SW,222,0.0,4.0,71,0.00,,,0.00,VWS V14.00,2013-10-28 03:32:00,
2013-10-27 23:33:00,45.7,36.8,30.02,SW,223,0.0,4.0,71,0.00,,,0.00,VWS V14.00,2013-10-28 03:33:00,
2013-10-27 23:34:00,45.7,36.8,30.02,SW,223,2.0,4.0,71,0.00,,,0.00,VWS V14.00,2013-10-28 03:34:00,
2013-10-27 23:35:00,45.6,36.8,30.02,SW,223,0.0,7.0,71,0.00,,,0.00,VWS V14.00,2013-10-28 03:35:00,
2013-10-27 23:36:00,45.9,37.0,30.02,SW,226,4.0,9.0,71,0.00,,,0.00,VWS V14.00,2013-10-28 03:36:00,
2013-10-27 23:37:00,45.6,36.8,30.02,SW,223,3.0,7.0,71,0.00,,,0.00,VWS V14.00,2013-10-28 03:37:00,
2013-10-27 23:38:00,45.5,36.7,30.02,SW,223,2.0,7.0,71,0.00,,,0.00,VWS V14.00,2013-10-28 03:38:00,
2013-10-27 23:39:00,45.5,36.7,30.02,SW,223,1.0,7.0,71,0.00,,,0.00,VWS V14.00,2013-10-28 03:39:00,
2013-10-27 23:40:00,45.4,36.6,30.02,SW,223,0.0,7.0,71,0.00,,,0.00,VWS V14.00,2013-10-28 03:40:00,
2013-10-27 23:41:00,45.8,37.0,30.02,SW,222,1.0,4.0,71,0.00,,,0.00,VWS V14.00,2013-10-28 03:41:00,
2013-10-27 23:42:00,45.4,36.6,30.02,SW,223,0.0,7.0,71,0.00,,,0.00,VWS V14.00,2013-10-28 03:42:00,
2013-10-27 23:43:00,45.3,36.5,30.02,SW,224,1.0,7.0,71,0.00,,,0.00,VWS V14.00,2013-10-28 03:43:00,
2013-10-27 23:44:00,45.3,36.8,30.02,SW,223,3.0,7.0,72,0.00,,,0.00,VWS V14.00,2013-10-28 03:44:00,
2013-10-27 23:45:00,45.3,36.8,30.02,SW,224,1.0,7.0,72,0.00,,,0.00,VWS V14.00,2013-10-28 03:45:00,
2013-10-27 23:46:00,45.6,36.8,30.02,SW,223,0.0,7.0,71,0.00,,,0.00,VWS V14.00,2013-10-28 03:46:00,
2013-10-27 23:47:00,45.2,36.7,30.02,SW,224,2.0,7.0,72,0.00,,,0.00,VWS V14.00,2013-10-28 03:47:00,
2013-10-27 23:48:00,45.1,36.6,30.02,SW,224,0.0,7.0,72,0.00,,,0.00,VWS V14.00,2013-10-28 03:48:00,
2013-10-27 23:49:00,45.0,36.5,30.02,SW,224,4.0,7.0,72,0.00,,,0.00,VWS V14.00,2013-10-28 03:49:00,
2013-10-27 23:50:00,45.0,36.5,30.02,SW,224,3.0,7.0,72,0.00,,,0.00,VWS V14.00,2013-10-28 03:50:00,
2013-10-27 23:51:00,45.4,36.6,30.02,SW,223,2.0,7.0,71,0.00,,,0.00,VWS V14.00,2013-10-28 03:51:00,
2013-10-27 23:52:00,45.0,36.5,30.02,SW,224,1.0,7.0,72,0.00,,,0.00,VWS V14.00,2013-10-28 03:52:00,
2013-10-27 23:53:00,45.0,36.5,30.02,SW,224,2.0,7.0,72,0.00,,,0.00,VWS V14.00,2013-10-28 03:53:00,
2013-10-27 23:54:00,44.9,36.4,30.02,SW,223,1.0,7.0,72,0.00,,,0.00,VWS V14.00,2013-10-28 03:54:00,
2013-10-27 23:55:00,44.9,36.4,30.02,SW,224,0.0,7.0,72,0.00,,,0.00,VWS V14.00,2013-10-28 03:55:00,
2013-10-27 23:56:00,45.2,36.7,30.02,SW,224,0.0,7.0,72,0.00,,,0.00,VWS V14.00,2013-10-28 03:56:00,
2013-10-27 23:57:00,44.8,36.3,30.03,SW,224,0.0,7.0,72,0.00,,,0.00,VWS V14.00,2013-10-28 03:57:00,
2013-10-27 23:58:00,44.8,36.7,30.02,SW,223,0.0,7.0,73,0.00,,,0.00,VWS V14.00,2013-10-28 03:58:00,
2013-10-27 23:59:00,44.8,36.7,30.02,SW,224,0.0,7.0,73,0.00,,,0.00,VWS V14.00,2013-10-28 03:59:00,